<?xml version="1.0" encoding="UTF-8" standalone="no" ?>
<gpx xmlns="http://www.topografix.com/GPX/1/1" xmlns:xsi="http://www.w3.org/2001/XMLSchema-instance" xsi:schemaLocation="http://www.topografix.com/GPX/1/1 http://www.topografix.com/GPX/1/1/gpx.xsd" version="1.1" creator="VisuGPX - https://www.visugpx.com">
  <metadata>
    <name>2021-05-16 11:38:44 [Garmin]</name>
    <desc><![CDATA[Circuit en vallée d?Eure au départ de Saint Vigor. 
]]></desc>
  </metadata>
  <trk>
    <name><![CDATA[2021-05-16 11:38:44 [Garmin]_1]]></name>
    <trkseg>
      <trkpt lat="49.07518" lon="1.25363">
        <ele>137.39999389648</ele>
        <time>2021-05-16T06:39:24Z</time>
      </trkpt>
      <trkpt lat="49.07505" lon="1.25357">
        <ele>137</ele>
        <time>2021-05-16T06:39:31Z</time>
      </trkpt>
      <trkpt lat="49.07503" lon="1.25355">
        <ele>137.19999694824</ele>
        <time>2021-05-16T06:39:32Z</time>
      </trkpt>
      <trkpt lat="49.075" lon="1.25353">
        <ele>135.60000610352</ele>
        <time>2021-05-16T06:39:33Z</time>
      </trkpt>
      <trkpt lat="49.07491" lon="1.25344">
        <ele>135.19999694824</ele>
        <time>2021-05-16T06:39:36Z</time>
      </trkpt>
      <trkpt lat="49.0749" lon="1.25338">
        <ele>135.19999694824</ele>
        <time>2021-05-16T06:39:37Z</time>
      </trkpt>
      <trkpt lat="49.07492" lon="1.25326">
        <ele>135.39999389648</ele>
        <time>2021-05-16T06:39:39Z</time>
      </trkpt>
      <trkpt lat="49.07503" lon="1.25292">
        <ele>135.80000305176</ele>
        <time>2021-05-16T06:39:45Z</time>
      </trkpt>
      <trkpt lat="49.07505" lon="1.25287">
        <ele>136</ele>
        <time>2021-05-16T06:39:46Z</time>
      </trkpt>
      <trkpt lat="49.07516" lon="1.25281">
        <ele>136.39999389648</ele>
        <time>2021-05-16T06:39:50Z</time>
      </trkpt>
      <trkpt lat="49.07519" lon="1.25286">
        <ele>135.80000305176</ele>
        <time>2021-05-16T06:39:52Z</time>
      </trkpt>
      <trkpt lat="49.07528" lon="1.25298">
        <ele>136</ele>
        <time>2021-05-16T06:39:56Z</time>
      </trkpt>
      <trkpt lat="49.07539" lon="1.25315">
        <ele>136.39999389648</ele>
        <time>2021-05-16T06:39:59Z</time>
      </trkpt>
      <trkpt lat="49.07544" lon="1.25319">
        <ele>136.39999389648</ele>
        <time>2021-05-16T06:40:00Z</time>
      </trkpt>
      <trkpt lat="49.07553" lon="1.25328">
        <ele>136.60000610352</ele>
        <time>2021-05-16T06:40:02Z</time>
      </trkpt>
      <trkpt lat="49.07575" lon="1.25344">
        <ele>137</ele>
        <time>2021-05-16T06:40:06Z</time>
      </trkpt>
      <trkpt lat="49.07602" lon="1.25359">
        <ele>137</ele>
        <time>2021-05-16T06:40:12Z</time>
      </trkpt>
      <trkpt lat="49.07604" lon="1.25359">
        <ele>137.19999694824</ele>
        <time>2021-05-16T06:40:15Z</time>
      </trkpt>
      <trkpt lat="49.07605" lon="1.2536">
        <ele>137.19999694824</ele>
        <time>2021-05-16T06:40:21Z</time>
      </trkpt>
      <trkpt lat="49.07619" lon="1.25364">
        <ele>137.19999694824</ele>
        <time>2021-05-16T06:40:27Z</time>
      </trkpt>
      <trkpt lat="49.07637" lon="1.25373">
        <ele>136</ele>
        <time>2021-05-16T06:40:33Z</time>
      </trkpt>
      <trkpt lat="49.07661" lon="1.25384">
        <ele>135.60000610352</ele>
        <time>2021-05-16T06:40:40Z</time>
      </trkpt>
      <trkpt lat="49.0767" lon="1.25401">
        <ele>135.80000305176</ele>
        <time>2021-05-16T06:40:43Z</time>
      </trkpt>
      <trkpt lat="49.07667" lon="1.25426">
        <ele>135.80000305176</ele>
        <time>2021-05-16T06:40:46Z</time>
      </trkpt>
      <trkpt lat="49.07654" lon="1.25495">
        <ele>135.80000305176</ele>
        <time>2021-05-16T06:40:53Z</time>
      </trkpt>
      <trkpt lat="49.07644" lon="1.25554">
        <ele>135.60000610352</ele>
        <time>2021-05-16T06:40:58Z</time>
      </trkpt>
      <trkpt lat="49.07639" lon="1.25579">
        <ele>135.19999694824</ele>
        <time>2021-05-16T06:41:00Z</time>
      </trkpt>
      <trkpt lat="49.07631" lon="1.25618">
        <ele>134.39999389648</ele>
        <time>2021-05-16T06:41:03Z</time>
      </trkpt>
      <trkpt lat="49.0763" lon="1.25631">
        <ele>134.19999694824</ele>
        <time>2021-05-16T06:41:04Z</time>
      </trkpt>
      <trkpt lat="49.0763" lon="1.25644">
        <ele>134</ele>
        <time>2021-05-16T06:41:05Z</time>
      </trkpt>
      <trkpt lat="49.07633" lon="1.25669">
        <ele>133.19999694824</ele>
        <time>2021-05-16T06:41:07Z</time>
      </trkpt>
      <trkpt lat="49.07636" lon="1.2569">
        <ele>132.39999389648</ele>
        <time>2021-05-16T06:41:09Z</time>
      </trkpt>
      <trkpt lat="49.07638" lon="1.25699">
        <ele>132.19999694824</ele>
        <time>2021-05-16T06:41:10Z</time>
      </trkpt>
      <trkpt lat="49.07642" lon="1.25725">
        <ele>131</ele>
        <time>2021-05-16T06:41:13Z</time>
      </trkpt>
      <trkpt lat="49.07643" lon="1.25733">
        <ele>130.60000610352</ele>
        <time>2021-05-16T06:41:14Z</time>
      </trkpt>
      <trkpt lat="49.07651" lon="1.25776">
        <ele>130.19999694824</ele>
        <time>2021-05-16T06:41:20Z</time>
      </trkpt>
      <trkpt lat="49.0766" lon="1.25821">
        <ele>130.60000610352</ele>
        <time>2021-05-16T06:41:27Z</time>
      </trkpt>
      <trkpt lat="49.07667" lon="1.2585">
        <ele>132</ele>
        <time>2021-05-16T06:41:32Z</time>
      </trkpt>
      <trkpt lat="49.07669" lon="1.25862">
        <ele>132.60000610352</ele>
        <time>2021-05-16T06:41:34Z</time>
      </trkpt>
      <trkpt lat="49.07671" lon="1.25873">
        <ele>133</ele>
        <time>2021-05-16T06:41:36Z</time>
      </trkpt>
      <trkpt lat="49.07676" lon="1.25897">
        <ele>134</ele>
        <time>2021-05-16T06:41:40Z</time>
      </trkpt>
      <trkpt lat="49.07679" lon="1.25909">
        <ele>134.60000610352</ele>
        <time>2021-05-16T06:41:42Z</time>
      </trkpt>
      <trkpt lat="49.07681" lon="1.25921">
        <ele>135.19999694824</ele>
        <time>2021-05-16T06:41:44Z</time>
      </trkpt>
      <trkpt lat="49.07688" lon="1.25951">
        <ele>136.39999389648</ele>
        <time>2021-05-16T06:41:49Z</time>
      </trkpt>
      <trkpt lat="49.07695" lon="1.25988">
        <ele>137.60000610352</ele>
        <time>2021-05-16T06:41:55Z</time>
      </trkpt>
      <trkpt lat="49.07698" lon="1.26007">
        <ele>138.19999694824</ele>
        <time>2021-05-16T06:41:58Z</time>
      </trkpt>
      <trkpt lat="49.07701" lon="1.26032">
        <ele>138.80000305176</ele>
        <time>2021-05-16T06:42:02Z</time>
      </trkpt>
      <trkpt lat="49.07704" lon="1.26052">
        <ele>139.19999694824</ele>
        <time>2021-05-16T06:42:05Z</time>
      </trkpt>
      <trkpt lat="49.07705" lon="1.26074">
        <ele>139.80000305176</ele>
        <time>2021-05-16T06:42:08Z</time>
      </trkpt>
      <trkpt lat="49.07706" lon="1.26088">
        <ele>140</ele>
        <time>2021-05-16T06:42:10Z</time>
      </trkpt>
      <trkpt lat="49.07705" lon="1.26103">
        <ele>140.39999389648</ele>
        <time>2021-05-16T06:42:12Z</time>
      </trkpt>
      <trkpt lat="49.07704" lon="1.26147">
        <ele>140.80000305176</ele>
        <time>2021-05-16T06:42:18Z</time>
      </trkpt>
      <trkpt lat="49.07702" lon="1.26161">
        <ele>141</ele>
        <time>2021-05-16T06:42:20Z</time>
      </trkpt>
      <trkpt lat="49.07701" lon="1.26175">
        <ele>141</ele>
        <time>2021-05-16T06:42:22Z</time>
      </trkpt>
      <trkpt lat="49.077" lon="1.2621">
        <ele>141.19999694824</ele>
        <time>2021-05-16T06:42:27Z</time>
      </trkpt>
      <trkpt lat="49.07703" lon="1.26263">
        <ele>141.39999389648</ele>
        <time>2021-05-16T06:42:34Z</time>
      </trkpt>
      <trkpt lat="49.0771" lon="1.26332">
        <ele>141.19999694824</ele>
        <time>2021-05-16T06:42:43Z</time>
      </trkpt>
      <trkpt lat="49.07714" lon="1.26377">
        <ele>140.80000305176</ele>
        <time>2021-05-16T06:42:49Z</time>
      </trkpt>
      <trkpt lat="49.07714" lon="1.26385">
        <ele>140.80000305176</ele>
        <time>2021-05-16T06:42:50Z</time>
      </trkpt>
      <trkpt lat="49.0771" lon="1.26407">
        <ele>140.80000305176</ele>
        <time>2021-05-16T06:42:53Z</time>
      </trkpt>
      <trkpt lat="49.07697" lon="1.26416">
        <ele>140.60000610352</ele>
        <time>2021-05-16T06:42:56Z</time>
      </trkpt>
      <trkpt lat="49.07686" lon="1.26415">
        <ele>140.39999389648</ele>
        <time>2021-05-16T06:42:58Z</time>
      </trkpt>
      <trkpt lat="49.07676" lon="1.26415">
        <ele>140.39999389648</ele>
        <time>2021-05-16T06:43:00Z</time>
      </trkpt>
      <trkpt lat="49.07671" lon="1.26417">
        <ele>140.39999389648</ele>
        <time>2021-05-16T06:43:01Z</time>
      </trkpt>
      <trkpt lat="49.07664" lon="1.26435">
        <ele>140.19999694824</ele>
        <time>2021-05-16T06:43:04Z</time>
      </trkpt>
      <trkpt lat="49.07664" lon="1.26442">
        <ele>140.19999694824</ele>
        <time>2021-05-16T06:43:05Z</time>
      </trkpt>
      <trkpt lat="49.0766" lon="1.26495">
        <ele>140.19999694824</ele>
        <time>2021-05-16T06:43:12Z</time>
      </trkpt>
      <trkpt lat="49.07655" lon="1.26569">
        <ele>140.80000305176</ele>
        <time>2021-05-16T06:43:22Z</time>
      </trkpt>
      <trkpt lat="49.07643" lon="1.26627">
        <ele>140.80000305176</ele>
        <time>2021-05-16T06:43:30Z</time>
      </trkpt>
      <trkpt lat="49.07634" lon="1.26653">
        <ele>140.80000305176</ele>
        <time>2021-05-16T06:43:34Z</time>
      </trkpt>
      <trkpt lat="49.07627" lon="1.26664">
        <ele>140.80000305176</ele>
        <time>2021-05-16T06:43:36Z</time>
      </trkpt>
      <trkpt lat="49.07594" lon="1.26708">
        <ele>140.39999389648</ele>
        <time>2021-05-16T06:43:45Z</time>
      </trkpt>
      <trkpt lat="49.07574" lon="1.26739">
        <ele>140</ele>
        <time>2021-05-16T06:43:51Z</time>
      </trkpt>
      <trkpt lat="49.07562" lon="1.26758">
        <ele>139.80000305176</ele>
        <time>2021-05-16T06:43:55Z</time>
      </trkpt>
      <trkpt lat="49.07553" lon="1.26774">
        <ele>139.60000610352</ele>
        <time>2021-05-16T06:43:58Z</time>
      </trkpt>
      <trkpt lat="49.0755" lon="1.26779">
        <ele>139.60000610352</ele>
        <time>2021-05-16T06:43:59Z</time>
      </trkpt>
      <trkpt lat="49.07539" lon="1.26792">
        <ele>139.60000610352</ele>
        <time>2021-05-16T06:44:02Z</time>
      </trkpt>
      <trkpt lat="49.07511" lon="1.26823">
        <ele>139</ele>
        <time>2021-05-16T06:44:09Z</time>
      </trkpt>
      <trkpt lat="49.07503" lon="1.26831">
        <ele>139</ele>
        <time>2021-05-16T06:44:11Z</time>
      </trkpt>
      <trkpt lat="49.07491" lon="1.26846">
        <ele>139</ele>
        <time>2021-05-16T06:44:14Z</time>
      </trkpt>
      <trkpt lat="49.07488" lon="1.26851">
        <ele>138.80000305176</ele>
        <time>2021-05-16T06:44:15Z</time>
      </trkpt>
      <trkpt lat="49.07474" lon="1.26873">
        <ele>138.80000305176</ele>
        <time>2021-05-16T06:44:19Z</time>
      </trkpt>
      <trkpt lat="49.07454" lon="1.26906">
        <ele>138.80000305176</ele>
        <time>2021-05-16T06:44:24Z</time>
      </trkpt>
      <trkpt lat="49.0745" lon="1.26913">
        <ele>138.80000305176</ele>
        <time>2021-05-16T06:44:25Z</time>
      </trkpt>
      <trkpt lat="49.07441" lon="1.26928">
        <ele>138.39999389648</ele>
        <time>2021-05-16T06:44:28Z</time>
      </trkpt>
      <trkpt lat="49.07426" lon="1.26932">
        <ele>138</ele>
        <time>2021-05-16T06:44:31Z</time>
      </trkpt>
      <trkpt lat="49.07412" lon="1.26935">
        <ele>137.80000305176</ele>
        <time>2021-05-16T06:44:33Z</time>
      </trkpt>
      <trkpt lat="49.07405" lon="1.26936">
        <ele>137.60000610352</ele>
        <time>2021-05-16T06:44:34Z</time>
      </trkpt>
      <trkpt lat="49.07381" lon="1.26941">
        <ele>136.39999389648</ele>
        <time>2021-05-16T06:44:38Z</time>
      </trkpt>
      <trkpt lat="49.07371" lon="1.26944">
        <ele>135.80000305176</ele>
        <time>2021-05-16T06:44:40Z</time>
      </trkpt>
      <trkpt lat="49.07366" lon="1.26945">
        <ele>135.19999694824</ele>
        <time>2021-05-16T06:44:41Z</time>
      </trkpt>
      <trkpt lat="49.07353" lon="1.26949">
        <ele>134</ele>
        <time>2021-05-16T06:44:44Z</time>
      </trkpt>
      <trkpt lat="49.07345" lon="1.26952">
        <ele>133.60000610352</ele>
        <time>2021-05-16T06:44:46Z</time>
      </trkpt>
      <trkpt lat="49.07327" lon="1.26956">
        <ele>133.19999694824</ele>
        <time>2021-05-16T06:44:51Z</time>
      </trkpt>
      <trkpt lat="49.07308" lon="1.26959">
        <ele>133.19999694824</ele>
        <time>2021-05-16T06:44:56Z</time>
      </trkpt>
      <trkpt lat="49.07284" lon="1.26965">
        <ele>134.19999694824</ele>
        <time>2021-05-16T06:45:02Z</time>
      </trkpt>
      <trkpt lat="49.07267" lon="1.26969">
        <ele>135</ele>
        <time>2021-05-16T06:45:06Z</time>
      </trkpt>
      <trkpt lat="49.07255" lon="1.26972">
        <ele>135.39999389648</ele>
        <time>2021-05-16T06:45:09Z</time>
      </trkpt>
      <trkpt lat="49.07237" lon="1.26979">
        <ele>135.60000610352</ele>
        <time>2021-05-16T06:45:14Z</time>
      </trkpt>
      <trkpt lat="49.07223" lon="1.26985">
        <ele>135.80000305176</ele>
        <time>2021-05-16T06:45:18Z</time>
      </trkpt>
      <trkpt lat="49.07207" lon="1.26994">
        <ele>136.19999694824</ele>
        <time>2021-05-16T06:45:22Z</time>
      </trkpt>
      <trkpt lat="49.07198" lon="1.27">
        <ele>136.19999694824</ele>
        <time>2021-05-16T06:45:24Z</time>
      </trkpt>
      <trkpt lat="49.07193" lon="1.27002">
        <ele>136.39999389648</ele>
        <time>2021-05-16T06:45:25Z</time>
      </trkpt>
      <trkpt lat="49.07172" lon="1.27015">
        <ele>136.60000610352</ele>
        <time>2021-05-16T06:45:30Z</time>
      </trkpt>
      <trkpt lat="49.07163" lon="1.27019">
        <ele>136.80000305176</ele>
        <time>2021-05-16T06:45:32Z</time>
      </trkpt>
      <trkpt lat="49.07159" lon="1.2702">
        <ele>136.80000305176</ele>
        <time>2021-05-16T06:45:33Z</time>
      </trkpt>
      <trkpt lat="49.07139" lon="1.27031">
        <ele>137</ele>
        <time>2021-05-16T06:45:38Z</time>
      </trkpt>
      <trkpt lat="49.07129" lon="1.27036">
        <ele>137.19999694824</ele>
        <time>2021-05-16T06:45:41Z</time>
      </trkpt>
      <trkpt lat="49.07121" lon="1.27041">
        <ele>137.19999694824</ele>
        <time>2021-05-16T06:45:44Z</time>
      </trkpt>
      <trkpt lat="49.07103" lon="1.2705">
        <ele>137.60000610352</ele>
        <time>2021-05-16T06:45:50Z</time>
      </trkpt>
      <trkpt lat="49.07088" lon="1.2706">
        <ele>137.60000610352</ele>
        <time>2021-05-16T06:45:56Z</time>
      </trkpt>
      <trkpt lat="49.0707" lon="1.2707">
        <ele>137.80000305176</ele>
        <time>2021-05-16T06:46:01Z</time>
      </trkpt>
      <trkpt lat="49.07052" lon="1.27079">
        <ele>137.80000305176</ele>
        <time>2021-05-16T06:46:07Z</time>
      </trkpt>
      <trkpt lat="49.07026" lon="1.27088">
        <ele>137.60000610352</ele>
        <time>2021-05-16T06:46:14Z</time>
      </trkpt>
      <trkpt lat="49.07006" lon="1.27098">
        <ele>137.39999389648</ele>
        <time>2021-05-16T06:46:19Z</time>
      </trkpt>
      <trkpt lat="49.06988" lon="1.27106">
        <ele>137.39999389648</ele>
        <time>2021-05-16T06:46:24Z</time>
      </trkpt>
      <trkpt lat="49.06966" lon="1.27118">
        <ele>137</ele>
        <time>2021-05-16T06:46:30Z</time>
      </trkpt>
      <trkpt lat="49.06952" lon="1.27134">
        <ele>136.19999694824</ele>
        <time>2021-05-16T06:46:35Z</time>
      </trkpt>
      <trkpt lat="49.06939" lon="1.2715">
        <ele>136</ele>
        <time>2021-05-16T06:46:40Z</time>
      </trkpt>
      <trkpt lat="49.06934" lon="1.27157">
        <ele>136</ele>
        <time>2021-05-16T06:46:42Z</time>
      </trkpt>
      <trkpt lat="49.06927" lon="1.27166">
        <ele>135.80000305176</ele>
        <time>2021-05-16T06:46:45Z</time>
      </trkpt>
      <trkpt lat="49.06915" lon="1.27179">
        <ele>135.60000610352</ele>
        <time>2021-05-16T06:46:50Z</time>
      </trkpt>
      <trkpt lat="49.06903" lon="1.2719">
        <ele>135</ele>
        <time>2021-05-16T06:46:54Z</time>
      </trkpt>
      <trkpt lat="49.06896" lon="1.27195">
        <ele>134.60000610352</ele>
        <time>2021-05-16T06:46:56Z</time>
      </trkpt>
      <trkpt lat="49.0688" lon="1.27209">
        <ele>134.39999389648</ele>
        <time>2021-05-16T06:47:01Z</time>
      </trkpt>
      <trkpt lat="49.06859" lon="1.27227">
        <ele>134.19999694824</ele>
        <time>2021-05-16T06:47:07Z</time>
      </trkpt>
      <trkpt lat="49.0684" lon="1.27239">
        <ele>134.19999694824</ele>
        <time>2021-05-16T06:47:13Z</time>
      </trkpt>
      <trkpt lat="49.06825" lon="1.27241">
        <ele>134.19999694824</ele>
        <time>2021-05-16T06:47:18Z</time>
      </trkpt>
      <trkpt lat="49.06818" lon="1.27235">
        <ele>134.19999694824</ele>
        <time>2021-05-16T06:47:22Z</time>
      </trkpt>
      <trkpt lat="49.06811" lon="1.27228">
        <ele>134</ele>
        <time>2021-05-16T06:47:26Z</time>
      </trkpt>
      <trkpt lat="49.06804" lon="1.27213">
        <ele>134.19999694824</ele>
        <time>2021-05-16T06:47:31Z</time>
      </trkpt>
      <trkpt lat="49.06798" lon="1.27198">
        <ele>134.19999694824</ele>
        <time>2021-05-16T06:47:36Z</time>
      </trkpt>
      <trkpt lat="49.06789" lon="1.27178">
        <ele>134.19999694824</ele>
        <time>2021-05-16T06:47:41Z</time>
      </trkpt>
      <trkpt lat="49.06777" lon="1.27154">
        <ele>134.39999389648</ele>
        <time>2021-05-16T06:47:46Z</time>
      </trkpt>
      <trkpt lat="49.0676" lon="1.27114">
        <ele>134.60000610352</ele>
        <time>2021-05-16T06:47:53Z</time>
      </trkpt>
      <trkpt lat="49.06743" lon="1.27072">
        <ele>134.80000305176</ele>
        <time>2021-05-16T06:48:01Z</time>
      </trkpt>
      <trkpt lat="49.06725" lon="1.27032">
        <ele>134.60000610352</ele>
        <time>2021-05-16T06:48:08Z</time>
      </trkpt>
      <trkpt lat="49.06703" lon="1.26985">
        <ele>134.39999389648</ele>
        <time>2021-05-16T06:48:16Z</time>
      </trkpt>
      <trkpt lat="49.06686" lon="1.26949">
        <ele>134</ele>
        <time>2021-05-16T06:48:22Z</time>
      </trkpt>
      <trkpt lat="49.0668" lon="1.26937">
        <ele>133.80000305176</ele>
        <time>2021-05-16T06:48:24Z</time>
      </trkpt>
      <trkpt lat="49.06653" lon="1.2688">
        <ele>133.39999389648</ele>
        <time>2021-05-16T06:48:33Z</time>
      </trkpt>
      <trkpt lat="49.06636" lon="1.26846">
        <ele>133</ele>
        <time>2021-05-16T06:48:38Z</time>
      </trkpt>
      <trkpt lat="49.0663" lon="1.26831">
        <ele>132.60000610352</ele>
        <time>2021-05-16T06:48:40Z</time>
      </trkpt>
      <trkpt lat="49.06624" lon="1.26817">
        <ele>131.80000305176</ele>
        <time>2021-05-16T06:48:43Z</time>
      </trkpt>
      <trkpt lat="49.06615" lon="1.26815">
        <ele>130.60000610352</ele>
        <time>2021-05-16T06:48:47Z</time>
      </trkpt>
      <trkpt lat="49.0659" lon="1.26824">
        <ele>129.80000305176</ele>
        <time>2021-05-16T06:48:54Z</time>
      </trkpt>
      <trkpt lat="49.06576" lon="1.2683">
        <ele>129.60000610352</ele>
        <time>2021-05-16T06:48:57Z</time>
      </trkpt>
      <trkpt lat="49.06552" lon="1.2684">
        <ele>129.19999694824</ele>
        <time>2021-05-16T06:49:02Z</time>
      </trkpt>
      <trkpt lat="49.06508" lon="1.26858">
        <ele>128.80000305176</ele>
        <time>2021-05-16T06:49:11Z</time>
      </trkpt>
      <trkpt lat="49.06503" lon="1.2686">
        <ele>128.80000305176</ele>
        <time>2021-05-16T06:49:12Z</time>
      </trkpt>
      <trkpt lat="49.06485" lon="1.26867">
        <ele>128.80000305176</ele>
        <time>2021-05-16T06:49:16Z</time>
      </trkpt>
      <trkpt lat="49.06451" lon="1.26878">
        <ele>128.80000305176</ele>
        <time>2021-05-16T06:49:24Z</time>
      </trkpt>
      <trkpt lat="49.06414" lon="1.26892">
        <ele>128.80000305176</ele>
        <time>2021-05-16T06:49:32Z</time>
      </trkpt>
      <trkpt lat="49.06382" lon="1.26904">
        <ele>129.60000610352</ele>
        <time>2021-05-16T06:49:39Z</time>
      </trkpt>
      <trkpt lat="49.06339" lon="1.26919">
        <ele>130</ele>
        <time>2021-05-16T06:49:49Z</time>
      </trkpt>
      <trkpt lat="49.06306" lon="1.26932">
        <ele>130</ele>
        <time>2021-05-16T06:49:57Z</time>
      </trkpt>
      <trkpt lat="49.06299" lon="1.2693">
        <ele>130.19999694824</ele>
        <time>2021-05-16T06:49:59Z</time>
      </trkpt>
      <trkpt lat="49.06296" lon="1.26926">
        <ele>130.19999694824</ele>
        <time>2021-05-16T06:50:00Z</time>
      </trkpt>
      <trkpt lat="49.06288" lon="1.269">
        <ele>130.39999389648</ele>
        <time>2021-05-16T06:50:05Z</time>
      </trkpt>
      <trkpt lat="49.06283" lon="1.26878">
        <ele>130.60000610352</ele>
        <time>2021-05-16T06:50:09Z</time>
      </trkpt>
      <trkpt lat="49.06278" lon="1.26854">
        <ele>131</ele>
        <time>2021-05-16T06:50:13Z</time>
      </trkpt>
      <trkpt lat="49.06267" lon="1.26807">
        <ele>131.39999389648</ele>
        <time>2021-05-16T06:50:21Z</time>
      </trkpt>
      <trkpt lat="49.06261" lon="1.26775">
        <ele>131.60000610352</ele>
        <time>2021-05-16T06:50:26Z</time>
      </trkpt>
      <trkpt lat="49.0626" lon="1.26769">
        <ele>131.60000610352</ele>
        <time>2021-05-16T06:50:27Z</time>
      </trkpt>
      <trkpt lat="49.06245" lon="1.26703">
        <ele>132.39999389648</ele>
        <time>2021-05-16T06:50:37Z</time>
      </trkpt>
      <trkpt lat="49.06231" lon="1.2664">
        <ele>132.80000305176</ele>
        <time>2021-05-16T06:50:47Z</time>
      </trkpt>
      <trkpt lat="49.06228" lon="1.26627">
        <ele>132.80000305176</ele>
        <time>2021-05-16T06:50:49Z</time>
      </trkpt>
      <trkpt lat="49.06217" lon="1.26576">
        <ele>133.19999694824</ele>
        <time>2021-05-16T06:50:57Z</time>
      </trkpt>
      <trkpt lat="49.06215" lon="1.26563">
        <ele>133.19999694824</ele>
        <time>2021-05-16T06:50:59Z</time>
      </trkpt>
      <trkpt lat="49.06209" lon="1.26537">
        <ele>133.19999694824</ele>
        <time>2021-05-16T06:51:03Z</time>
      </trkpt>
      <trkpt lat="49.06188" lon="1.26464">
        <ele>133.80000305176</ele>
        <time>2021-05-16T06:51:14Z</time>
      </trkpt>
      <trkpt lat="49.06177" lon="1.26411">
        <ele>133.80000305176</ele>
        <time>2021-05-16T06:51:22Z</time>
      </trkpt>
      <trkpt lat="49.06174" lon="1.26398">
        <ele>134</ele>
        <time>2021-05-16T06:51:24Z</time>
      </trkpt>
      <trkpt lat="49.06168" lon="1.26354">
        <ele>134</ele>
        <time>2021-05-16T06:51:31Z</time>
      </trkpt>
      <trkpt lat="49.06167" lon="1.26318">
        <ele>134.19999694824</ele>
        <time>2021-05-16T06:51:38Z</time>
      </trkpt>
      <trkpt lat="49.06166" lon="1.26314">
        <ele>134.19999694824</ele>
        <time>2021-05-16T06:51:39Z</time>
      </trkpt>
      <trkpt lat="49.06163" lon="1.2631">
        <ele>134.39999389648</ele>
        <time>2021-05-16T06:51:41Z</time>
      </trkpt>
      <trkpt lat="49.0616" lon="1.2631">
        <ele>134.39999389648</ele>
        <time>2021-05-16T06:51:43Z</time>
      </trkpt>
      <trkpt lat="49.06152" lon="1.26313">
        <ele>134.60000610352</ele>
        <time>2021-05-16T06:51:47Z</time>
      </trkpt>
      <trkpt lat="49.06139" lon="1.26319">
        <ele>134.60000610352</ele>
        <time>2021-05-16T06:51:54Z</time>
      </trkpt>
      <trkpt lat="49.06123" lon="1.26326">
        <ele>134.60000610352</ele>
        <time>2021-05-16T06:52:02Z</time>
      </trkpt>
      <trkpt lat="49.06106" lon="1.26333">
        <ele>134.80000305176</ele>
        <time>2021-05-16T06:52:07Z</time>
      </trkpt>
      <trkpt lat="49.06079" lon="1.26345">
        <ele>135</ele>
        <time>2021-05-16T06:52:15Z</time>
      </trkpt>
      <trkpt lat="49.06054" lon="1.2636">
        <ele>135.19999694824</ele>
        <time>2021-05-16T06:52:22Z</time>
      </trkpt>
      <trkpt lat="49.06048" lon="1.26365">
        <ele>135.19999694824</ele>
        <time>2021-05-16T06:52:24Z</time>
      </trkpt>
      <trkpt lat="49.0602" lon="1.26389">
        <ele>135.19999694824</ele>
        <time>2021-05-16T06:52:32Z</time>
      </trkpt>
      <trkpt lat="49.05999" lon="1.26408">
        <ele>135.39999389648</ele>
        <time>2021-05-16T06:52:38Z</time>
      </trkpt>
      <trkpt lat="49.05983" lon="1.26418">
        <ele>135.39999389648</ele>
        <time>2021-05-16T06:52:43Z</time>
      </trkpt>
      <trkpt lat="49.0598" lon="1.26406">
        <ele>135.39999389648</ele>
        <time>2021-05-16T06:52:46Z</time>
      </trkpt>
      <trkpt lat="49.0598" lon="1.264">
        <ele>135.39999389648</ele>
        <time>2021-05-16T06:52:47Z</time>
      </trkpt>
      <trkpt lat="49.05974" lon="1.26361">
        <ele>135.39999389648</ele>
        <time>2021-05-16T06:52:53Z</time>
      </trkpt>
      <trkpt lat="49.05968" lon="1.2633">
        <ele>135</ele>
        <time>2021-05-16T06:52:58Z</time>
      </trkpt>
      <trkpt lat="49.05957" lon="1.2629">
        <ele>134.80000305176</ele>
        <time>2021-05-16T06:53:04Z</time>
      </trkpt>
      <trkpt lat="49.05936" lon="1.26234">
        <ele>134.60000610352</ele>
        <time>2021-05-16T06:53:12Z</time>
      </trkpt>
      <trkpt lat="49.05921" lon="1.26221">
        <ele>134.60000610352</ele>
        <time>2021-05-16T06:53:16Z</time>
      </trkpt>
      <trkpt lat="49.05916" lon="1.26229">
        <ele>134.80000305176</ele>
        <time>2021-05-16T06:53:19Z</time>
      </trkpt>
      <trkpt lat="49.05913" lon="1.26234">
        <ele>134.80000305176</ele>
        <time>2021-05-16T06:53:21Z</time>
      </trkpt>
      <trkpt lat="49.05905" lon="1.26243">
        <ele>134.80000305176</ele>
        <time>2021-05-16T06:53:24Z</time>
      </trkpt>
      <trkpt lat="49.05894" lon="1.26256">
        <ele>134.60000610352</ele>
        <time>2021-05-16T06:53:27Z</time>
      </trkpt>
      <trkpt lat="49.05886" lon="1.26264">
        <ele>134.60000610352</ele>
        <time>2021-05-16T06:53:29Z</time>
      </trkpt>
      <trkpt lat="49.05864" lon="1.26291">
        <ele>134.39999389648</ele>
        <time>2021-05-16T06:53:35Z</time>
      </trkpt>
      <trkpt lat="49.05857" lon="1.263">
        <ele>134.39999389648</ele>
        <time>2021-05-16T06:53:37Z</time>
      </trkpt>
      <trkpt lat="49.05855" lon="1.26305">
        <ele>134.39999389648</ele>
        <time>2021-05-16T06:53:38Z</time>
      </trkpt>
      <trkpt lat="49.05851" lon="1.26323">
        <ele>134</ele>
        <time>2021-05-16T06:53:41Z</time>
      </trkpt>
      <trkpt lat="49.05849" lon="1.26352">
        <ele>133.60000610352</ele>
        <time>2021-05-16T06:53:46Z</time>
      </trkpt>
      <trkpt lat="49.05848" lon="1.26358">
        <ele>133.60000610352</ele>
        <time>2021-05-16T06:53:47Z</time>
      </trkpt>
      <trkpt lat="49.05845" lon="1.26381">
        <ele>133.39999389648</ele>
        <time>2021-05-16T06:53:51Z</time>
      </trkpt>
      <trkpt lat="49.0584" lon="1.26406">
        <ele>133</ele>
        <time>2021-05-16T06:53:55Z</time>
      </trkpt>
      <trkpt lat="49.0583" lon="1.26447">
        <ele>132.80000305176</ele>
        <time>2021-05-16T06:54:01Z</time>
      </trkpt>
      <trkpt lat="49.05825" lon="1.26468">
        <ele>132.80000305176</ele>
        <time>2021-05-16T06:54:04Z</time>
      </trkpt>
      <trkpt lat="49.05818" lon="1.26486">
        <ele>132.80000305176</ele>
        <time>2021-05-16T06:54:07Z</time>
      </trkpt>
      <trkpt lat="49.05806" lon="1.26507">
        <ele>132.80000305176</ele>
        <time>2021-05-16T06:54:12Z</time>
      </trkpt>
      <trkpt lat="49.05796" lon="1.26528">
        <ele>132.80000305176</ele>
        <time>2021-05-16T06:54:17Z</time>
      </trkpt>
      <trkpt lat="49.05784" lon="1.26553">
        <ele>132.80000305176</ele>
        <time>2021-05-16T06:54:23Z</time>
      </trkpt>
      <trkpt lat="49.05776" lon="1.2657">
        <ele>133</ele>
        <time>2021-05-16T06:54:27Z</time>
      </trkpt>
      <trkpt lat="49.05769" lon="1.26593">
        <ele>132.80000305176</ele>
        <time>2021-05-16T06:54:32Z</time>
      </trkpt>
      <trkpt lat="49.05751" lon="1.26634">
        <ele>132.60000610352</ele>
        <time>2021-05-16T06:54:38Z</time>
      </trkpt>
      <trkpt lat="49.05736" lon="1.26663">
        <ele>132.39999389648</ele>
        <time>2021-05-16T06:54:41Z</time>
      </trkpt>
      <trkpt lat="49.05727" lon="1.26683">
        <ele>132.19999694824</ele>
        <time>2021-05-16T06:54:43Z</time>
      </trkpt>
      <trkpt lat="49.05718" lon="1.26704">
        <ele>132</ele>
        <time>2021-05-16T06:54:46Z</time>
      </trkpt>
      <trkpt lat="49.05715" lon="1.26709">
        <ele>132</ele>
        <time>2021-05-16T06:54:48Z</time>
      </trkpt>
      <trkpt lat="49.05712" lon="1.2671">
        <ele>132</ele>
        <time>2021-05-16T06:54:49Z</time>
      </trkpt>
      <trkpt lat="49.05703" lon="1.26712">
        <ele>131.39999389648</ele>
        <time>2021-05-16T06:54:52Z</time>
      </trkpt>
      <trkpt lat="49.05697" lon="1.26714">
        <ele>131.19999694824</ele>
        <time>2021-05-16T06:54:54Z</time>
      </trkpt>
      <trkpt lat="49.05694" lon="1.26716">
        <ele>131</ele>
        <time>2021-05-16T06:54:55Z</time>
      </trkpt>
      <trkpt lat="49.05687" lon="1.26726">
        <ele>131</ele>
        <time>2021-05-16T06:54:58Z</time>
      </trkpt>
      <trkpt lat="49.05683" lon="1.26736">
        <ele>130.80000305176</ele>
        <time>2021-05-16T06:55:00Z</time>
      </trkpt>
      <trkpt lat="49.05677" lon="1.26751">
        <ele>130.80000305176</ele>
        <time>2021-05-16T06:55:02Z</time>
      </trkpt>
      <trkpt lat="49.05664" lon="1.2678">
        <ele>130.39999389648</ele>
        <time>2021-05-16T06:55:06Z</time>
      </trkpt>
      <trkpt lat="49.05652" lon="1.26807">
        <ele>130.39999389648</ele>
        <time>2021-05-16T06:55:09Z</time>
      </trkpt>
      <trkpt lat="49.05647" lon="1.26815">
        <ele>130.39999389648</ele>
        <time>2021-05-16T06:55:10Z</time>
      </trkpt>
      <trkpt lat="49.05637" lon="1.26829">
        <ele>130.39999389648</ele>
        <time>2021-05-16T06:55:12Z</time>
      </trkpt>
      <trkpt lat="49.05618" lon="1.26851">
        <ele>130</ele>
        <time>2021-05-16T06:55:16Z</time>
      </trkpt>
      <trkpt lat="49.05595" lon="1.26865">
        <ele>129.80000305176</ele>
        <time>2021-05-16T06:55:19Z</time>
      </trkpt>
      <trkpt lat="49.05578" lon="1.26869">
        <ele>129.60000610352</ele>
        <time>2021-05-16T06:55:22Z</time>
      </trkpt>
      <trkpt lat="49.05563" lon="1.26876">
        <ele>129</ele>
        <time>2021-05-16T06:55:31Z</time>
      </trkpt>
      <trkpt lat="49.05559" lon="1.2688">
        <ele>129</ele>
        <time>2021-05-16T06:55:35Z</time>
      </trkpt>
      <trkpt lat="49.05558" lon="1.26883">
        <ele>124</ele>
        <time>2021-05-16T06:55:54Z</time>
      </trkpt>
      <trkpt lat="49.05557" lon="1.26898">
        <ele>123.59999847412</ele>
        <time>2021-05-16T06:55:59Z</time>
      </trkpt>
      <trkpt lat="49.05557" lon="1.26907">
        <ele>123.19999694824</ele>
        <time>2021-05-16T06:56:01Z</time>
      </trkpt>
      <trkpt lat="49.05555" lon="1.26918">
        <ele>123</ele>
        <time>2021-05-16T06:56:03Z</time>
      </trkpt>
      <trkpt lat="49.05554" lon="1.26925">
        <ele>122.80000305176</ele>
        <time>2021-05-16T06:56:04Z</time>
      </trkpt>
      <trkpt lat="49.05555" lon="1.26952">
        <ele>122.19999694824</ele>
        <time>2021-05-16T06:56:08Z</time>
      </trkpt>
      <trkpt lat="49.05558" lon="1.26962">
        <ele>122</ele>
        <time>2021-05-16T06:56:10Z</time>
      </trkpt>
      <trkpt lat="49.0556" lon="1.26965">
        <ele>122.19999694824</ele>
        <time>2021-05-16T06:56:11Z</time>
      </trkpt>
      <trkpt lat="49.05562" lon="1.26968">
        <ele>122.19999694824</ele>
        <time>2021-05-16T06:56:12Z</time>
      </trkpt>
      <trkpt lat="49.05569" lon="1.26976">
        <ele>122.19999694824</ele>
        <time>2021-05-16T06:56:17Z</time>
      </trkpt>
      <trkpt lat="49.05575" lon="1.26989">
        <ele>122.19999694824</ele>
        <time>2021-05-16T06:56:23Z</time>
      </trkpt>
      <trkpt lat="49.05583" lon="1.27">
        <ele>122.40000152588</ele>
        <time>2021-05-16T06:56:29Z</time>
      </trkpt>
      <trkpt lat="49.05587" lon="1.27006">
        <ele>122.80000305176</ele>
        <time>2021-05-16T06:56:32Z</time>
      </trkpt>
      <trkpt lat="49.05589" lon="1.27008">
        <ele>122.80000305176</ele>
        <time>2021-05-16T06:56:33Z</time>
      </trkpt>
      <trkpt lat="49.05592" lon="1.27011">
        <ele>123</ele>
        <time>2021-05-16T06:56:35Z</time>
      </trkpt>
      <trkpt lat="49.056" lon="1.27021">
        <ele>123.19999694824</ele>
        <time>2021-05-16T06:56:41Z</time>
      </trkpt>
      <trkpt lat="49.05601" lon="1.27023">
        <ele>123.19999694824</ele>
        <time>2021-05-16T06:56:42Z</time>
      </trkpt>
      <trkpt lat="49.05605" lon="1.27034">
        <ele>123.40000152588</ele>
        <time>2021-05-16T06:56:47Z</time>
      </trkpt>
      <trkpt lat="49.05607" lon="1.27038">
        <ele>123.40000152588</ele>
        <time>2021-05-16T06:56:49Z</time>
      </trkpt>
      <trkpt lat="49.0561" lon="1.2704">
        <ele>123.59999847412</ele>
        <time>2021-05-16T06:56:52Z</time>
      </trkpt>
      <trkpt lat="49.05611" lon="1.27046">
        <ele>123.80000305176</ele>
        <time>2021-05-16T06:57:05Z</time>
      </trkpt>
      <trkpt lat="49.0561" lon="1.27048">
        <ele>123.80000305176</ele>
        <time>2021-05-16T06:57:06Z</time>
      </trkpt>
      <trkpt lat="49.05607" lon="1.27057">
        <ele>123.59999847412</ele>
        <time>2021-05-16T06:57:10Z</time>
      </trkpt>
      <trkpt lat="49.05599" lon="1.2707">
        <ele>123.40000152588</ele>
        <time>2021-05-16T06:57:15Z</time>
      </trkpt>
      <trkpt lat="49.05596" lon="1.27079">
        <ele>123.19999694824</ele>
        <time>2021-05-16T06:57:17Z</time>
      </trkpt>
      <trkpt lat="49.05592" lon="1.27096">
        <ele>123</ele>
        <time>2021-05-16T06:57:21Z</time>
      </trkpt>
      <trkpt lat="49.05588" lon="1.27116">
        <ele>123.19999694824</ele>
        <time>2021-05-16T06:57:26Z</time>
      </trkpt>
      <trkpt lat="49.05589" lon="1.27133">
        <ele>123.19999694824</ele>
        <time>2021-05-16T06:57:30Z</time>
      </trkpt>
      <trkpt lat="49.05591" lon="1.27155">
        <ele>123.19999694824</ele>
        <time>2021-05-16T06:57:37Z</time>
      </trkpt>
      <trkpt lat="49.05595" lon="1.27175">
        <ele>123.40000152588</ele>
        <time>2021-05-16T06:57:44Z</time>
      </trkpt>
      <trkpt lat="49.05601" lon="1.2719">
        <ele>123.80000305176</ele>
        <time>2021-05-16T06:57:49Z</time>
      </trkpt>
      <trkpt lat="49.05601" lon="1.27195">
        <ele>124</ele>
        <time>2021-05-16T06:57:52Z</time>
      </trkpt>
      <trkpt lat="49.056" lon="1.27199">
        <ele>124</ele>
        <time>2021-05-16T06:57:54Z</time>
      </trkpt>
      <trkpt lat="49.05594" lon="1.27217">
        <ele>124.19999694824</ele>
        <time>2021-05-16T06:58:01Z</time>
      </trkpt>
      <trkpt lat="49.05591" lon="1.27223">
        <ele>124.19999694824</ele>
        <time>2021-05-16T06:58:04Z</time>
      </trkpt>
      <trkpt lat="49.0559" lon="1.27225">
        <ele>124.19999694824</ele>
        <time>2021-05-16T06:58:05Z</time>
      </trkpt>
      <trkpt lat="49.05582" lon="1.27237">
        <ele>124.40000152588</ele>
        <time>2021-05-16T06:58:11Z</time>
      </trkpt>
      <trkpt lat="49.05576" lon="1.27246">
        <ele>124.80000305176</ele>
        <time>2021-05-16T06:58:16Z</time>
      </trkpt>
      <trkpt lat="49.05574" lon="1.27251">
        <ele>125</ele>
        <time>2021-05-16T06:58:20Z</time>
      </trkpt>
      <trkpt lat="49.05572" lon="1.27256">
        <ele>125.19999694824</ele>
        <time>2021-05-16T06:58:23Z</time>
      </trkpt>
      <trkpt lat="49.05564" lon="1.2727">
        <ele>125.40000152588</ele>
        <time>2021-05-16T06:58:29Z</time>
      </trkpt>
      <trkpt lat="49.05557" lon="1.27284">
        <ele>125.40000152588</ele>
        <time>2021-05-16T06:58:34Z</time>
      </trkpt>
      <trkpt lat="49.05549" lon="1.27301">
        <ele>125.19999694824</ele>
        <time>2021-05-16T06:58:40Z</time>
      </trkpt>
      <trkpt lat="49.05538" lon="1.2732">
        <ele>125.19999694824</ele>
        <time>2021-05-16T06:58:46Z</time>
      </trkpt>
      <trkpt lat="49.05529" lon="1.27335">
        <ele>125.19999694824</ele>
        <time>2021-05-16T06:58:51Z</time>
      </trkpt>
      <trkpt lat="49.05521" lon="1.27347">
        <ele>125.59999847412</ele>
        <time>2021-05-16T06:58:56Z</time>
      </trkpt>
      <trkpt lat="49.05511" lon="1.27364">
        <ele>126</ele>
        <time>2021-05-16T06:59:02Z</time>
      </trkpt>
      <trkpt lat="49.05506" lon="1.27374">
        <ele>126.19999694824</ele>
        <time>2021-05-16T06:59:05Z</time>
      </trkpt>
      <trkpt lat="49.05502" lon="1.27384">
        <ele>126.40000152588</ele>
        <time>2021-05-16T06:59:08Z</time>
      </trkpt>
      <trkpt lat="49.05498" lon="1.274">
        <ele>126.80000305176</ele>
        <time>2021-05-16T06:59:13Z</time>
      </trkpt>
      <trkpt lat="49.05494" lon="1.27415">
        <ele>127</ele>
        <time>2021-05-16T06:59:17Z</time>
      </trkpt>
      <trkpt lat="49.05493" lon="1.27418">
        <ele>127.19999694824</ele>
        <time>2021-05-16T06:59:18Z</time>
      </trkpt>
      <trkpt lat="49.05489" lon="1.27423">
        <ele>127.40000152588</ele>
        <time>2021-05-16T06:59:20Z</time>
      </trkpt>
      <trkpt lat="49.05488" lon="1.27424">
        <ele>127.40000152588</ele>
        <time>2021-05-16T06:59:21Z</time>
      </trkpt>
      <trkpt lat="49.05485" lon="1.27423">
        <ele>127.59999847412</ele>
        <time>2021-05-16T06:59:24Z</time>
      </trkpt>
      <trkpt lat="49.05482" lon="1.27421">
        <ele>127.80000305176</ele>
        <time>2021-05-16T06:59:26Z</time>
      </trkpt>
      <trkpt lat="49.05481" lon="1.2742">
        <ele>128</ele>
        <time>2021-05-16T06:59:28Z</time>
      </trkpt>
      <trkpt lat="49.05477" lon="1.27418">
        <ele>128.19999694824</ele>
        <time>2021-05-16T06:59:31Z</time>
      </trkpt>
      <trkpt lat="49.05475" lon="1.27418">
        <ele>128.19999694824</ele>
        <time>2021-05-16T06:59:32Z</time>
      </trkpt>
      <trkpt lat="49.05468" lon="1.27412">
        <ele>128.19999694824</ele>
        <time>2021-05-16T06:59:38Z</time>
      </trkpt>
      <trkpt lat="49.05464" lon="1.27401">
        <ele>128.19999694824</ele>
        <time>2021-05-16T06:59:42Z</time>
      </trkpt>
      <trkpt lat="49.05457" lon="1.2739">
        <ele>127.80000305176</ele>
        <time>2021-05-16T06:59:47Z</time>
      </trkpt>
      <trkpt lat="49.0545" lon="1.27376">
        <ele>127.40000152588</ele>
        <time>2021-05-16T06:59:53Z</time>
      </trkpt>
      <trkpt lat="49.05443" lon="1.2737">
        <ele>127.19999694824</ele>
        <time>2021-05-16T06:59:58Z</time>
      </trkpt>
      <trkpt lat="49.05434" lon="1.2737">
        <ele>127.19999694824</ele>
        <time>2021-05-16T07:00:02Z</time>
      </trkpt>
      <trkpt lat="49.05418" lon="1.27367">
        <ele>127.40000152588</ele>
        <time>2021-05-16T07:00:08Z</time>
      </trkpt>
      <trkpt lat="49.05406" lon="1.27362">
        <ele>127.40000152588</ele>
        <time>2021-05-16T07:00:13Z</time>
      </trkpt>
      <trkpt lat="49.05393" lon="1.27354">
        <ele>127.59999847412</ele>
        <time>2021-05-16T07:00:18Z</time>
      </trkpt>
      <trkpt lat="49.05379" lon="1.27346">
        <ele>127.59999847412</ele>
        <time>2021-05-16T07:00:24Z</time>
      </trkpt>
      <trkpt lat="49.05376" lon="1.27346">
        <ele>127.59999847412</ele>
        <time>2021-05-16T07:00:27Z</time>
      </trkpt>
      <trkpt lat="49.05372" lon="1.27342">
        <ele>127.19999694824</ele>
        <time>2021-05-16T07:00:43Z</time>
      </trkpt>
      <trkpt lat="49.0537" lon="1.27341">
        <ele>127</ele>
        <time>2021-05-16T07:00:44Z</time>
      </trkpt>
      <trkpt lat="49.05358" lon="1.27337">
        <ele>126.59999847412</ele>
        <time>2021-05-16T07:00:50Z</time>
      </trkpt>
      <trkpt lat="49.05353" lon="1.27336">
        <ele>126.40000152588</ele>
        <time>2021-05-16T07:00:52Z</time>
      </trkpt>
      <trkpt lat="49.05345" lon="1.27337">
        <ele>125.80000305176</ele>
        <time>2021-05-16T07:00:56Z</time>
      </trkpt>
      <trkpt lat="49.05336" lon="1.2734">
        <ele>125.80000305176</ele>
        <time>2021-05-16T07:01:01Z</time>
      </trkpt>
      <trkpt lat="49.05332" lon="1.27341">
        <ele>125.59999847412</ele>
        <time>2021-05-16T07:01:03Z</time>
      </trkpt>
      <trkpt lat="49.05324" lon="1.27347">
        <ele>125.59999847412</ele>
        <time>2021-05-16T07:01:07Z</time>
      </trkpt>
      <trkpt lat="49.05311" lon="1.27357">
        <ele>125.80000305176</ele>
        <time>2021-05-16T07:01:13Z</time>
      </trkpt>
      <trkpt lat="49.05301" lon="1.27367">
        <ele>126</ele>
        <time>2021-05-16T07:01:18Z</time>
      </trkpt>
      <trkpt lat="49.05293" lon="1.27374">
        <ele>126</ele>
        <time>2021-05-16T07:01:23Z</time>
      </trkpt>
      <trkpt lat="49.05283" lon="1.27387">
        <ele>126</ele>
        <time>2021-05-16T07:01:28Z</time>
      </trkpt>
      <trkpt lat="49.05272" lon="1.27404">
        <ele>126</ele>
        <time>2021-05-16T07:01:31Z</time>
      </trkpt>
      <trkpt lat="49.05268" lon="1.27408">
        <ele>126</ele>
        <time>2021-05-16T07:01:32Z</time>
      </trkpt>
      <trkpt lat="49.05255" lon="1.27412">
        <ele>126</ele>
        <time>2021-05-16T07:01:36Z</time>
      </trkpt>
      <trkpt lat="49.05238" lon="1.27417">
        <ele>126</ele>
        <time>2021-05-16T07:01:41Z</time>
      </trkpt>
      <trkpt lat="49.05221" lon="1.27421">
        <ele>126.19999694824</ele>
        <time>2021-05-16T07:01:48Z</time>
      </trkpt>
      <trkpt lat="49.05209" lon="1.27428">
        <ele>126.59999847412</ele>
        <time>2021-05-16T07:01:52Z</time>
      </trkpt>
      <trkpt lat="49.05193" lon="1.27443">
        <ele>126.80000305176</ele>
        <time>2021-05-16T07:01:58Z</time>
      </trkpt>
      <trkpt lat="49.05176" lon="1.27462">
        <ele>127</ele>
        <time>2021-05-16T07:02:03Z</time>
      </trkpt>
      <trkpt lat="49.05163" lon="1.27477">
        <ele>127</ele>
        <time>2021-05-16T07:02:07Z</time>
      </trkpt>
      <trkpt lat="49.0516" lon="1.2748">
        <ele>127</ele>
        <time>2021-05-16T07:02:08Z</time>
      </trkpt>
      <trkpt lat="49.05155" lon="1.27491">
        <ele>127</ele>
        <time>2021-05-16T07:02:11Z</time>
      </trkpt>
      <trkpt lat="49.05157" lon="1.27502">
        <ele>127.19999694824</ele>
        <time>2021-05-16T07:02:15Z</time>
      </trkpt>
      <trkpt lat="49.05159" lon="1.27512">
        <ele>127.19999694824</ele>
        <time>2021-05-16T07:02:19Z</time>
      </trkpt>
      <trkpt lat="49.0516" lon="1.27513">
        <ele>127.19999694824</ele>
        <time>2021-05-16T07:02:20Z</time>
      </trkpt>
      <trkpt lat="49.05165" lon="1.27524">
        <ele>127.59999847412</ele>
        <time>2021-05-16T07:02:25Z</time>
      </trkpt>
      <trkpt lat="49.05173" lon="1.27535">
        <ele>127.80000305176</ele>
        <time>2021-05-16T07:02:31Z</time>
      </trkpt>
      <trkpt lat="49.05184" lon="1.27549">
        <ele>127.80000305176</ele>
        <time>2021-05-16T07:02:38Z</time>
      </trkpt>
      <trkpt lat="49.05197" lon="1.27565">
        <ele>127.80000305176</ele>
        <time>2021-05-16T07:02:44Z</time>
      </trkpt>
      <trkpt lat="49.0521" lon="1.27578">
        <ele>127.80000305176</ele>
        <time>2021-05-16T07:02:49Z</time>
      </trkpt>
      <trkpt lat="49.05228" lon="1.27598">
        <ele>127.80000305176</ele>
        <time>2021-05-16T07:02:56Z</time>
      </trkpt>
      <trkpt lat="49.05235" lon="1.27606">
        <ele>127.80000305176</ele>
        <time>2021-05-16T07:02:59Z</time>
      </trkpt>
      <trkpt lat="49.05236" lon="1.27612">
        <ele>127.80000305176</ele>
        <time>2021-05-16T07:03:01Z</time>
      </trkpt>
      <trkpt lat="49.05235" lon="1.27621">
        <ele>127.80000305176</ele>
        <time>2021-05-16T07:03:05Z</time>
      </trkpt>
      <trkpt lat="49.05236" lon="1.27623">
        <ele>127.80000305176</ele>
        <time>2021-05-16T07:03:06Z</time>
      </trkpt>
      <trkpt lat="49.05235" lon="1.27631">
        <ele>127.80000305176</ele>
        <time>2021-05-16T07:03:11Z</time>
      </trkpt>
      <trkpt lat="49.05234" lon="1.27637">
        <ele>127.80000305176</ele>
        <time>2021-05-16T07:03:14Z</time>
      </trkpt>
      <trkpt lat="49.05231" lon="1.27645">
        <ele>127.80000305176</ele>
        <time>2021-05-16T07:03:18Z</time>
      </trkpt>
      <trkpt lat="49.05228" lon="1.2765">
        <ele>127.80000305176</ele>
        <time>2021-05-16T07:03:21Z</time>
      </trkpt>
      <trkpt lat="49.05226" lon="1.27653">
        <ele>127.59999847412</ele>
        <time>2021-05-16T07:03:23Z</time>
      </trkpt>
      <trkpt lat="49.05217" lon="1.27667">
        <ele>127.59999847412</ele>
        <time>2021-05-16T07:03:29Z</time>
      </trkpt>
      <trkpt lat="49.05207" lon="1.27679">
        <ele>127.59999847412</ele>
        <time>2021-05-16T07:03:36Z</time>
      </trkpt>
      <trkpt lat="49.05203" lon="1.2769">
        <ele>127.59999847412</ele>
        <time>2021-05-16T07:03:40Z</time>
      </trkpt>
      <trkpt lat="49.05197" lon="1.27715">
        <ele>127.40000152588</ele>
        <time>2021-05-16T07:03:47Z</time>
      </trkpt>
      <trkpt lat="49.05192" lon="1.27738">
        <ele>127.40000152588</ele>
        <time>2021-05-16T07:03:52Z</time>
      </trkpt>
      <trkpt lat="49.05187" lon="1.27754">
        <ele>127.40000152588</ele>
        <time>2021-05-16T07:03:56Z</time>
      </trkpt>
      <trkpt lat="49.05182" lon="1.27786">
        <ele>127.40000152588</ele>
        <time>2021-05-16T07:04:02Z</time>
      </trkpt>
      <trkpt lat="49.05175" lon="1.27818">
        <ele>127.40000152588</ele>
        <time>2021-05-16T07:04:08Z</time>
      </trkpt>
      <trkpt lat="49.0517" lon="1.27839">
        <ele>127.40000152588</ele>
        <time>2021-05-16T07:04:12Z</time>
      </trkpt>
      <trkpt lat="49.05164" lon="1.27871">
        <ele>127.40000152588</ele>
        <time>2021-05-16T07:04:18Z</time>
      </trkpt>
      <trkpt lat="49.05158" lon="1.27904">
        <ele>127.40000152588</ele>
        <time>2021-05-16T07:04:24Z</time>
      </trkpt>
      <trkpt lat="49.05152" lon="1.27933">
        <ele>127.40000152588</ele>
        <time>2021-05-16T07:04:29Z</time>
      </trkpt>
      <trkpt lat="49.05148" lon="1.27965">
        <ele>127.40000152588</ele>
        <time>2021-05-16T07:04:34Z</time>
      </trkpt>
      <trkpt lat="49.05146" lon="1.27972">
        <ele>127.40000152588</ele>
        <time>2021-05-16T07:04:35Z</time>
      </trkpt>
      <trkpt lat="49.0514" lon="1.27996">
        <ele>127.40000152588</ele>
        <time>2021-05-16T07:04:38Z</time>
      </trkpt>
      <trkpt lat="49.05135" lon="1.28026">
        <ele>127.40000152588</ele>
        <time>2021-05-16T07:04:42Z</time>
      </trkpt>
      <trkpt lat="49.05133" lon="1.2804">
        <ele>127.40000152588</ele>
        <time>2021-05-16T07:04:44Z</time>
      </trkpt>
      <trkpt lat="49.05128" lon="1.28068">
        <ele>127.40000152588</ele>
        <time>2021-05-16T07:04:48Z</time>
      </trkpt>
      <trkpt lat="49.05126" lon="1.28095">
        <ele>127.19999694824</ele>
        <time>2021-05-16T07:04:52Z</time>
      </trkpt>
      <trkpt lat="49.05123" lon="1.28123">
        <ele>127.19999694824</ele>
        <time>2021-05-16T07:04:56Z</time>
      </trkpt>
      <trkpt lat="49.05121" lon="1.28136">
        <ele>127.19999694824</ele>
        <time>2021-05-16T07:04:58Z</time>
      </trkpt>
      <trkpt lat="49.05117" lon="1.28169">
        <ele>127</ele>
        <time>2021-05-16T07:05:04Z</time>
      </trkpt>
      <trkpt lat="49.05114" lon="1.28192">
        <ele>127</ele>
        <time>2021-05-16T07:05:09Z</time>
      </trkpt>
      <trkpt lat="49.05113" lon="1.28205">
        <ele>126.80000305176</ele>
        <time>2021-05-16T07:05:13Z</time>
      </trkpt>
      <trkpt lat="49.05113" lon="1.28209">
        <ele>126.80000305176</ele>
        <time>2021-05-16T07:05:14Z</time>
      </trkpt>
      <trkpt lat="49.05111" lon="1.28226">
        <ele>126.59999847412</ele>
        <time>2021-05-16T07:05:18Z</time>
      </trkpt>
      <trkpt lat="49.05109" lon="1.28236">
        <ele>126.40000152588</ele>
        <time>2021-05-16T07:05:21Z</time>
      </trkpt>
      <trkpt lat="49.05106" lon="1.28244">
        <ele>126.40000152588</ele>
        <time>2021-05-16T07:05:23Z</time>
      </trkpt>
      <trkpt lat="49.05106" lon="1.28249">
        <ele>126.40000152588</ele>
        <time>2021-05-16T07:05:24Z</time>
      </trkpt>
      <trkpt lat="49.05102" lon="1.28267">
        <ele>126.19999694824</ele>
        <time>2021-05-16T07:05:28Z</time>
      </trkpt>
      <trkpt lat="49.05097" lon="1.28296">
        <ele>126</ele>
        <time>2021-05-16T07:05:33Z</time>
      </trkpt>
      <trkpt lat="49.05094" lon="1.28333">
        <ele>125.80000305176</ele>
        <time>2021-05-16T07:05:40Z</time>
      </trkpt>
      <trkpt lat="49.05105" lon="1.28359">
        <ele>125.80000305176</ele>
        <time>2021-05-16T07:05:45Z</time>
      </trkpt>
      <trkpt lat="49.05113" lon="1.2838">
        <ele>125.59999847412</ele>
        <time>2021-05-16T07:05:49Z</time>
      </trkpt>
      <trkpt lat="49.05126" lon="1.28404">
        <ele>125.59999847412</ele>
        <time>2021-05-16T07:05:53Z</time>
      </trkpt>
      <trkpt lat="49.05141" lon="1.28422">
        <ele>125.59999847412</ele>
        <time>2021-05-16T07:05:58Z</time>
      </trkpt>
      <trkpt lat="49.05151" lon="1.28438">
        <ele>125.59999847412</ele>
        <time>2021-05-16T07:06:03Z</time>
      </trkpt>
      <trkpt lat="49.05162" lon="1.2845">
        <ele>125.59999847412</ele>
        <time>2021-05-16T07:06:09Z</time>
      </trkpt>
      <trkpt lat="49.05168" lon="1.28456">
        <ele>125.59999847412</ele>
        <time>2021-05-16T07:06:14Z</time>
      </trkpt>
      <trkpt lat="49.05175" lon="1.28465">
        <ele>125.40000152588</ele>
        <time>2021-05-16T07:06:23Z</time>
      </trkpt>
      <trkpt lat="49.05182" lon="1.28474">
        <ele>125</ele>
        <time>2021-05-16T07:06:27Z</time>
      </trkpt>
      <trkpt lat="49.05187" lon="1.28482">
        <ele>125</ele>
        <time>2021-05-16T07:06:29Z</time>
      </trkpt>
      <trkpt lat="49.05198" lon="1.285">
        <ele>124.40000152588</ele>
        <time>2021-05-16T07:06:34Z</time>
      </trkpt>
      <trkpt lat="49.05203" lon="1.28506">
        <ele>124</ele>
        <time>2021-05-16T07:06:36Z</time>
      </trkpt>
      <trkpt lat="49.05208" lon="1.28514">
        <ele>123.80000305176</ele>
        <time>2021-05-16T07:06:38Z</time>
      </trkpt>
      <trkpt lat="49.05211" lon="1.28518">
        <ele>123.80000305176</ele>
        <time>2021-05-16T07:06:39Z</time>
      </trkpt>
      <trkpt lat="49.05218" lon="1.28525">
        <ele>123.59999847412</ele>
        <time>2021-05-16T07:06:41Z</time>
      </trkpt>
      <trkpt lat="49.0523" lon="1.28541">
        <ele>123</ele>
        <time>2021-05-16T07:06:45Z</time>
      </trkpt>
      <trkpt lat="49.05237" lon="1.28549">
        <ele>122.80000305176</ele>
        <time>2021-05-16T07:06:47Z</time>
      </trkpt>
      <trkpt lat="49.05243" lon="1.28557">
        <ele>122.59999847412</ele>
        <time>2021-05-16T07:06:49Z</time>
      </trkpt>
      <trkpt lat="49.05246" lon="1.28561">
        <ele>122.59999847412</ele>
        <time>2021-05-16T07:06:50Z</time>
      </trkpt>
      <trkpt lat="49.05266" lon="1.28587">
        <ele>122.59999847412</ele>
        <time>2021-05-16T07:06:56Z</time>
      </trkpt>
      <trkpt lat="49.0527" lon="1.28592">
        <ele>122.59999847412</ele>
        <time>2021-05-16T07:06:57Z</time>
      </trkpt>
      <trkpt lat="49.0528" lon="1.28605">
        <ele>122.59999847412</ele>
        <time>2021-05-16T07:07:00Z</time>
      </trkpt>
      <trkpt lat="49.05295" lon="1.28626">
        <ele>122.59999847412</ele>
        <time>2021-05-16T07:07:05Z</time>
      </trkpt>
      <trkpt lat="49.05312" lon="1.28649">
        <ele>122.59999847412</ele>
        <time>2021-05-16T07:07:10Z</time>
      </trkpt>
      <trkpt lat="49.05319" lon="1.28656">
        <ele>122.59999847412</ele>
        <time>2021-05-16T07:07:12Z</time>
      </trkpt>
      <trkpt lat="49.05327" lon="1.28661">
        <ele>122.59999847412</ele>
        <time>2021-05-16T07:07:14Z</time>
      </trkpt>
      <trkpt lat="49.05341" lon="1.28671">
        <ele>122.59999847412</ele>
        <time>2021-05-16T07:07:17Z</time>
      </trkpt>
      <trkpt lat="49.05352" lon="1.2868">
        <ele>122.40000152588</ele>
        <time>2021-05-16T07:07:19Z</time>
      </trkpt>
      <trkpt lat="49.05364" lon="1.28686">
        <ele>122.40000152588</ele>
        <time>2021-05-16T07:07:21Z</time>
      </trkpt>
      <trkpt lat="49.05381" lon="1.28692">
        <ele>122.19999694824</ele>
        <time>2021-05-16T07:07:24Z</time>
      </trkpt>
      <trkpt lat="49.05386" lon="1.28693">
        <ele>122</ele>
        <time>2021-05-16T07:07:25Z</time>
      </trkpt>
      <trkpt lat="49.05401" lon="1.28689">
        <ele>121.80000305176</ele>
        <time>2021-05-16T07:07:28Z</time>
      </trkpt>
      <trkpt lat="49.0541" lon="1.28685">
        <ele>121.80000305176</ele>
        <time>2021-05-16T07:07:30Z</time>
      </trkpt>
      <trkpt lat="49.05414" lon="1.28681">
        <ele>121.80000305176</ele>
        <time>2021-05-16T07:07:31Z</time>
      </trkpt>
      <trkpt lat="49.05423" lon="1.28674">
        <ele>121.59999847412</ele>
        <time>2021-05-16T07:07:33Z</time>
      </trkpt>
      <trkpt lat="49.05447" lon="1.28654">
        <ele>121.59999847412</ele>
        <time>2021-05-16T07:07:39Z</time>
      </trkpt>
      <trkpt lat="49.05452" lon="1.28649">
        <ele>121.59999847412</ele>
        <time>2021-05-16T07:07:40Z</time>
      </trkpt>
      <trkpt lat="49.05463" lon="1.28639">
        <ele>121.59999847412</ele>
        <time>2021-05-16T07:07:43Z</time>
      </trkpt>
      <trkpt lat="49.05477" lon="1.28626">
        <ele>121.40000152588</ele>
        <time>2021-05-16T07:07:47Z</time>
      </trkpt>
      <trkpt lat="49.05489" lon="1.28618">
        <ele>121.40000152588</ele>
        <time>2021-05-16T07:07:51Z</time>
      </trkpt>
      <trkpt lat="49.05491" lon="1.28618">
        <ele>121.40000152588</ele>
        <time>2021-05-16T07:07:52Z</time>
      </trkpt>
      <trkpt lat="49.05493" lon="1.28624">
        <ele>121.40000152588</ele>
        <time>2021-05-16T07:07:55Z</time>
      </trkpt>
      <trkpt lat="49.05493" lon="1.28627">
        <ele>121.40000152588</ele>
        <time>2021-05-16T07:07:56Z</time>
      </trkpt>
      <trkpt lat="49.05492" lon="1.28641">
        <ele>121.40000152588</ele>
        <time>2021-05-16T07:08:00Z</time>
      </trkpt>
      <trkpt lat="49.05484" lon="1.28665">
        <ele>121</ele>
        <time>2021-05-16T07:08:04Z</time>
      </trkpt>
      <trkpt lat="49.05482" lon="1.2867">
        <ele>121</ele>
        <time>2021-05-16T07:08:05Z</time>
      </trkpt>
      <trkpt lat="49.05474" lon="1.28688">
        <ele>121</ele>
        <time>2021-05-16T07:08:08Z</time>
      </trkpt>
      <trkpt lat="49.05472" lon="1.28694">
        <ele>121</ele>
        <time>2021-05-16T07:08:09Z</time>
      </trkpt>
      <trkpt lat="49.05466" lon="1.28714">
        <ele>120.59999847412</ele>
        <time>2021-05-16T07:08:12Z</time>
      </trkpt>
      <trkpt lat="49.05463" lon="1.28722">
        <ele>120.59999847412</ele>
        <time>2021-05-16T07:08:13Z</time>
      </trkpt>
      <trkpt lat="49.05461" lon="1.28729">
        <ele>120.40000152588</ele>
        <time>2021-05-16T07:08:14Z</time>
      </trkpt>
      <trkpt lat="49.05459" lon="1.28735">
        <ele>120.40000152588</ele>
        <time>2021-05-16T07:08:15Z</time>
      </trkpt>
      <trkpt lat="49.05452" lon="1.28761">
        <ele>120.19999694824</ele>
        <time>2021-05-16T07:08:18Z</time>
      </trkpt>
      <trkpt lat="49.05449" lon="1.28771">
        <ele>120.19999694824</ele>
        <time>2021-05-16T07:08:19Z</time>
      </trkpt>
      <trkpt lat="49.05446" lon="1.28791">
        <ele>120.19999694824</ele>
        <time>2021-05-16T07:08:21Z</time>
      </trkpt>
      <trkpt lat="49.05444" lon="1.288">
        <ele>120</ele>
        <time>2021-05-16T07:08:22Z</time>
      </trkpt>
      <trkpt lat="49.05436" lon="1.28839">
        <ele>119.80000305176</ele>
        <time>2021-05-16T07:08:27Z</time>
      </trkpt>
      <trkpt lat="49.05431" lon="1.28861">
        <ele>119.59999847412</ele>
        <time>2021-05-16T07:08:30Z</time>
      </trkpt>
      <trkpt lat="49.0543" lon="1.28868">
        <ele>119.40000152588</ele>
        <time>2021-05-16T07:08:31Z</time>
      </trkpt>
      <trkpt lat="49.05429" lon="1.28876">
        <ele>119.40000152588</ele>
        <time>2021-05-16T07:08:32Z</time>
      </trkpt>
      <trkpt lat="49.05424" lon="1.28892">
        <ele>119.19999694824</ele>
        <time>2021-05-16T07:08:34Z</time>
      </trkpt>
      <trkpt lat="49.05422" lon="1.28898">
        <ele>119</ele>
        <time>2021-05-16T07:08:35Z</time>
      </trkpt>
      <trkpt lat="49.05418" lon="1.28923">
        <ele>118.59999847412</ele>
        <time>2021-05-16T07:08:40Z</time>
      </trkpt>
      <trkpt lat="49.05416" lon="1.28935">
        <ele>118.40000152588</ele>
        <time>2021-05-16T07:08:42Z</time>
      </trkpt>
      <trkpt lat="49.05415" lon="1.28942">
        <ele>118.40000152588</ele>
        <time>2021-05-16T07:08:43Z</time>
      </trkpt>
      <trkpt lat="49.05414" lon="1.28949">
        <ele>118.19999694824</ele>
        <time>2021-05-16T07:08:44Z</time>
      </trkpt>
      <trkpt lat="49.05412" lon="1.28957">
        <ele>118</ele>
        <time>2021-05-16T07:08:45Z</time>
      </trkpt>
      <trkpt lat="49.05408" lon="1.28979">
        <ele>117.59999847412</ele>
        <time>2021-05-16T07:08:48Z</time>
      </trkpt>
      <trkpt lat="49.05407" lon="1.28995">
        <ele>117.40000152588</ele>
        <time>2021-05-16T07:08:50Z</time>
      </trkpt>
      <trkpt lat="49.05401" lon="1.29019">
        <ele>116.80000305176</ele>
        <time>2021-05-16T07:08:53Z</time>
      </trkpt>
      <trkpt lat="49.05399" lon="1.29035">
        <ele>116.59999847412</ele>
        <time>2021-05-16T07:08:55Z</time>
      </trkpt>
      <trkpt lat="49.05396" lon="1.29051">
        <ele>116.59999847412</ele>
        <time>2021-05-16T07:08:57Z</time>
      </trkpt>
      <trkpt lat="49.05392" lon="1.29066">
        <ele>116.40000152588</ele>
        <time>2021-05-16T07:08:59Z</time>
      </trkpt>
      <trkpt lat="49.05385" lon="1.29088">
        <ele>116.19999694824</ele>
        <time>2021-05-16T07:09:03Z</time>
      </trkpt>
      <trkpt lat="49.05385" lon="1.29114">
        <ele>115.59999847412</ele>
        <time>2021-05-16T07:09:07Z</time>
      </trkpt>
      <trkpt lat="49.05387" lon="1.29133">
        <ele>115.59999847412</ele>
        <time>2021-05-16T07:09:09Z</time>
      </trkpt>
      <trkpt lat="49.05392" lon="1.29176">
        <ele>115.40000152588</ele>
        <time>2021-05-16T07:09:13Z</time>
      </trkpt>
      <trkpt lat="49.05401" lon="1.29233">
        <ele>114.59999847412</ele>
        <time>2021-05-16T07:09:18Z</time>
      </trkpt>
      <trkpt lat="49.05403" lon="1.29294">
        <ele>113.59999847412</ele>
        <time>2021-05-16T07:09:23Z</time>
      </trkpt>
      <trkpt lat="49.05404" lon="1.29319">
        <ele>113.19999694824</ele>
        <time>2021-05-16T07:09:25Z</time>
      </trkpt>
      <trkpt lat="49.05406" lon="1.29352">
        <ele>112.40000152588</ele>
        <time>2021-05-16T07:09:28Z</time>
      </trkpt>
      <trkpt lat="49.05406" lon="1.29359">
        <ele>112.19999694824</ele>
        <time>2021-05-16T07:09:29Z</time>
      </trkpt>
      <trkpt lat="49.05406" lon="1.29363">
        <ele>112</ele>
        <time>2021-05-16T07:09:30Z</time>
      </trkpt>
      <trkpt lat="49.05402" lon="1.29365">
        <ele>111.59999847412</ele>
        <time>2021-05-16T07:09:32Z</time>
      </trkpt>
      <trkpt lat="49.05392" lon="1.29365">
        <ele>110.80000305176</ele>
        <time>2021-05-16T07:09:35Z</time>
      </trkpt>
      <trkpt lat="49.05383" lon="1.29366">
        <ele>110.40000152588</ele>
        <time>2021-05-16T07:09:37Z</time>
      </trkpt>
      <trkpt lat="49.0537" lon="1.29368">
        <ele>109.59999847412</ele>
        <time>2021-05-16T07:09:40Z</time>
      </trkpt>
      <trkpt lat="49.05352" lon="1.29371">
        <ele>108.40000152588</ele>
        <time>2021-05-16T07:09:44Z</time>
      </trkpt>
      <trkpt lat="49.05347" lon="1.29372">
        <ele>108.19999694824</ele>
        <time>2021-05-16T07:09:45Z</time>
      </trkpt>
      <trkpt lat="49.05338" lon="1.29373">
        <ele>107.80000305176</ele>
        <time>2021-05-16T07:09:47Z</time>
      </trkpt>
      <trkpt lat="49.05334" lon="1.29373">
        <ele>107.40000152588</ele>
        <time>2021-05-16T07:09:48Z</time>
      </trkpt>
      <trkpt lat="49.0532" lon="1.29375">
        <ele>106.40000152588</ele>
        <time>2021-05-16T07:09:51Z</time>
      </trkpt>
      <trkpt lat="49.05315" lon="1.29375">
        <ele>106</ele>
        <time>2021-05-16T07:09:52Z</time>
      </trkpt>
      <trkpt lat="49.05305" lon="1.29376">
        <ele>105.19999694824</ele>
        <time>2021-05-16T07:09:54Z</time>
      </trkpt>
      <trkpt lat="49.05283" lon="1.29377">
        <ele>104.40000152588</ele>
        <time>2021-05-16T07:09:58Z</time>
      </trkpt>
      <trkpt lat="49.05277" lon="1.29377">
        <ele>104</ele>
        <time>2021-05-16T07:09:59Z</time>
      </trkpt>
      <trkpt lat="49.05261" lon="1.29377">
        <ele>103.40000152588</ele>
        <time>2021-05-16T07:10:02Z</time>
      </trkpt>
      <trkpt lat="49.05245" lon="1.29376">
        <ele>102.80000305176</ele>
        <time>2021-05-16T07:10:05Z</time>
      </trkpt>
      <trkpt lat="49.0524" lon="1.29376">
        <ele>102.59999847412</ele>
        <time>2021-05-16T07:10:06Z</time>
      </trkpt>
      <trkpt lat="49.05204" lon="1.29371">
        <ele>101.40000152588</ele>
        <time>2021-05-16T07:10:12Z</time>
      </trkpt>
      <trkpt lat="49.05198" lon="1.2937">
        <ele>101.19999694824</ele>
        <time>2021-05-16T07:10:13Z</time>
      </trkpt>
      <trkpt lat="49.0517" lon="1.29365">
        <ele>100.40000152588</ele>
        <time>2021-05-16T07:10:18Z</time>
      </trkpt>
      <trkpt lat="49.05165" lon="1.29363">
        <ele>100</ele>
        <time>2021-05-16T07:10:19Z</time>
      </trkpt>
      <trkpt lat="49.0516" lon="1.29363">
        <ele>99.599998474121</ele>
        <time>2021-05-16T07:10:20Z</time>
      </trkpt>
      <trkpt lat="49.05157" lon="1.29364">
        <ele>99</ele>
        <time>2021-05-16T07:10:21Z</time>
      </trkpt>
      <trkpt lat="49.05153" lon="1.29367">
        <ele>98.800003051758</ele>
        <time>2021-05-16T07:10:22Z</time>
      </trkpt>
      <trkpt lat="49.05148" lon="1.29378">
        <ele>98.199996948242</ele>
        <time>2021-05-16T07:10:24Z</time>
      </trkpt>
      <trkpt lat="49.05147" lon="1.29386">
        <ele>97.800003051758</ele>
        <time>2021-05-16T07:10:25Z</time>
      </trkpt>
      <trkpt lat="49.05146" lon="1.29396">
        <ele>97.400001525879</ele>
        <time>2021-05-16T07:10:26Z</time>
      </trkpt>
      <trkpt lat="49.05145" lon="1.29406">
        <ele>97.199996948242</ele>
        <time>2021-05-16T07:10:27Z</time>
      </trkpt>
      <trkpt lat="49.05143" lon="1.29424">
        <ele>96.599998474121</ele>
        <time>2021-05-16T07:10:29Z</time>
      </trkpt>
      <trkpt lat="49.05142" lon="1.2944">
        <ele>96</ele>
        <time>2021-05-16T07:10:31Z</time>
      </trkpt>
      <trkpt lat="49.05141" lon="1.29447">
        <ele>95.800003051758</ele>
        <time>2021-05-16T07:10:32Z</time>
      </trkpt>
      <trkpt lat="49.05139" lon="1.29452">
        <ele>95.599998474121</ele>
        <time>2021-05-16T07:10:33Z</time>
      </trkpt>
      <trkpt lat="49.05135" lon="1.29454">
        <ele>95</ele>
        <time>2021-05-16T07:10:34Z</time>
      </trkpt>
      <trkpt lat="49.05132" lon="1.29452">
        <ele>94.800003051758</ele>
        <time>2021-05-16T07:10:35Z</time>
      </trkpt>
      <trkpt lat="49.0512" lon="1.29441">
        <ele>93.800003051758</ele>
        <time>2021-05-16T07:10:38Z</time>
      </trkpt>
      <trkpt lat="49.05107" lon="1.29428">
        <ele>92.599998474121</ele>
        <time>2021-05-16T07:10:41Z</time>
      </trkpt>
      <trkpt lat="49.05091" lon="1.29414">
        <ele>91.599998474121</ele>
        <time>2021-05-16T07:10:45Z</time>
      </trkpt>
      <trkpt lat="49.05083" lon="1.29406">
        <ele>91</ele>
        <time>2021-05-16T07:10:47Z</time>
      </trkpt>
      <trkpt lat="49.05076" lon="1.29398">
        <ele>90.599998474121</ele>
        <time>2021-05-16T07:10:49Z</time>
      </trkpt>
      <trkpt lat="49.0505" lon="1.29369">
        <ele>89.599998474121</ele>
        <time>2021-05-16T07:10:56Z</time>
      </trkpt>
      <trkpt lat="49.05026" lon="1.2934">
        <ele>89</ele>
        <time>2021-05-16T07:11:03Z</time>
      </trkpt>
      <trkpt lat="49.05022" lon="1.29336">
        <ele>88.800003051758</ele>
        <time>2021-05-16T07:11:04Z</time>
      </trkpt>
      <trkpt lat="49.05007" lon="1.29319">
        <ele>87.599998474121</ele>
        <time>2021-05-16T07:11:08Z</time>
      </trkpt>
      <trkpt lat="49.04996" lon="1.29305">
        <ele>87.199996948242</ele>
        <time>2021-05-16T07:11:11Z</time>
      </trkpt>
      <trkpt lat="49.04972" lon="1.29279">
        <ele>86.800003051758</ele>
        <time>2021-05-16T07:11:17Z</time>
      </trkpt>
      <trkpt lat="49.04957" lon="1.29263">
        <ele>86.199996948242</ele>
        <time>2021-05-16T07:11:21Z</time>
      </trkpt>
      <trkpt lat="49.04947" lon="1.2925">
        <ele>85.800003051758</ele>
        <time>2021-05-16T07:11:24Z</time>
      </trkpt>
      <trkpt lat="49.04932" lon="1.29232">
        <ele>85.599998474121</ele>
        <time>2021-05-16T07:11:28Z</time>
      </trkpt>
      <trkpt lat="49.04922" lon="1.29218">
        <ele>84.800003051758</ele>
        <time>2021-05-16T07:11:31Z</time>
      </trkpt>
      <trkpt lat="49.04906" lon="1.29196">
        <ele>84.599998474121</ele>
        <time>2021-05-16T07:11:36Z</time>
      </trkpt>
      <trkpt lat="49.04896" lon="1.29181">
        <ele>84</ele>
        <time>2021-05-16T07:11:39Z</time>
      </trkpt>
      <trkpt lat="49.0489" lon="1.29171">
        <ele>83.800003051758</ele>
        <time>2021-05-16T07:11:41Z</time>
      </trkpt>
      <trkpt lat="49.04883" lon="1.29161">
        <ele>83.800003051758</ele>
        <time>2021-05-16T07:11:43Z</time>
      </trkpt>
      <trkpt lat="49.04871" lon="1.29142">
        <ele>83.199996948242</ele>
        <time>2021-05-16T07:11:47Z</time>
      </trkpt>
      <trkpt lat="49.04865" lon="1.29133">
        <ele>83</ele>
        <time>2021-05-16T07:11:49Z</time>
      </trkpt>
      <trkpt lat="49.04862" lon="1.29128">
        <ele>83</ele>
        <time>2021-05-16T07:11:50Z</time>
      </trkpt>
      <trkpt lat="49.04836" lon="1.29091">
        <ele>82.199996948242</ele>
        <time>2021-05-16T07:11:58Z</time>
      </trkpt>
      <trkpt lat="49.04824" lon="1.29071">
        <ele>81.800003051758</ele>
        <time>2021-05-16T07:12:02Z</time>
      </trkpt>
      <trkpt lat="49.04816" lon="1.29056">
        <ele>81.400001525879</ele>
        <time>2021-05-16T07:12:05Z</time>
      </trkpt>
      <trkpt lat="49.04814" lon="1.29051">
        <ele>81.199996948242</ele>
        <time>2021-05-16T07:12:06Z</time>
      </trkpt>
      <trkpt lat="49.04803" lon="1.29022">
        <ele>80.400001525879</ele>
        <time>2021-05-16T07:12:12Z</time>
      </trkpt>
      <trkpt lat="49.04796" lon="1.28996">
        <ele>79.400001525879</ele>
        <time>2021-05-16T07:12:17Z</time>
      </trkpt>
      <trkpt lat="49.04792" lon="1.28983">
        <ele>79</ele>
        <time>2021-05-16T07:12:19Z</time>
      </trkpt>
      <trkpt lat="49.04779" lon="1.28942">
        <ele>78.599998474121</ele>
        <time>2021-05-16T07:12:25Z</time>
      </trkpt>
      <trkpt lat="49.04772" lon="1.28923">
        <ele>78.199996948242</ele>
        <time>2021-05-16T07:12:28Z</time>
      </trkpt>
      <trkpt lat="49.0477" lon="1.28917">
        <ele>77.599998474121</ele>
        <time>2021-05-16T07:12:29Z</time>
      </trkpt>
      <trkpt lat="49.04763" lon="1.28899">
        <ele>76.400001525879</ele>
        <time>2021-05-16T07:12:32Z</time>
      </trkpt>
      <trkpt lat="49.04761" lon="1.28893">
        <ele>76.199996948242</ele>
        <time>2021-05-16T07:12:33Z</time>
      </trkpt>
      <trkpt lat="49.04757" lon="1.28881">
        <ele>75.199996948242</ele>
        <time>2021-05-16T07:12:35Z</time>
      </trkpt>
      <trkpt lat="49.04751" lon="1.28862">
        <ele>73.599998474121</ele>
        <time>2021-05-16T07:12:38Z</time>
      </trkpt>
      <trkpt lat="49.04746" lon="1.28842">
        <ele>72.599998474121</ele>
        <time>2021-05-16T07:12:41Z</time>
      </trkpt>
      <trkpt lat="49.04744" lon="1.28836">
        <ele>72.199996948242</ele>
        <time>2021-05-16T07:12:42Z</time>
      </trkpt>
      <trkpt lat="49.04742" lon="1.28823">
        <ele>71.400001525879</ele>
        <time>2021-05-16T07:12:44Z</time>
      </trkpt>
      <trkpt lat="49.04736" lon="1.28797">
        <ele>70.400001525879</ele>
        <time>2021-05-16T07:12:48Z</time>
      </trkpt>
      <trkpt lat="49.04731" lon="1.28771">
        <ele>70</ele>
        <time>2021-05-16T07:12:52Z</time>
      </trkpt>
      <trkpt lat="49.04729" lon="1.28757">
        <ele>69.599998474121</ele>
        <time>2021-05-16T07:12:54Z</time>
      </trkpt>
      <trkpt lat="49.04727" lon="1.28736">
        <ele>68.400001525879</ele>
        <time>2021-05-16T07:12:57Z</time>
      </trkpt>
      <trkpt lat="49.04725" lon="1.28716">
        <ele>67.400001525879</ele>
        <time>2021-05-16T07:13:00Z</time>
      </trkpt>
      <trkpt lat="49.0472" lon="1.28667">
        <ele>66.400001525879</ele>
        <time>2021-05-16T07:13:07Z</time>
      </trkpt>
      <trkpt lat="49.04717" lon="1.28632">
        <ele>64.199996948242</ele>
        <time>2021-05-16T07:13:12Z</time>
      </trkpt>
      <trkpt lat="49.04716" lon="1.28618">
        <ele>62.799999237061</ele>
        <time>2021-05-16T07:13:14Z</time>
      </trkpt>
      <trkpt lat="49.04716" lon="1.28565">
        <ele>62.200000762939</ele>
        <time>2021-05-16T07:13:22Z</time>
      </trkpt>
      <trkpt lat="49.0472" lon="1.28525">
        <ele>62.400001525879</ele>
        <time>2021-05-16T07:13:28Z</time>
      </trkpt>
      <trkpt lat="49.04722" lon="1.28512">
        <ele>62.400001525879</ele>
        <time>2021-05-16T07:13:30Z</time>
      </trkpt>
      <trkpt lat="49.04723" lon="1.28469">
        <ele>62.599998474121</ele>
        <time>2021-05-16T07:13:37Z</time>
      </trkpt>
      <trkpt lat="49.04726" lon="1.28432">
        <ele>62.599998474121</ele>
        <time>2021-05-16T07:13:43Z</time>
      </trkpt>
      <trkpt lat="49.04726" lon="1.28426">
        <ele>62.599998474121</ele>
        <time>2021-05-16T07:13:44Z</time>
      </trkpt>
      <trkpt lat="49.04727" lon="1.28402">
        <ele>62.400001525879</ele>
        <time>2021-05-16T07:13:48Z</time>
      </trkpt>
      <trkpt lat="49.04726" lon="1.2839">
        <ele>62.200000762939</ele>
        <time>2021-05-16T07:13:50Z</time>
      </trkpt>
      <trkpt lat="49.04726" lon="1.2835">
        <ele>61.799999237061</ele>
        <time>2021-05-16T07:13:57Z</time>
      </trkpt>
      <trkpt lat="49.04728" lon="1.2832">
        <ele>61.599998474121</ele>
        <time>2021-05-16T07:14:03Z</time>
      </trkpt>
      <trkpt lat="49.04732" lon="1.28279">
        <ele>60.799999237061</ele>
        <time>2021-05-16T07:14:11Z</time>
      </trkpt>
      <trkpt lat="49.04732" lon="1.28274">
        <ele>60.799999237061</ele>
        <time>2021-05-16T07:14:12Z</time>
      </trkpt>
      <trkpt lat="49.04732" lon="1.2824">
        <ele>59.599998474121</ele>
        <time>2021-05-16T07:14:19Z</time>
      </trkpt>
      <trkpt lat="49.04732" lon="1.28235">
        <ele>59.400001525879</ele>
        <time>2021-05-16T07:14:20Z</time>
      </trkpt>
      <trkpt lat="49.04729" lon="1.28209">
        <ele>58.599998474121</ele>
        <time>2021-05-16T07:14:26Z</time>
      </trkpt>
      <trkpt lat="49.04727" lon="1.282">
        <ele>58.400001525879</ele>
        <time>2021-05-16T07:14:28Z</time>
      </trkpt>
      <trkpt lat="49.04725" lon="1.28179">
        <ele>58</ele>
        <time>2021-05-16T07:14:33Z</time>
      </trkpt>
      <trkpt lat="49.04723" lon="1.28163">
        <ele>57.400001525879</ele>
        <time>2021-05-16T07:14:37Z</time>
      </trkpt>
      <trkpt lat="49.0472" lon="1.28139">
        <ele>56.799999237061</ele>
        <time>2021-05-16T07:14:43Z</time>
      </trkpt>
      <trkpt lat="49.0472" lon="1.28118">
        <ele>56.400001525879</ele>
        <time>2021-05-16T07:14:48Z</time>
      </trkpt>
      <trkpt lat="49.04721" lon="1.2811">
        <ele>56.200000762939</ele>
        <time>2021-05-16T07:14:50Z</time>
      </trkpt>
      <trkpt lat="49.04721" lon="1.28078">
        <ele>55.400001525879</ele>
        <time>2021-05-16T07:14:58Z</time>
      </trkpt>
      <trkpt lat="49.0472" lon="1.28059">
        <ele>55.400001525879</ele>
        <time>2021-05-16T07:15:03Z</time>
      </trkpt>
      <trkpt lat="49.0472" lon="1.28051">
        <ele>55.200000762939</ele>
        <time>2021-05-16T07:15:05Z</time>
      </trkpt>
      <trkpt lat="49.04718" lon="1.28019">
        <ele>55.200000762939</ele>
        <time>2021-05-16T07:15:13Z</time>
      </trkpt>
      <trkpt lat="49.04718" lon="1.27987">
        <ele>55.200000762939</ele>
        <time>2021-05-16T07:15:21Z</time>
      </trkpt>
      <trkpt lat="49.04719" lon="1.27965">
        <ele>55.400001525879</ele>
        <time>2021-05-16T07:15:27Z</time>
      </trkpt>
      <trkpt lat="49.04721" lon="1.27938">
        <ele>55.799999237061</ele>
        <time>2021-05-16T07:15:34Z</time>
      </trkpt>
      <trkpt lat="49.04721" lon="1.27926">
        <ele>56</ele>
        <time>2021-05-16T07:15:37Z</time>
      </trkpt>
      <trkpt lat="49.04721" lon="1.27912">
        <ele>56</ele>
        <time>2021-05-16T07:15:41Z</time>
      </trkpt>
      <trkpt lat="49.04722" lon="1.2789">
        <ele>56</ele>
        <time>2021-05-16T07:15:48Z</time>
      </trkpt>
      <trkpt lat="49.04722" lon="1.27889">
        <ele>55.799999237061</ele>
        <time>2021-05-16T07:15:50Z</time>
      </trkpt>
      <trkpt lat="49.04723" lon="1.27887">
        <ele>53.400001525879</ele>
        <time>2021-05-16T07:16:19Z</time>
      </trkpt>
      <trkpt lat="49.04723" lon="1.27886">
        <ele>53.400001525879</ele>
        <time>2021-05-16T07:16:20Z</time>
      </trkpt>
      <trkpt lat="49.04722" lon="1.27883">
        <ele>53.200000762939</ele>
        <time>2021-05-16T07:16:25Z</time>
      </trkpt>
      <trkpt lat="49.04723" lon="1.27879">
        <ele>30</ele>
        <time>2021-05-16T07:20:24Z</time>
      </trkpt>
      <trkpt lat="49.04725" lon="1.27859">
        <ele>29.39999961853</ele>
        <time>2021-05-16T07:20:30Z</time>
      </trkpt>
      <trkpt lat="49.04728" lon="1.27829">
        <ele>28.799999237061</ele>
        <time>2021-05-16T07:20:37Z</time>
      </trkpt>
      <trkpt lat="49.0473" lon="1.27794">
        <ele>28.799999237061</ele>
        <time>2021-05-16T07:20:45Z</time>
      </trkpt>
      <trkpt lat="49.04733" lon="1.2776">
        <ele>29.39999961853</ele>
        <time>2021-05-16T07:20:53Z</time>
      </trkpt>
      <trkpt lat="49.04735" lon="1.27719">
        <ele>30.39999961853</ele>
        <time>2021-05-16T07:21:02Z</time>
      </trkpt>
      <trkpt lat="49.04735" lon="1.27714">
        <ele>30.200000762939</ele>
        <time>2021-05-16T07:21:03Z</time>
      </trkpt>
      <trkpt lat="49.04738" lon="1.27676">
        <ele>31.200000762939</ele>
        <time>2021-05-16T07:21:11Z</time>
      </trkpt>
      <trkpt lat="49.04738" lon="1.27671">
        <ele>31.200000762939</ele>
        <time>2021-05-16T07:21:12Z</time>
      </trkpt>
      <trkpt lat="49.0474" lon="1.2763">
        <ele>32</ele>
        <time>2021-05-16T07:21:21Z</time>
      </trkpt>
      <trkpt lat="49.04738" lon="1.276">
        <ele>32.400001525879</ele>
        <time>2021-05-16T07:21:28Z</time>
      </trkpt>
      <trkpt lat="49.04735" lon="1.27583">
        <ele>33</ele>
        <time>2021-05-16T07:21:32Z</time>
      </trkpt>
      <trkpt lat="49.04732" lon="1.27574">
        <ele>33.200000762939</ele>
        <time>2021-05-16T07:21:34Z</time>
      </trkpt>
      <trkpt lat="49.04721" lon="1.27538">
        <ele>34</ele>
        <time>2021-05-16T07:21:42Z</time>
      </trkpt>
      <trkpt lat="49.04718" lon="1.27529">
        <ele>34</ele>
        <time>2021-05-16T07:21:44Z</time>
      </trkpt>
      <trkpt lat="49.04707" lon="1.27502">
        <ele>34.799999237061</ele>
        <time>2021-05-16T07:21:50Z</time>
      </trkpt>
      <trkpt lat="49.04706" lon="1.27499">
        <ele>35</ele>
        <time>2021-05-16T07:21:51Z</time>
      </trkpt>
      <trkpt lat="49.04701" lon="1.27488">
        <ele>35.400001525879</ele>
        <time>2021-05-16T07:21:56Z</time>
      </trkpt>
      <trkpt lat="49.047" lon="1.27488">
        <ele>35.599998474121</ele>
        <time>2021-05-16T07:21:58Z</time>
      </trkpt>
      <trkpt lat="49.04701" lon="1.27486">
        <ele>36.400001525879</ele>
        <time>2021-05-16T07:22:03Z</time>
      </trkpt>
      <trkpt lat="49.04701" lon="1.27484">
        <ele>36.400001525879</ele>
        <time>2021-05-16T07:22:05Z</time>
      </trkpt>
      <trkpt lat="49.04701" lon="1.27484">
        <ele>36.599998474121</ele>
        <time>2021-05-16T07:22:06Z</time>
      </trkpt>
      <trkpt lat="49.04701" lon="1.27483">
        <ele>35.400001525879</ele>
        <time>2021-05-16T07:22:31Z</time>
      </trkpt>
      <trkpt lat="49.047" lon="1.27481">
        <ele>35.400001525879</ele>
        <time>2021-05-16T07:22:33Z</time>
      </trkpt>
      <trkpt lat="49.04698" lon="1.2748">
        <ele>35.400001525879</ele>
        <time>2021-05-16T07:22:34Z</time>
      </trkpt>
      <trkpt lat="49.04685" lon="1.27471">
        <ele>35.200000762939</ele>
        <time>2021-05-16T07:22:40Z</time>
      </trkpt>
      <trkpt lat="49.0467" lon="1.27456">
        <ele>35.200000762939</ele>
        <time>2021-05-16T07:22:48Z</time>
      </trkpt>
      <trkpt lat="49.04659" lon="1.27449">
        <ele>35.400001525879</ele>
        <time>2021-05-16T07:22:54Z</time>
      </trkpt>
      <trkpt lat="49.04644" lon="1.27442">
        <ele>36</ele>
        <time>2021-05-16T07:23:00Z</time>
      </trkpt>
      <trkpt lat="49.04631" lon="1.27436">
        <ele>36.599998474121</ele>
        <time>2021-05-16T07:23:05Z</time>
      </trkpt>
      <trkpt lat="49.04625" lon="1.27432">
        <ele>36.799999237061</ele>
        <time>2021-05-16T07:23:08Z</time>
      </trkpt>
      <trkpt lat="49.04612" lon="1.27423">
        <ele>37.400001525879</ele>
        <time>2021-05-16T07:23:13Z</time>
      </trkpt>
      <trkpt lat="49.04606" lon="1.2742">
        <ele>37.599998474121</ele>
        <time>2021-05-16T07:23:15Z</time>
      </trkpt>
      <trkpt lat="49.04586" lon="1.27411">
        <ele>38.200000762939</ele>
        <time>2021-05-16T07:23:21Z</time>
      </trkpt>
      <trkpt lat="49.04583" lon="1.27409">
        <ele>38.400001525879</ele>
        <time>2021-05-16T07:23:22Z</time>
      </trkpt>
      <trkpt lat="49.04563" lon="1.27401">
        <ele>39.400001525879</ele>
        <time>2021-05-16T07:23:28Z</time>
      </trkpt>
      <trkpt lat="49.04557" lon="1.27398">
        <ele>39.599998474121</ele>
        <time>2021-05-16T07:23:30Z</time>
      </trkpt>
      <trkpt lat="49.04544" lon="1.27394">
        <ele>40.200000762939</ele>
        <time>2021-05-16T07:23:34Z</time>
      </trkpt>
      <trkpt lat="49.04534" lon="1.2739">
        <ele>40.400001525879</ele>
        <time>2021-05-16T07:23:37Z</time>
      </trkpt>
      <trkpt lat="49.04508" lon="1.27379">
        <ele>41</ele>
        <time>2021-05-16T07:23:45Z</time>
      </trkpt>
      <trkpt lat="49.04502" lon="1.27376">
        <ele>41</ele>
        <time>2021-05-16T07:23:47Z</time>
      </trkpt>
      <trkpt lat="49.04479" lon="1.27366">
        <ele>41.599998474121</ele>
        <time>2021-05-16T07:23:54Z</time>
      </trkpt>
      <trkpt lat="49.0446" lon="1.27357">
        <ele>42</ele>
        <time>2021-05-16T07:24:00Z</time>
      </trkpt>
      <trkpt lat="49.04451" lon="1.27353">
        <ele>42.200000762939</ele>
        <time>2021-05-16T07:24:03Z</time>
      </trkpt>
      <trkpt lat="49.04426" lon="1.27341">
        <ele>42.799999237061</ele>
        <time>2021-05-16T07:24:11Z</time>
      </trkpt>
      <trkpt lat="49.0442" lon="1.27338">
        <ele>43</ele>
        <time>2021-05-16T07:24:13Z</time>
      </trkpt>
      <trkpt lat="49.04397" lon="1.27329">
        <ele>43.799999237061</ele>
        <time>2021-05-16T07:24:20Z</time>
      </trkpt>
      <trkpt lat="49.04394" lon="1.27328">
        <ele>44</ele>
        <time>2021-05-16T07:24:21Z</time>
      </trkpt>
      <trkpt lat="49.04361" lon="1.27314">
        <ele>44.599998474121</ele>
        <time>2021-05-16T07:24:31Z</time>
      </trkpt>
      <trkpt lat="49.04354" lon="1.27312">
        <ele>44.799999237061</ele>
        <time>2021-05-16T07:24:33Z</time>
      </trkpt>
      <trkpt lat="49.04328" lon="1.27302">
        <ele>45.400001525879</ele>
        <time>2021-05-16T07:24:41Z</time>
      </trkpt>
      <trkpt lat="49.04308" lon="1.27297">
        <ele>46.400001525879</ele>
        <time>2021-05-16T07:24:47Z</time>
      </trkpt>
      <trkpt lat="49.04301" lon="1.27296">
        <ele>46.599998474121</ele>
        <time>2021-05-16T07:24:49Z</time>
      </trkpt>
      <trkpt lat="49.04269" lon="1.27293">
        <ele>47.200000762939</ele>
        <time>2021-05-16T07:24:58Z</time>
      </trkpt>
      <trkpt lat="49.04266" lon="1.27294">
        <ele>47.400001525879</ele>
        <time>2021-05-16T07:24:59Z</time>
      </trkpt>
      <trkpt lat="49.04244" lon="1.27299">
        <ele>48.400001525879</ele>
        <time>2021-05-16T07:25:06Z</time>
      </trkpt>
      <trkpt lat="49.04217" lon="1.27308">
        <ele>49.200000762939</ele>
        <time>2021-05-16T07:25:15Z</time>
      </trkpt>
      <trkpt lat="49.04213" lon="1.27309">
        <ele>49.400001525879</ele>
        <time>2021-05-16T07:25:16Z</time>
      </trkpt>
      <trkpt lat="49.04182" lon="1.27322">
        <ele>50</ele>
        <time>2021-05-16T07:25:26Z</time>
      </trkpt>
      <trkpt lat="49.04173" lon="1.27326">
        <ele>50.200000762939</ele>
        <time>2021-05-16T07:25:29Z</time>
      </trkpt>
      <trkpt lat="49.04152" lon="1.27336">
        <ele>50.599998474121</ele>
        <time>2021-05-16T07:25:36Z</time>
      </trkpt>
      <trkpt lat="49.04128" lon="1.27347">
        <ele>51.200000762939</ele>
        <time>2021-05-16T07:25:44Z</time>
      </trkpt>
      <trkpt lat="49.04125" lon="1.27348">
        <ele>51.400001525879</ele>
        <time>2021-05-16T07:25:45Z</time>
      </trkpt>
      <trkpt lat="49.04106" lon="1.27355">
        <ele>52</ele>
        <time>2021-05-16T07:25:51Z</time>
      </trkpt>
      <trkpt lat="49.041" lon="1.27358">
        <ele>52</ele>
        <time>2021-05-16T07:25:53Z</time>
      </trkpt>
      <trkpt lat="49.04078" lon="1.27368">
        <ele>52.599998474121</ele>
        <time>2021-05-16T07:26:00Z</time>
      </trkpt>
      <trkpt lat="49.04054" lon="1.27379">
        <ele>52.599998474121</ele>
        <time>2021-05-16T07:26:09Z</time>
      </trkpt>
      <trkpt lat="49.04032" lon="1.27388">
        <ele>52.799999237061</ele>
        <time>2021-05-16T07:26:17Z</time>
      </trkpt>
      <trkpt lat="49.04017" lon="1.27394">
        <ele>52.799999237061</ele>
        <time>2021-05-16T07:26:23Z</time>
      </trkpt>
      <trkpt lat="49.0401" lon="1.27397">
        <ele>52.799999237061</ele>
        <time>2021-05-16T07:26:26Z</time>
      </trkpt>
      <trkpt lat="49.03995" lon="1.27401">
        <ele>52.400001525879</ele>
        <time>2021-05-16T07:26:33Z</time>
      </trkpt>
      <trkpt lat="49.03981" lon="1.27402">
        <ele>52</ele>
        <time>2021-05-16T07:26:40Z</time>
      </trkpt>
      <trkpt lat="49.03968" lon="1.27401">
        <ele>51.599998474121</ele>
        <time>2021-05-16T07:26:46Z</time>
      </trkpt>
      <trkpt lat="49.03955" lon="1.27399">
        <ele>51.400001525879</ele>
        <time>2021-05-16T07:26:53Z</time>
      </trkpt>
      <trkpt lat="49.03942" lon="1.27396">
        <ele>51.200000762939</ele>
        <time>2021-05-16T07:27:00Z</time>
      </trkpt>
      <trkpt lat="49.03939" lon="1.27395">
        <ele>51</ele>
        <time>2021-05-16T07:27:02Z</time>
      </trkpt>
      <trkpt lat="49.03924" lon="1.2739">
        <ele>50.400001525879</ele>
        <time>2021-05-16T07:27:10Z</time>
      </trkpt>
      <trkpt lat="49.03909" lon="1.27385">
        <ele>49.599998474121</ele>
        <time>2021-05-16T07:27:19Z</time>
      </trkpt>
      <trkpt lat="49.03908" lon="1.27384">
        <ele>49.599998474121</ele>
        <time>2021-05-16T07:27:20Z</time>
      </trkpt>
      <trkpt lat="49.03896" lon="1.27379">
        <ele>49.200000762939</ele>
        <time>2021-05-16T07:27:27Z</time>
      </trkpt>
      <trkpt lat="49.03881" lon="1.27373">
        <ele>48.799999237061</ele>
        <time>2021-05-16T07:27:37Z</time>
      </trkpt>
      <trkpt lat="49.03873" lon="1.2737">
        <ele>48.599998474121</ele>
        <time>2021-05-16T07:27:43Z</time>
      </trkpt>
      <trkpt lat="49.0387" lon="1.27369">
        <ele>48.200000762939</ele>
        <time>2021-05-16T07:27:45Z</time>
      </trkpt>
      <trkpt lat="49.03865" lon="1.27371">
        <ele>48.200000762939</ele>
        <time>2021-05-16T07:27:49Z</time>
      </trkpt>
      <trkpt lat="49.03864" lon="1.27374">
        <ele>48</ele>
        <time>2021-05-16T07:27:51Z</time>
      </trkpt>
      <trkpt lat="49.03863" lon="1.27375">
        <ele>47.799999237061</ele>
        <time>2021-05-16T07:27:53Z</time>
      </trkpt>
      <trkpt lat="49.03863" lon="1.27376">
        <ele>47.599998474121</ele>
        <time>2021-05-16T07:27:54Z</time>
      </trkpt>
      <trkpt lat="49.03863" lon="1.27376">
        <ele>47.599998474121</ele>
        <time>2021-05-16T07:27:55Z</time>
      </trkpt>
      <trkpt lat="49.03862" lon="1.27377">
        <ele>47.400001525879</ele>
        <time>2021-05-16T07:27:58Z</time>
      </trkpt>
      <trkpt lat="49.03862" lon="1.27376">
        <ele>47</ele>
        <time>2021-05-16T07:28:01Z</time>
      </trkpt>
      <trkpt lat="49.03862" lon="1.27376">
        <ele>46.799999237061</ele>
        <time>2021-05-16T07:28:02Z</time>
      </trkpt>
      <trkpt lat="49.03869" lon="1.2738">
        <ele>42.200000762939</ele>
        <time>2021-05-16T07:32:40Z</time>
      </trkpt>
      <trkpt lat="49.03873" lon="1.27384">
        <ele>42.200000762939</ele>
        <time>2021-05-16T07:32:42Z</time>
      </trkpt>
      <trkpt lat="49.03886" lon="1.27397">
        <ele>42</ele>
        <time>2021-05-16T07:32:49Z</time>
      </trkpt>
      <trkpt lat="49.03894" lon="1.27413">
        <ele>42</ele>
        <time>2021-05-16T07:32:54Z</time>
      </trkpt>
      <trkpt lat="49.03904" lon="1.27431">
        <ele>42</ele>
        <time>2021-05-16T07:33:01Z</time>
      </trkpt>
      <trkpt lat="49.03912" lon="1.27447">
        <ele>42.599998474121</ele>
        <time>2021-05-16T07:33:07Z</time>
      </trkpt>
      <trkpt lat="49.03913" lon="1.27449">
        <ele>42.599998474121</ele>
        <time>2021-05-16T07:33:08Z</time>
      </trkpt>
      <trkpt lat="49.03921" lon="1.27464">
        <ele>43.400001525879</ele>
        <time>2021-05-16T07:33:14Z</time>
      </trkpt>
      <trkpt lat="49.03929" lon="1.27481">
        <ele>44.400001525879</ele>
        <time>2021-05-16T07:33:20Z</time>
      </trkpt>
      <trkpt lat="49.03931" lon="1.27484">
        <ele>44.599998474121</ele>
        <time>2021-05-16T07:33:21Z</time>
      </trkpt>
      <trkpt lat="49.0394" lon="1.27503">
        <ele>45.400001525879</ele>
        <time>2021-05-16T07:33:28Z</time>
      </trkpt>
      <trkpt lat="49.03941" lon="1.27506">
        <ele>45.400001525879</ele>
        <time>2021-05-16T07:33:29Z</time>
      </trkpt>
      <trkpt lat="49.03949" lon="1.27525">
        <ele>46</ele>
        <time>2021-05-16T07:33:36Z</time>
      </trkpt>
      <trkpt lat="49.03953" lon="1.27534">
        <ele>46</ele>
        <time>2021-05-16T07:33:39Z</time>
      </trkpt>
      <trkpt lat="49.03959" lon="1.27551">
        <ele>46.200000762939</ele>
        <time>2021-05-16T07:33:45Z</time>
      </trkpt>
      <trkpt lat="49.03968" lon="1.27577">
        <ele>46.200000762939</ele>
        <time>2021-05-16T07:33:54Z</time>
      </trkpt>
      <trkpt lat="49.03969" lon="1.27591">
        <ele>46.200000762939</ele>
        <time>2021-05-16T07:33:59Z</time>
      </trkpt>
      <trkpt lat="49.0397" lon="1.27594">
        <ele>46.200000762939</ele>
        <time>2021-05-16T07:34:00Z</time>
      </trkpt>
      <trkpt lat="49.03978" lon="1.27615">
        <ele>46</ele>
        <time>2021-05-16T07:34:08Z</time>
      </trkpt>
      <trkpt lat="49.03985" lon="1.27636">
        <ele>45.599998474121</ele>
        <time>2021-05-16T07:34:15Z</time>
      </trkpt>
      <trkpt lat="49.03991" lon="1.27657">
        <ele>45.599998474121</ele>
        <time>2021-05-16T07:34:22Z</time>
      </trkpt>
      <trkpt lat="49.03999" lon="1.27681">
        <ele>45.200000762939</ele>
        <time>2021-05-16T07:34:30Z</time>
      </trkpt>
      <trkpt lat="49.04006" lon="1.2771">
        <ele>45</ele>
        <time>2021-05-16T07:34:38Z</time>
      </trkpt>
      <trkpt lat="49.04018" lon="1.27745">
        <ele>45</ele>
        <time>2021-05-16T07:34:46Z</time>
      </trkpt>
      <trkpt lat="49.04028" lon="1.27775">
        <ele>44.799999237061</ele>
        <time>2021-05-16T07:34:52Z</time>
      </trkpt>
      <trkpt lat="49.04039" lon="1.27809">
        <ele>45</ele>
        <time>2021-05-16T07:34:58Z</time>
      </trkpt>
      <trkpt lat="49.04052" lon="1.27856">
        <ele>45</ele>
        <time>2021-05-16T07:35:05Z</time>
      </trkpt>
      <trkpt lat="49.04054" lon="1.27862">
        <ele>45.200000762939</ele>
        <time>2021-05-16T07:35:06Z</time>
      </trkpt>
      <trkpt lat="49.04064" lon="1.27895">
        <ele>45.400001525879</ele>
        <time>2021-05-16T07:35:11Z</time>
      </trkpt>
      <trkpt lat="49.04077" lon="1.27938">
        <ele>46</ele>
        <time>2021-05-16T07:35:17Z</time>
      </trkpt>
      <trkpt lat="49.0408" lon="1.27953">
        <ele>46.200000762939</ele>
        <time>2021-05-16T07:35:19Z</time>
      </trkpt>
      <trkpt lat="49.04097" lon="1.28016">
        <ele>47</ele>
        <time>2021-05-16T07:35:27Z</time>
      </trkpt>
      <trkpt lat="49.04101" lon="1.28033">
        <ele>47.200000762939</ele>
        <time>2021-05-16T07:35:29Z</time>
      </trkpt>
      <trkpt lat="49.04111" lon="1.28069">
        <ele>47.599998474121</ele>
        <time>2021-05-16T07:35:34Z</time>
      </trkpt>
      <trkpt lat="49.04124" lon="1.28121">
        <ele>47.799999237061</ele>
        <time>2021-05-16T07:35:41Z</time>
      </trkpt>
      <trkpt lat="49.04128" lon="1.28136">
        <ele>47.799999237061</ele>
        <time>2021-05-16T07:35:43Z</time>
      </trkpt>
      <trkpt lat="49.04138" lon="1.28177">
        <ele>48.200000762939</ele>
        <time>2021-05-16T07:35:48Z</time>
      </trkpt>
      <trkpt lat="49.04144" lon="1.28203">
        <ele>48.400001525879</ele>
        <time>2021-05-16T07:35:51Z</time>
      </trkpt>
      <trkpt lat="49.04146" lon="1.28219">
        <ele>48.200000762939</ele>
        <time>2021-05-16T07:35:53Z</time>
      </trkpt>
      <trkpt lat="49.04142" lon="1.28248">
        <ele>48.599998474121</ele>
        <time>2021-05-16T07:35:57Z</time>
      </trkpt>
      <trkpt lat="49.0413" lon="1.28262">
        <ele>48.799999237061</ele>
        <time>2021-05-16T07:36:00Z</time>
      </trkpt>
      <trkpt lat="49.04126" lon="1.28265">
        <ele>48.599998474121</ele>
        <time>2021-05-16T07:36:01Z</time>
      </trkpt>
      <trkpt lat="49.0411" lon="1.28279">
        <ele>49</ele>
        <time>2021-05-16T07:36:05Z</time>
      </trkpt>
      <trkpt lat="49.04102" lon="1.28287">
        <ele>49</ele>
        <time>2021-05-16T07:36:07Z</time>
      </trkpt>
      <trkpt lat="49.04072" lon="1.28312">
        <ele>49</ele>
        <time>2021-05-16T07:36:13Z</time>
      </trkpt>
      <trkpt lat="49.04061" lon="1.28325">
        <ele>49.200000762939</ele>
        <time>2021-05-16T07:36:17Z</time>
      </trkpt>
      <trkpt lat="49.04059" lon="1.28327">
        <ele>49.200000762939</ele>
        <time>2021-05-16T07:36:18Z</time>
      </trkpt>
      <trkpt lat="49.04048" lon="1.28339">
        <ele>49.400001525879</ele>
        <time>2021-05-16T07:36:23Z</time>
      </trkpt>
      <trkpt lat="49.04033" lon="1.28357">
        <ele>50</ele>
        <time>2021-05-16T07:36:30Z</time>
      </trkpt>
      <trkpt lat="49.04018" lon="1.28376">
        <ele>50.599998474121</ele>
        <time>2021-05-16T07:36:37Z</time>
      </trkpt>
      <trkpt lat="49.04006" lon="1.28388">
        <ele>50.799999237061</ele>
        <time>2021-05-16T07:36:42Z</time>
      </trkpt>
      <trkpt lat="49.04003" lon="1.2839">
        <ele>51</ele>
        <time>2021-05-16T07:36:44Z</time>
      </trkpt>
      <trkpt lat="49.04003" lon="1.28392">
        <ele>51.200000762939</ele>
        <time>2021-05-16T07:36:47Z</time>
      </trkpt>
      <trkpt lat="49.04003" lon="1.28391">
        <ele>8</ele>
        <time>2021-05-16T07:43:56Z</time>
      </trkpt>
      <trkpt lat="49.04004" lon="1.28391">
        <ele>7.8000001907349</ele>
        <time>2021-05-16T07:43:57Z</time>
      </trkpt>
      <trkpt lat="49.04006" lon="1.28394">
        <ele>6.8000001907349</ele>
        <time>2021-05-16T07:44:02Z</time>
      </trkpt>
      <trkpt lat="49.04008" lon="1.28398">
        <ele>-41.799999237061</ele>
        <time>2021-05-16T07:51:38Z</time>
      </trkpt>
      <trkpt lat="49.04019" lon="1.28407">
        <ele>-42</ele>
        <time>2021-05-16T07:51:42Z</time>
      </trkpt>
      <trkpt lat="49.04038" lon="1.28421">
        <ele>-42</ele>
        <time>2021-05-16T07:51:46Z</time>
      </trkpt>
      <trkpt lat="49.04065" lon="1.28444">
        <ele>-41.799999237061</ele>
        <time>2021-05-16T07:51:50Z</time>
      </trkpt>
      <trkpt lat="49.04102" lon="1.28485">
        <ele>-41.599998474121</ele>
        <time>2021-05-16T07:51:55Z</time>
      </trkpt>
      <trkpt lat="49.04145" lon="1.2853">
        <ele>-40.799999237061</ele>
        <time>2021-05-16T07:52:01Z</time>
      </trkpt>
      <trkpt lat="49.04152" lon="1.28539">
        <ele>-40.599998474121</ele>
        <time>2021-05-16T07:52:02Z</time>
      </trkpt>
      <trkpt lat="49.04166" lon="1.28574">
        <ele>-40.200000762939</ele>
        <time>2021-05-16T07:52:05Z</time>
      </trkpt>
      <trkpt lat="49.0417" lon="1.28587">
        <ele>-39.799999237061</ele>
        <time>2021-05-16T07:52:06Z</time>
      </trkpt>
      <trkpt lat="49.04179" lon="1.28626">
        <ele>-38.799999237061</ele>
        <time>2021-05-16T07:52:09Z</time>
      </trkpt>
      <trkpt lat="49.04187" lon="1.28666">
        <ele>-37.599998474121</ele>
        <time>2021-05-16T07:52:12Z</time>
      </trkpt>
      <trkpt lat="49.04193" lon="1.28692">
        <ele>-36.599998474121</ele>
        <time>2021-05-16T07:52:14Z</time>
      </trkpt>
      <trkpt lat="49.04199" lon="1.28717">
        <ele>-35.200000762939</ele>
        <time>2021-05-16T07:52:16Z</time>
      </trkpt>
      <trkpt lat="49.04206" lon="1.28739">
        <ele>-34.200000762939</ele>
        <time>2021-05-16T07:52:18Z</time>
      </trkpt>
      <trkpt lat="49.0421" lon="1.28749">
        <ele>-33.799999237061</ele>
        <time>2021-05-16T07:52:19Z</time>
      </trkpt>
      <trkpt lat="49.04214" lon="1.28756">
        <ele>-33</ele>
        <time>2021-05-16T07:52:20Z</time>
      </trkpt>
      <trkpt lat="49.04218" lon="1.28766">
        <ele>-32.200000762939</ele>
        <time>2021-05-16T07:52:22Z</time>
      </trkpt>
      <trkpt lat="49.04213" lon="1.28771">
        <ele>-31.200000762939</ele>
        <time>2021-05-16T07:52:25Z</time>
      </trkpt>
      <trkpt lat="49.0421" lon="1.28772">
        <ele>-31</ele>
        <time>2021-05-16T07:52:26Z</time>
      </trkpt>
      <trkpt lat="49.04205" lon="1.28773">
        <ele>-30.39999961853</ele>
        <time>2021-05-16T07:52:28Z</time>
      </trkpt>
      <trkpt lat="49.04196" lon="1.28774">
        <ele>-29.200000762939</ele>
        <time>2021-05-16T07:52:31Z</time>
      </trkpt>
      <trkpt lat="49.0419" lon="1.28775">
        <ele>-28.39999961853</ele>
        <time>2021-05-16T07:52:33Z</time>
      </trkpt>
      <trkpt lat="49.04188" lon="1.28776">
        <ele>-28.200000762939</ele>
        <time>2021-05-16T07:52:34Z</time>
      </trkpt>
      <trkpt lat="49.0418" lon="1.28779">
        <ele>-27</ele>
        <time>2021-05-16T07:52:37Z</time>
      </trkpt>
      <trkpt lat="49.04169" lon="1.28783">
        <ele>-25.799999237061</ele>
        <time>2021-05-16T07:52:41Z</time>
      </trkpt>
      <trkpt lat="49.04161" lon="1.28786">
        <ele>-24.60000038147</ele>
        <time>2021-05-16T07:52:44Z</time>
      </trkpt>
      <trkpt lat="49.0415" lon="1.2879">
        <ele>-23.39999961853</ele>
        <time>2021-05-16T07:52:48Z</time>
      </trkpt>
      <trkpt lat="49.04146" lon="1.28792">
        <ele>-23</ele>
        <time>2021-05-16T07:52:50Z</time>
      </trkpt>
      <trkpt lat="49.04141" lon="1.28795">
        <ele>-22.60000038147</ele>
        <time>2021-05-16T07:52:52Z</time>
      </trkpt>
      <trkpt lat="49.04128" lon="1.288">
        <ele>-22.39999961853</ele>
        <time>2021-05-16T07:52:57Z</time>
      </trkpt>
      <trkpt lat="49.04104" lon="1.28811">
        <ele>-22.200000762939</ele>
        <time>2021-05-16T07:53:06Z</time>
      </trkpt>
      <trkpt lat="49.04094" lon="1.28815">
        <ele>-22</ele>
        <time>2021-05-16T07:53:10Z</time>
      </trkpt>
      <trkpt lat="49.04087" lon="1.28819">
        <ele>-21.799999237061</ele>
        <time>2021-05-16T07:53:13Z</time>
      </trkpt>
      <trkpt lat="49.04084" lon="1.2882">
        <ele>-21.60000038147</ele>
        <time>2021-05-16T07:53:14Z</time>
      </trkpt>
      <trkpt lat="49.04074" lon="1.28824">
        <ele>-21.200000762939</ele>
        <time>2021-05-16T07:53:18Z</time>
      </trkpt>
      <trkpt lat="49.04063" lon="1.28829">
        <ele>-20</ele>
        <time>2021-05-16T07:53:23Z</time>
      </trkpt>
      <trkpt lat="49.04053" lon="1.28835">
        <ele>-19.60000038147</ele>
        <time>2021-05-16T07:53:28Z</time>
      </trkpt>
      <trkpt lat="49.04053" lon="1.28839">
        <ele>-19.39999961853</ele>
        <time>2021-05-16T07:53:29Z</time>
      </trkpt>
      <trkpt lat="49.04055" lon="1.28851">
        <ele>-19.39999961853</ele>
        <time>2021-05-16T07:53:32Z</time>
      </trkpt>
      <trkpt lat="49.04057" lon="1.28857">
        <ele>-19.39999961853</ele>
        <time>2021-05-16T07:53:34Z</time>
      </trkpt>
      <trkpt lat="49.04066" lon="1.28869">
        <ele>-18.60000038147</ele>
        <time>2021-05-16T07:53:40Z</time>
      </trkpt>
      <trkpt lat="49.04068" lon="1.2887">
        <ele>-18.200000762939</ele>
        <time>2021-05-16T07:53:41Z</time>
      </trkpt>
      <trkpt lat="49.04086" lon="1.28886">
        <ele>-17.60000038147</ele>
        <time>2021-05-16T07:53:50Z</time>
      </trkpt>
      <trkpt lat="49.04093" lon="1.28893">
        <ele>-18</ele>
        <time>2021-05-16T07:53:56Z</time>
      </trkpt>
      <trkpt lat="49.04094" lon="1.28894">
        <ele>-24.200000762939</ele>
        <time>2021-05-16T07:54:19Z</time>
      </trkpt>
      <trkpt lat="49.04099" lon="1.28897">
        <ele>-25</ele>
        <time>2021-05-16T07:54:22Z</time>
      </trkpt>
      <trkpt lat="49.04103" lon="1.28903">
        <ele>-25.39999961853</ele>
        <time>2021-05-16T07:54:24Z</time>
      </trkpt>
      <trkpt lat="49.04112" lon="1.28912">
        <ele>-26.200000762939</ele>
        <time>2021-05-16T07:54:27Z</time>
      </trkpt>
      <trkpt lat="49.04119" lon="1.2892">
        <ele>-26.799999237061</ele>
        <time>2021-05-16T07:54:29Z</time>
      </trkpt>
      <trkpt lat="49.04131" lon="1.28936">
        <ele>-28</ele>
        <time>2021-05-16T07:54:32Z</time>
      </trkpt>
      <trkpt lat="49.04149" lon="1.28966">
        <ele>-29.200000762939</ele>
        <time>2021-05-16T07:54:36Z</time>
      </trkpt>
      <trkpt lat="49.04154" lon="1.28975">
        <ele>-29.60000038147</ele>
        <time>2021-05-16T07:54:37Z</time>
      </trkpt>
      <trkpt lat="49.04165" lon="1.28993">
        <ele>-30.39999961853</ele>
        <time>2021-05-16T07:54:39Z</time>
      </trkpt>
      <trkpt lat="49.04186" lon="1.29035">
        <ele>-31.200000762939</ele>
        <time>2021-05-16T07:54:43Z</time>
      </trkpt>
      <trkpt lat="49.04206" lon="1.29078">
        <ele>-31.799999237061</ele>
        <time>2021-05-16T07:54:47Z</time>
      </trkpt>
      <trkpt lat="49.04229" lon="1.29131">
        <ele>-31.799999237061</ele>
        <time>2021-05-16T07:54:52Z</time>
      </trkpt>
      <trkpt lat="49.04256" lon="1.29189">
        <ele>-31.799999237061</ele>
        <time>2021-05-16T07:54:58Z</time>
      </trkpt>
      <trkpt lat="49.0429" lon="1.29267">
        <ele>-31.799999237061</ele>
        <time>2021-05-16T07:55:06Z</time>
      </trkpt>
      <trkpt lat="49.04318" lon="1.29333">
        <ele>-31.60000038147</ele>
        <time>2021-05-16T07:55:13Z</time>
      </trkpt>
      <trkpt lat="49.04347" lon="1.29406">
        <ele>-31.39999961853</ele>
        <time>2021-05-16T07:55:21Z</time>
      </trkpt>
      <trkpt lat="49.04354" lon="1.29423">
        <ele>-31.39999961853</ele>
        <time>2021-05-16T07:55:23Z</time>
      </trkpt>
      <trkpt lat="49.04384" lon="1.29499">
        <ele>-32</ele>
        <time>2021-05-16T07:55:32Z</time>
      </trkpt>
      <trkpt lat="49.04395" lon="1.29524">
        <ele>-32.200000762939</ele>
        <time>2021-05-16T07:55:35Z</time>
      </trkpt>
      <trkpt lat="49.04415" lon="1.29575">
        <ele>-32.200000762939</ele>
        <time>2021-05-16T07:55:42Z</time>
      </trkpt>
      <trkpt lat="49.04422" lon="1.29597">
        <ele>-32.599998474121</ele>
        <time>2021-05-16T07:55:46Z</time>
      </trkpt>
      <trkpt lat="49.04422" lon="1.2961">
        <ele>-32.799999237061</ele>
        <time>2021-05-16T07:55:48Z</time>
      </trkpt>
      <trkpt lat="49.0442" lon="1.29655">
        <ele>-33.200000762939</ele>
        <time>2021-05-16T07:55:54Z</time>
      </trkpt>
      <trkpt lat="49.0442" lon="1.29663">
        <ele>-33.400001525879</ele>
        <time>2021-05-16T07:55:55Z</time>
      </trkpt>
      <trkpt lat="49.0442" lon="1.29671">
        <ele>-33.599998474121</ele>
        <time>2021-05-16T07:55:56Z</time>
      </trkpt>
      <trkpt lat="49.04417" lon="1.29684">
        <ele>-33.599998474121</ele>
        <time>2021-05-16T07:55:58Z</time>
      </trkpt>
      <trkpt lat="49.04402" lon="1.29695">
        <ele>-33.799999237061</ele>
        <time>2021-05-16T07:56:02Z</time>
      </trkpt>
      <trkpt lat="49.04365" lon="1.29716">
        <ele>-34.200000762939</ele>
        <time>2021-05-16T07:56:11Z</time>
      </trkpt>
      <trkpt lat="49.0434" lon="1.29744">
        <ele>-34.200000762939</ele>
        <time>2021-05-16T07:56:19Z</time>
      </trkpt>
      <trkpt lat="49.04315" lon="1.2978">
        <ele>-33.799999237061</ele>
        <time>2021-05-16T07:56:27Z</time>
      </trkpt>
      <trkpt lat="49.04289" lon="1.29815">
        <ele>-33.599998474121</ele>
        <time>2021-05-16T07:56:35Z</time>
      </trkpt>
      <trkpt lat="49.04257" lon="1.29859">
        <ele>-33.799999237061</ele>
        <time>2021-05-16T07:56:45Z</time>
      </trkpt>
      <trkpt lat="49.04222" lon="1.29909">
        <ele>-33.599998474121</ele>
        <time>2021-05-16T07:56:56Z</time>
      </trkpt>
      <trkpt lat="49.04196" lon="1.29946">
        <ele>-33.200000762939</ele>
        <time>2021-05-16T07:57:03Z</time>
      </trkpt>
      <trkpt lat="49.04192" lon="1.29951">
        <ele>-33</ele>
        <time>2021-05-16T07:57:04Z</time>
      </trkpt>
      <trkpt lat="49.04159" lon="1.29996">
        <ele>-32.400001525879</ele>
        <time>2021-05-16T07:57:13Z</time>
      </trkpt>
      <trkpt lat="49.04155" lon="1.3">
        <ele>-32.200000762939</ele>
        <time>2021-05-16T07:57:14Z</time>
      </trkpt>
      <trkpt lat="49.04124" lon="1.30043">
        <ele>-32</ele>
        <time>2021-05-16T07:57:23Z</time>
      </trkpt>
      <trkpt lat="49.04103" lon="1.30071">
        <ele>-32.200000762939</ele>
        <time>2021-05-16T07:57:30Z</time>
      </trkpt>
      <trkpt lat="49.04078" lon="1.30103">
        <ele>-32.200000762939</ele>
        <time>2021-05-16T07:57:39Z</time>
      </trkpt>
      <trkpt lat="49.04059" lon="1.30126">
        <ele>-32.400001525879</ele>
        <time>2021-05-16T07:57:45Z</time>
      </trkpt>
      <trkpt lat="49.04041" lon="1.30149">
        <ele>-31.60000038147</ele>
        <time>2021-05-16T07:57:50Z</time>
      </trkpt>
      <trkpt lat="49.04033" lon="1.30159">
        <ele>-31</ele>
        <time>2021-05-16T07:57:52Z</time>
      </trkpt>
      <trkpt lat="49.04029" lon="1.30164">
        <ele>-30.60000038147</ele>
        <time>2021-05-16T07:57:53Z</time>
      </trkpt>
      <trkpt lat="49.04016" lon="1.3018">
        <ele>-29.39999961853</ele>
        <time>2021-05-16T07:57:56Z</time>
      </trkpt>
      <trkpt lat="49.04007" lon="1.30191">
        <ele>-28.200000762939</ele>
        <time>2021-05-16T07:57:58Z</time>
      </trkpt>
      <trkpt lat="49.03995" lon="1.30207">
        <ele>-27</ele>
        <time>2021-05-16T07:58:01Z</time>
      </trkpt>
      <trkpt lat="49.03983" lon="1.30222">
        <ele>-25.799999237061</ele>
        <time>2021-05-16T07:58:04Z</time>
      </trkpt>
      <trkpt lat="49.03974" lon="1.30236">
        <ele>-25.39999961853</ele>
        <time>2021-05-16T07:58:07Z</time>
      </trkpt>
      <trkpt lat="49.03965" lon="1.3025">
        <ele>-25</ele>
        <time>2021-05-16T07:58:12Z</time>
      </trkpt>
      <trkpt lat="49.03964" lon="1.30253">
        <ele>-24.799999237061</ele>
        <time>2021-05-16T07:58:13Z</time>
      </trkpt>
      <trkpt lat="49.03953" lon="1.30263">
        <ele>-24</ele>
        <time>2021-05-16T07:58:17Z</time>
      </trkpt>
      <trkpt lat="49.0395" lon="1.30266">
        <ele>-23.799999237061</ele>
        <time>2021-05-16T07:58:18Z</time>
      </trkpt>
      <trkpt lat="49.03939" lon="1.30275">
        <ele>-22.60000038147</ele>
        <time>2021-05-16T07:58:22Z</time>
      </trkpt>
      <trkpt lat="49.03932" lon="1.3028">
        <ele>-21.799999237061</ele>
        <time>2021-05-16T07:58:24Z</time>
      </trkpt>
      <trkpt lat="49.03929" lon="1.30282">
        <ele>-21.60000038147</ele>
        <time>2021-05-16T07:58:25Z</time>
      </trkpt>
      <trkpt lat="49.03923" lon="1.30285">
        <ele>-20.39999961853</ele>
        <time>2021-05-16T07:58:27Z</time>
      </trkpt>
      <trkpt lat="49.03916" lon="1.30289">
        <ele>-19.200000762939</ele>
        <time>2021-05-16T07:58:29Z</time>
      </trkpt>
      <trkpt lat="49.03906" lon="1.30295">
        <ele>-17.799999237061</ele>
        <time>2021-05-16T07:58:32Z</time>
      </trkpt>
      <trkpt lat="49.03895" lon="1.30303">
        <ele>-16.39999961853</ele>
        <time>2021-05-16T07:58:35Z</time>
      </trkpt>
      <trkpt lat="49.03886" lon="1.30312">
        <ele>-15.199999809265</ele>
        <time>2021-05-16T07:58:38Z</time>
      </trkpt>
      <trkpt lat="49.03882" lon="1.30315">
        <ele>-14.800000190735</ele>
        <time>2021-05-16T07:58:39Z</time>
      </trkpt>
      <trkpt lat="49.03876" lon="1.30323">
        <ele>-13.800000190735</ele>
        <time>2021-05-16T07:58:41Z</time>
      </trkpt>
      <trkpt lat="49.03867" lon="1.30334">
        <ele>-12.800000190735</ele>
        <time>2021-05-16T07:58:44Z</time>
      </trkpt>
      <trkpt lat="49.03865" lon="1.30339">
        <ele>-12.39999961853</ele>
        <time>2021-05-16T07:58:45Z</time>
      </trkpt>
      <trkpt lat="49.03862" lon="1.30345">
        <ele>-12.199999809265</ele>
        <time>2021-05-16T07:58:46Z</time>
      </trkpt>
      <trkpt lat="49.0386" lon="1.3035">
        <ele>-11.800000190735</ele>
        <time>2021-05-16T07:58:47Z</time>
      </trkpt>
      <trkpt lat="49.03856" lon="1.30367">
        <ele>-10.60000038147</ele>
        <time>2021-05-16T07:58:50Z</time>
      </trkpt>
      <trkpt lat="49.03855" lon="1.30373">
        <ele>-10.199999809265</ele>
        <time>2021-05-16T07:58:51Z</time>
      </trkpt>
      <trkpt lat="49.03854" lon="1.3039">
        <ele>-9.1999998092651</ele>
        <time>2021-05-16T07:58:54Z</time>
      </trkpt>
      <trkpt lat="49.03854" lon="1.30407">
        <ele>-8.1999998092651</ele>
        <time>2021-05-16T07:58:57Z</time>
      </trkpt>
      <trkpt lat="49.03854" lon="1.30413">
        <ele>-8</ele>
        <time>2021-05-16T07:58:58Z</time>
      </trkpt>
      <trkpt lat="49.03851" lon="1.30454">
        <ele>-8</ele>
        <time>2021-05-16T07:59:05Z</time>
      </trkpt>
      <trkpt lat="49.03839" lon="1.30482">
        <ele>-8.1999998092651</ele>
        <time>2021-05-16T07:59:11Z</time>
      </trkpt>
      <trkpt lat="49.03817" lon="1.30512">
        <ele>-8</ele>
        <time>2021-05-16T07:59:18Z</time>
      </trkpt>
      <trkpt lat="49.03808" lon="1.30526">
        <ele>-7.4000000953674</ele>
        <time>2021-05-16T07:59:21Z</time>
      </trkpt>
      <trkpt lat="49.03802" lon="1.30536">
        <ele>-6.4000000953674</ele>
        <time>2021-05-16T07:59:23Z</time>
      </trkpt>
      <trkpt lat="49.03793" lon="1.30551">
        <ele>-5</ele>
        <time>2021-05-16T07:59:26Z</time>
      </trkpt>
      <trkpt lat="49.03782" lon="1.30574">
        <ele>-3.5999999046326</ele>
        <time>2021-05-16T07:59:30Z</time>
      </trkpt>
      <trkpt lat="49.03774" lon="1.3059">
        <ele>-2.5999999046326</ele>
        <time>2021-05-16T07:59:33Z</time>
      </trkpt>
      <trkpt lat="49.03771" lon="1.30595">
        <ele>-2.4000000953674</ele>
        <time>2021-05-16T07:59:34Z</time>
      </trkpt>
      <trkpt lat="49.03759" lon="1.30618">
        <ele>-1.3999999761581</ele>
        <time>2021-05-16T07:59:39Z</time>
      </trkpt>
      <trkpt lat="49.03756" lon="1.30621">
        <ele>-1.2000000476837</ele>
        <time>2021-05-16T07:59:40Z</time>
      </trkpt>
      <trkpt lat="49.03746" lon="1.30631">
        <ele>-0.40000000596046</ele>
        <time>2021-05-16T07:59:44Z</time>
      </trkpt>
      <trkpt lat="49.03743" lon="1.30638">
        <ele>-0.20000000298023</ele>
        <time>2021-05-16T07:59:46Z</time>
      </trkpt>
      <trkpt lat="49.03742" lon="1.30649">
        <ele>0.40000000596046</ele>
        <time>2021-05-16T07:59:49Z</time>
      </trkpt>
      <trkpt lat="49.03741" lon="1.30653">
        <ele>0.80000001192093</ele>
        <time>2021-05-16T07:59:50Z</time>
      </trkpt>
      <trkpt lat="49.0374" lon="1.30665">
        <ele>1.7999999523163</ele>
        <time>2021-05-16T07:59:53Z</time>
      </trkpt>
      <trkpt lat="49.0374" lon="1.30679">
        <ele>2.4000000953674</ele>
        <time>2021-05-16T07:59:56Z</time>
      </trkpt>
      <trkpt lat="49.03739" lon="1.30719">
        <ele>2.5999999046326</ele>
        <time>2021-05-16T08:00:03Z</time>
      </trkpt>
      <trkpt lat="49.03738" lon="1.3077">
        <ele>1.2000000476837</ele>
        <time>2021-05-16T08:00:11Z</time>
      </trkpt>
      <trkpt lat="49.03738" lon="1.30782">
        <ele>0.80000001192093</ele>
        <time>2021-05-16T08:00:13Z</time>
      </trkpt>
      <trkpt lat="49.03738" lon="1.30814">
        <ele>-0.40000000596046</ele>
        <time>2021-05-16T08:00:18Z</time>
      </trkpt>
      <trkpt lat="49.03739" lon="1.30821">
        <ele>-0.80000001192093</ele>
        <time>2021-05-16T08:00:19Z</time>
      </trkpt>
      <trkpt lat="49.03742" lon="1.30839">
        <ele>-1.6000000238419</ele>
        <time>2021-05-16T08:00:22Z</time>
      </trkpt>
      <trkpt lat="49.03746" lon="1.30863">
        <ele>-2.5999999046326</ele>
        <time>2021-05-16T08:00:26Z</time>
      </trkpt>
      <trkpt lat="49.03747" lon="1.3087">
        <ele>-2.7999999523163</ele>
        <time>2021-05-16T08:00:27Z</time>
      </trkpt>
      <trkpt lat="49.03754" lon="1.30904">
        <ele>-4</ele>
        <time>2021-05-16T08:00:32Z</time>
      </trkpt>
      <trkpt lat="49.03757" lon="1.30919">
        <ele>-4.1999998092651</ele>
        <time>2021-05-16T08:00:34Z</time>
      </trkpt>
      <trkpt lat="49.03761" lon="1.30943">
        <ele>-4.8000001907349</ele>
        <time>2021-05-16T08:00:37Z</time>
      </trkpt>
      <trkpt lat="49.03763" lon="1.3096">
        <ele>-5.1999998092651</ele>
        <time>2021-05-16T08:00:39Z</time>
      </trkpt>
      <trkpt lat="49.03765" lon="1.30975">
        <ele>-5.8000001907349</ele>
        <time>2021-05-16T08:00:41Z</time>
      </trkpt>
      <trkpt lat="49.03764" lon="1.30986">
        <ele>-6.1999998092651</ele>
        <time>2021-05-16T08:00:43Z</time>
      </trkpt>
      <trkpt lat="49.03756" lon="1.30992">
        <ele>-7.1999998092651</ele>
        <time>2021-05-16T08:00:46Z</time>
      </trkpt>
      <trkpt lat="49.03753" lon="1.30991">
        <ele>-7.4000000953674</ele>
        <time>2021-05-16T08:00:47Z</time>
      </trkpt>
      <trkpt lat="49.03742" lon="1.30983">
        <ele>-8.6000003814697</ele>
        <time>2021-05-16T08:00:51Z</time>
      </trkpt>
      <trkpt lat="49.0373" lon="1.30971">
        <ele>-8.8000001907349</ele>
        <time>2021-05-16T08:00:55Z</time>
      </trkpt>
      <trkpt lat="49.0372" lon="1.30961">
        <ele>-8.8000001907349</ele>
        <time>2021-05-16T08:00:58Z</time>
      </trkpt>
      <trkpt lat="49.03695" lon="1.3093">
        <ele>-8.1999998092651</ele>
        <time>2021-05-16T08:01:07Z</time>
      </trkpt>
      <trkpt lat="49.03684" lon="1.30916">
        <ele>-7.4000000953674</ele>
        <time>2021-05-16T08:01:11Z</time>
      </trkpt>
      <trkpt lat="49.03673" lon="1.30902">
        <ele>-6.4000000953674</ele>
        <time>2021-05-16T08:01:15Z</time>
      </trkpt>
      <trkpt lat="49.03661" lon="1.30885">
        <ele>-5.1999998092651</ele>
        <time>2021-05-16T08:01:20Z</time>
      </trkpt>
      <trkpt lat="49.03653" lon="1.30875">
        <ele>-4.5999999046326</ele>
        <time>2021-05-16T08:01:23Z</time>
      </trkpt>
      <trkpt lat="49.03648" lon="1.30868">
        <ele>-4.1999998092651</ele>
        <time>2021-05-16T08:01:25Z</time>
      </trkpt>
      <trkpt lat="49.03628" lon="1.30842">
        <ele>-3</ele>
        <time>2021-05-16T08:01:33Z</time>
      </trkpt>
      <trkpt lat="49.03625" lon="1.30838">
        <ele>-3</ele>
        <time>2021-05-16T08:01:34Z</time>
      </trkpt>
      <trkpt lat="49.0361" lon="1.30818">
        <ele>-2</ele>
        <time>2021-05-16T08:01:40Z</time>
      </trkpt>
      <trkpt lat="49.03603" lon="1.30808">
        <ele>-1.3999999761581</ele>
        <time>2021-05-16T08:01:43Z</time>
      </trkpt>
      <trkpt lat="49.03598" lon="1.30801">
        <ele>-0.80000001192093</ele>
        <time>2021-05-16T08:01:45Z</time>
      </trkpt>
      <trkpt lat="49.03589" lon="1.30789">
        <ele>0.20000000298023</ele>
        <time>2021-05-16T08:01:49Z</time>
      </trkpt>
      <trkpt lat="49.03579" lon="1.30776">
        <ele>1.2000000476837</ele>
        <time>2021-05-16T08:01:53Z</time>
      </trkpt>
      <trkpt lat="49.03575" lon="1.3077">
        <ele>1.7999999523163</ele>
        <time>2021-05-16T08:01:55Z</time>
      </trkpt>
      <trkpt lat="49.03568" lon="1.30761">
        <ele>2.4000000953674</ele>
        <time>2021-05-16T08:01:58Z</time>
      </trkpt>
      <trkpt lat="49.03556" lon="1.30743">
        <ele>3.5999999046326</ele>
        <time>2021-05-16T08:02:04Z</time>
      </trkpt>
      <trkpt lat="49.03547" lon="1.3073">
        <ele>4.5999999046326</ele>
        <time>2021-05-16T08:02:08Z</time>
      </trkpt>
      <trkpt lat="49.03545" lon="1.30727">
        <ele>4.8000001907349</ele>
        <time>2021-05-16T08:02:09Z</time>
      </trkpt>
      <trkpt lat="49.03536" lon="1.30712">
        <ele>5.8000001907349</ele>
        <time>2021-05-16T08:02:14Z</time>
      </trkpt>
      <trkpt lat="49.0353" lon="1.30702">
        <ele>6.4000000953674</ele>
        <time>2021-05-16T08:02:17Z</time>
      </trkpt>
      <trkpt lat="49.03525" lon="1.30693">
        <ele>7</ele>
        <time>2021-05-16T08:02:20Z</time>
      </trkpt>
      <trkpt lat="49.03519" lon="1.30684">
        <ele>7.4000000953674</ele>
        <time>2021-05-16T08:02:24Z</time>
      </trkpt>
      <trkpt lat="49.03509" lon="1.3067">
        <ele>8</ele>
        <time>2021-05-16T08:02:30Z</time>
      </trkpt>
      <trkpt lat="49.03508" lon="1.30669">
        <ele>8.1999998092651</ele>
        <time>2021-05-16T08:02:31Z</time>
      </trkpt>
      <trkpt lat="49.03503" lon="1.3066">
        <ele>9</ele>
        <time>2021-05-16T08:02:35Z</time>
      </trkpt>
      <trkpt lat="49.03502" lon="1.30658">
        <ele>9.1999998092651</ele>
        <time>2021-05-16T08:02:36Z</time>
      </trkpt>
      <trkpt lat="49.035" lon="1.30652">
        <ele>9.6000003814697</ele>
        <time>2021-05-16T08:02:38Z</time>
      </trkpt>
      <trkpt lat="49.03498" lon="1.30646">
        <ele>10.39999961853</ele>
        <time>2021-05-16T08:02:40Z</time>
      </trkpt>
      <trkpt lat="49.03495" lon="1.3063">
        <ele>11.60000038147</ele>
        <time>2021-05-16T08:02:45Z</time>
      </trkpt>
      <trkpt lat="49.03493" lon="1.30623">
        <ele>12.60000038147</ele>
        <time>2021-05-16T08:02:49Z</time>
      </trkpt>
      <trkpt lat="49.0349" lon="1.30614">
        <ele>13.60000038147</ele>
        <time>2021-05-16T08:02:53Z</time>
      </trkpt>
      <trkpt lat="49.0349" lon="1.30612">
        <ele>14</ele>
        <time>2021-05-16T08:02:54Z</time>
      </trkpt>
      <trkpt lat="49.03489" lon="1.3061">
        <ele>14.199999809265</ele>
        <time>2021-05-16T08:02:55Z</time>
      </trkpt>
      <trkpt lat="49.03487" lon="1.30606">
        <ele>14.39999961853</ele>
        <time>2021-05-16T08:02:57Z</time>
      </trkpt>
      <trkpt lat="49.03479" lon="1.30598">
        <ele>15.39999961853</ele>
        <time>2021-05-16T08:03:01Z</time>
      </trkpt>
      <trkpt lat="49.03478" lon="1.30596">
        <ele>15.60000038147</ele>
        <time>2021-05-16T08:03:02Z</time>
      </trkpt>
      <trkpt lat="49.03475" lon="1.30591">
        <ele>16.39999961853</ele>
        <time>2021-05-16T08:03:04Z</time>
      </trkpt>
      <trkpt lat="49.03474" lon="1.30589">
        <ele>16.799999237061</ele>
        <time>2021-05-16T08:03:05Z</time>
      </trkpt>
      <trkpt lat="49.03471" lon="1.30585">
        <ele>17.200000762939</ele>
        <time>2021-05-16T08:03:07Z</time>
      </trkpt>
      <trkpt lat="49.03468" lon="1.3058">
        <ele>17.799999237061</ele>
        <time>2021-05-16T08:03:09Z</time>
      </trkpt>
      <trkpt lat="49.03467" lon="1.30579">
        <ele>18.200000762939</ele>
        <time>2021-05-16T08:03:10Z</time>
      </trkpt>
      <trkpt lat="49.03466" lon="1.30575">
        <ele>18.60000038147</ele>
        <time>2021-05-16T08:03:12Z</time>
      </trkpt>
      <trkpt lat="49.03464" lon="1.3057">
        <ele>19.200000762939</ele>
        <time>2021-05-16T08:03:14Z</time>
      </trkpt>
      <trkpt lat="49.03463" lon="1.30567">
        <ele>19.39999961853</ele>
        <time>2021-05-16T08:03:15Z</time>
      </trkpt>
      <trkpt lat="49.03461" lon="1.30561">
        <ele>20.200000762939</ele>
        <time>2021-05-16T08:03:18Z</time>
      </trkpt>
      <trkpt lat="49.03459" lon="1.30557">
        <ele>20.60000038147</ele>
        <time>2021-05-16T08:03:20Z</time>
      </trkpt>
      <trkpt lat="49.03457" lon="1.30553">
        <ele>21.39999961853</ele>
        <time>2021-05-16T08:03:23Z</time>
      </trkpt>
      <trkpt lat="49.03453" lon="1.30546">
        <ele>22.200000762939</ele>
        <time>2021-05-16T08:03:26Z</time>
      </trkpt>
      <trkpt lat="49.03451" lon="1.30543">
        <ele>22.60000038147</ele>
        <time>2021-05-16T08:03:28Z</time>
      </trkpt>
      <trkpt lat="49.03445" lon="1.30533">
        <ele>23.799999237061</ele>
        <time>2021-05-16T08:03:33Z</time>
      </trkpt>
      <trkpt lat="49.03443" lon="1.3053">
        <ele>24.200000762939</ele>
        <time>2021-05-16T08:03:35Z</time>
      </trkpt>
      <trkpt lat="49.03442" lon="1.30526">
        <ele>24.60000038147</ele>
        <time>2021-05-16T08:03:37Z</time>
      </trkpt>
      <trkpt lat="49.03434" lon="1.30515">
        <ele>25.799999237061</ele>
        <time>2021-05-16T08:03:43Z</time>
      </trkpt>
      <trkpt lat="49.03433" lon="1.30513">
        <ele>25.799999237061</ele>
        <time>2021-05-16T08:03:44Z</time>
      </trkpt>
      <trkpt lat="49.03428" lon="1.30504">
        <ele>26.799999237061</ele>
        <time>2021-05-16T08:03:48Z</time>
      </trkpt>
      <trkpt lat="49.03424" lon="1.30493">
        <ele>27.799999237061</ele>
        <time>2021-05-16T08:03:54Z</time>
      </trkpt>
      <trkpt lat="49.03423" lon="1.30492">
        <ele>28</ele>
        <time>2021-05-16T08:03:55Z</time>
      </trkpt>
      <trkpt lat="49.03421" lon="1.30481">
        <ele>29</ele>
        <time>2021-05-16T08:04:01Z</time>
      </trkpt>
      <trkpt lat="49.03418" lon="1.30475">
        <ele>29.60000038147</ele>
        <time>2021-05-16T08:04:04Z</time>
      </trkpt>
      <trkpt lat="49.03415" lon="1.30466">
        <ele>30.200000762939</ele>
        <time>2021-05-16T08:04:07Z</time>
      </trkpt>
      <trkpt lat="49.03407" lon="1.30452">
        <ele>31.39999961853</ele>
        <time>2021-05-16T08:04:12Z</time>
      </trkpt>
      <trkpt lat="49.03406" lon="1.30448">
        <ele>31.60000038147</ele>
        <time>2021-05-16T08:04:14Z</time>
      </trkpt>
      <trkpt lat="49.03404" lon="1.30443">
        <ele>31.799999237061</ele>
        <time>2021-05-16T08:04:16Z</time>
      </trkpt>
      <trkpt lat="49.03398" lon="1.30434">
        <ele>32.400001525879</ele>
        <time>2021-05-16T08:04:20Z</time>
      </trkpt>
      <trkpt lat="49.03396" lon="1.3043">
        <ele>32.799999237061</ele>
        <time>2021-05-16T08:04:22Z</time>
      </trkpt>
      <trkpt lat="49.03392" lon="1.30419">
        <ele>33.599998474121</ele>
        <time>2021-05-16T08:04:27Z</time>
      </trkpt>
      <trkpt lat="49.03391" lon="1.30414">
        <ele>34</ele>
        <time>2021-05-16T08:04:29Z</time>
      </trkpt>
      <trkpt lat="49.03389" lon="1.30405">
        <ele>34.799999237061</ele>
        <time>2021-05-16T08:04:33Z</time>
      </trkpt>
      <trkpt lat="49.03388" lon="1.30402">
        <ele>35</ele>
        <time>2021-05-16T08:04:34Z</time>
      </trkpt>
      <trkpt lat="49.03387" lon="1.30387">
        <ele>35.599998474121</ele>
        <time>2021-05-16T08:04:39Z</time>
      </trkpt>
      <trkpt lat="49.03386" lon="1.30384">
        <ele>35.599998474121</ele>
        <time>2021-05-16T08:04:40Z</time>
      </trkpt>
      <trkpt lat="49.03384" lon="1.30377">
        <ele>36</ele>
        <time>2021-05-16T08:04:42Z</time>
      </trkpt>
      <trkpt lat="49.03383" lon="1.30371">
        <ele>36.200000762939</ele>
        <time>2021-05-16T08:04:44Z</time>
      </trkpt>
      <trkpt lat="49.03383" lon="1.30365">
        <ele>36.599998474121</ele>
        <time>2021-05-16T08:04:46Z</time>
      </trkpt>
      <trkpt lat="49.0338" lon="1.30351">
        <ele>37</ele>
        <time>2021-05-16T08:04:50Z</time>
      </trkpt>
      <trkpt lat="49.03381" lon="1.30345">
        <ele>37.200000762939</ele>
        <time>2021-05-16T08:04:52Z</time>
      </trkpt>
      <trkpt lat="49.03381" lon="1.30332">
        <ele>38</ele>
        <time>2021-05-16T08:04:57Z</time>
      </trkpt>
      <trkpt lat="49.0338" lon="1.30326">
        <ele>38.200000762939</ele>
        <time>2021-05-16T08:04:59Z</time>
      </trkpt>
      <trkpt lat="49.03377" lon="1.30312">
        <ele>38.799999237061</ele>
        <time>2021-05-16T08:05:04Z</time>
      </trkpt>
      <trkpt lat="49.03375" lon="1.30304">
        <ele>39.400001525879</ele>
        <time>2021-05-16T08:05:07Z</time>
      </trkpt>
      <trkpt lat="49.03374" lon="1.30299">
        <ele>39.799999237061</ele>
        <time>2021-05-16T08:05:09Z</time>
      </trkpt>
      <trkpt lat="49.03373" lon="1.30296">
        <ele>40</ele>
        <time>2021-05-16T08:05:10Z</time>
      </trkpt>
      <trkpt lat="49.03369" lon="1.30287">
        <ele>40.599998474121</ele>
        <time>2021-05-16T08:05:14Z</time>
      </trkpt>
      <trkpt lat="49.03367" lon="1.30284">
        <ele>40.799999237061</ele>
        <time>2021-05-16T08:05:15Z</time>
      </trkpt>
      <trkpt lat="49.03366" lon="1.30282">
        <ele>40.799999237061</ele>
        <time>2021-05-16T08:05:16Z</time>
      </trkpt>
      <trkpt lat="49.03361" lon="1.30272">
        <ele>41.799999237061</ele>
        <time>2021-05-16T08:05:21Z</time>
      </trkpt>
      <trkpt lat="49.03359" lon="1.30269">
        <ele>42.200000762939</ele>
        <time>2021-05-16T08:05:23Z</time>
      </trkpt>
      <trkpt lat="49.03355" lon="1.30262">
        <ele>42.799999237061</ele>
        <time>2021-05-16T08:05:26Z</time>
      </trkpt>
      <trkpt lat="49.03352" lon="1.30256">
        <ele>43.400001525879</ele>
        <time>2021-05-16T08:05:29Z</time>
      </trkpt>
      <trkpt lat="49.03349" lon="1.30251">
        <ele>44</ele>
        <time>2021-05-16T08:05:31Z</time>
      </trkpt>
      <trkpt lat="49.03345" lon="1.3024">
        <ele>44.599998474121</ele>
        <time>2021-05-16T08:05:35Z</time>
      </trkpt>
      <trkpt lat="49.03343" lon="1.30235">
        <ele>45</ele>
        <time>2021-05-16T08:05:37Z</time>
      </trkpt>
      <trkpt lat="49.03335" lon="1.30223">
        <ele>45.599998474121</ele>
        <time>2021-05-16T08:05:41Z</time>
      </trkpt>
      <trkpt lat="49.03331" lon="1.30213">
        <ele>46.200000762939</ele>
        <time>2021-05-16T08:05:44Z</time>
      </trkpt>
      <trkpt lat="49.03327" lon="1.30206">
        <ele>46.599998474121</ele>
        <time>2021-05-16T08:05:46Z</time>
      </trkpt>
      <trkpt lat="49.0332" lon="1.30194">
        <ele>47.200000762939</ele>
        <time>2021-05-16T08:05:50Z</time>
      </trkpt>
      <trkpt lat="49.03319" lon="1.3019">
        <ele>47.400001525879</ele>
        <time>2021-05-16T08:05:51Z</time>
      </trkpt>
      <trkpt lat="49.03309" lon="1.3017">
        <ele>48.400001525879</ele>
        <time>2021-05-16T08:05:57Z</time>
      </trkpt>
      <trkpt lat="49.03299" lon="1.30146">
        <ele>49.400001525879</ele>
        <time>2021-05-16T08:06:03Z</time>
      </trkpt>
      <trkpt lat="49.03295" lon="1.30129">
        <ele>50</ele>
        <time>2021-05-16T08:06:08Z</time>
      </trkpt>
      <trkpt lat="49.03292" lon="1.3012">
        <ele>50.400001525879</ele>
        <time>2021-05-16T08:06:11Z</time>
      </trkpt>
      <trkpt lat="49.03288" lon="1.30112">
        <ele>50.799999237061</ele>
        <time>2021-05-16T08:06:14Z</time>
      </trkpt>
      <trkpt lat="49.0328" lon="1.30093">
        <ele>51.400001525879</ele>
        <time>2021-05-16T08:06:20Z</time>
      </trkpt>
      <trkpt lat="49.03269" lon="1.30074">
        <ele>52.400001525879</ele>
        <time>2021-05-16T08:06:25Z</time>
      </trkpt>
      <trkpt lat="49.03265" lon="1.30065">
        <ele>52.799999237061</ele>
        <time>2021-05-16T08:06:27Z</time>
      </trkpt>
      <trkpt lat="49.03259" lon="1.30051">
        <ele>53.400001525879</ele>
        <time>2021-05-16T08:06:31Z</time>
      </trkpt>
      <trkpt lat="49.03249" lon="1.30035">
        <ele>53.799999237061</ele>
        <time>2021-05-16T08:06:36Z</time>
      </trkpt>
      <trkpt lat="49.03247" lon="1.30032">
        <ele>54</ele>
        <time>2021-05-16T08:06:37Z</time>
      </trkpt>
      <trkpt lat="49.03241" lon="1.30026">
        <ele>54.599998474121</ele>
        <time>2021-05-16T08:06:41Z</time>
      </trkpt>
      <trkpt lat="49.0324" lon="1.30025">
        <ele>54.799999237061</ele>
        <time>2021-05-16T08:06:43Z</time>
      </trkpt>
      <trkpt lat="49.03233" lon="1.3002">
        <ele>48.599998474121</ele>
        <time>2021-05-16T08:09:44Z</time>
      </trkpt>
      <trkpt lat="49.03232" lon="1.30025">
        <ele>48.400001525879</ele>
        <time>2021-05-16T08:09:47Z</time>
      </trkpt>
      <trkpt lat="49.03226" lon="1.30037">
        <ele>48</ele>
        <time>2021-05-16T08:09:52Z</time>
      </trkpt>
      <trkpt lat="49.03216" lon="1.30056">
        <ele>48</ele>
        <time>2021-05-16T08:09:57Z</time>
      </trkpt>
      <trkpt lat="49.032" lon="1.30093">
        <ele>48.200000762939</ele>
        <time>2021-05-16T08:10:04Z</time>
      </trkpt>
      <trkpt lat="49.03194" lon="1.30104">
        <ele>48.599998474121</ele>
        <time>2021-05-16T08:10:06Z</time>
      </trkpt>
      <trkpt lat="49.03189" lon="1.30117">
        <ele>48.599998474121</ele>
        <time>2021-05-16T08:10:08Z</time>
      </trkpt>
      <trkpt lat="49.03187" lon="1.30124">
        <ele>48.599998474121</ele>
        <time>2021-05-16T08:10:09Z</time>
      </trkpt>
      <trkpt lat="49.03181" lon="1.30155">
        <ele>49</ele>
        <time>2021-05-16T08:10:13Z</time>
      </trkpt>
      <trkpt lat="49.03182" lon="1.30163">
        <ele>49</ele>
        <time>2021-05-16T08:10:14Z</time>
      </trkpt>
      <trkpt lat="49.0318" lon="1.30201">
        <ele>49.400001525879</ele>
        <time>2021-05-16T08:10:18Z</time>
      </trkpt>
      <trkpt lat="49.03179" lon="1.3022">
        <ele>49.400001525879</ele>
        <time>2021-05-16T08:10:20Z</time>
      </trkpt>
      <trkpt lat="49.03173" lon="1.30261">
        <ele>49.599998474121</ele>
        <time>2021-05-16T08:10:25Z</time>
      </trkpt>
      <trkpt lat="49.03169" lon="1.30306">
        <ele>49.599998474121</ele>
        <time>2021-05-16T08:10:31Z</time>
      </trkpt>
      <trkpt lat="49.03168" lon="1.3034">
        <ele>49.799999237061</ele>
        <time>2021-05-16T08:10:36Z</time>
      </trkpt>
      <trkpt lat="49.03166" lon="1.30378">
        <ele>50.200000762939</ele>
        <time>2021-05-16T08:10:42Z</time>
      </trkpt>
      <trkpt lat="49.03156" lon="1.30402">
        <ele>50.200000762939</ele>
        <time>2021-05-16T08:10:47Z</time>
      </trkpt>
      <trkpt lat="49.0314" lon="1.30424">
        <ele>50.599998474121</ele>
        <time>2021-05-16T08:10:53Z</time>
      </trkpt>
      <trkpt lat="49.03124" lon="1.30445">
        <ele>51.400001525879</ele>
        <time>2021-05-16T08:10:58Z</time>
      </trkpt>
      <trkpt lat="49.03117" lon="1.30452">
        <ele>51.799999237061</ele>
        <time>2021-05-16T08:11:00Z</time>
      </trkpt>
      <trkpt lat="49.03104" lon="1.30466">
        <ele>52.599998474121</ele>
        <time>2021-05-16T08:11:04Z</time>
      </trkpt>
      <trkpt lat="49.03094" lon="1.30478">
        <ele>53</ele>
        <time>2021-05-16T08:11:07Z</time>
      </trkpt>
      <trkpt lat="49.03081" lon="1.30492">
        <ele>53.599998474121</ele>
        <time>2021-05-16T08:11:11Z</time>
      </trkpt>
      <trkpt lat="49.03077" lon="1.30495">
        <ele>53.799999237061</ele>
        <time>2021-05-16T08:11:12Z</time>
      </trkpt>
      <trkpt lat="49.03062" lon="1.30513">
        <ele>54.400001525879</ele>
        <time>2021-05-16T08:11:17Z</time>
      </trkpt>
      <trkpt lat="49.03054" lon="1.3052">
        <ele>54.799999237061</ele>
        <time>2021-05-16T08:11:19Z</time>
      </trkpt>
      <trkpt lat="49.03041" lon="1.30535">
        <ele>55</ele>
        <time>2021-05-16T08:11:23Z</time>
      </trkpt>
      <trkpt lat="49.03034" lon="1.30545">
        <ele>55.400001525879</ele>
        <time>2021-05-16T08:11:25Z</time>
      </trkpt>
      <trkpt lat="49.03026" lon="1.30557">
        <ele>55.599998474121</ele>
        <time>2021-05-16T08:11:27Z</time>
      </trkpt>
      <trkpt lat="49.03023" lon="1.30564">
        <ele>55.599998474121</ele>
        <time>2021-05-16T08:11:28Z</time>
      </trkpt>
      <trkpt lat="49.03002" lon="1.30605">
        <ele>56</ele>
        <time>2021-05-16T08:11:35Z</time>
      </trkpt>
      <trkpt lat="49.02993" lon="1.30634">
        <ele>56.599998474121</ele>
        <time>2021-05-16T08:11:39Z</time>
      </trkpt>
      <trkpt lat="49.02988" lon="1.30647">
        <ele>56.799999237061</ele>
        <time>2021-05-16T08:11:41Z</time>
      </trkpt>
      <trkpt lat="49.02985" lon="1.30653">
        <ele>56.799999237061</ele>
        <time>2021-05-16T08:11:42Z</time>
      </trkpt>
      <trkpt lat="49.0297" lon="1.30686">
        <ele>57</ele>
        <time>2021-05-16T08:11:48Z</time>
      </trkpt>
      <trkpt lat="49.02954" lon="1.30722">
        <ele>57.400001525879</ele>
        <time>2021-05-16T08:11:54Z</time>
      </trkpt>
      <trkpt lat="49.02941" lon="1.30755">
        <ele>57.799999237061</ele>
        <time>2021-05-16T08:11:59Z</time>
      </trkpt>
      <trkpt lat="49.02938" lon="1.3076">
        <ele>57.799999237061</ele>
        <time>2021-05-16T08:12:00Z</time>
      </trkpt>
      <trkpt lat="49.02921" lon="1.30799">
        <ele>58.400001525879</ele>
        <time>2021-05-16T08:12:07Z</time>
      </trkpt>
      <trkpt lat="49.02909" lon="1.30825">
        <ele>58.799999237061</ele>
        <time>2021-05-16T08:12:12Z</time>
      </trkpt>
      <trkpt lat="49.02911" lon="1.30848">
        <ele>59.200000762939</ele>
        <time>2021-05-16T08:12:16Z</time>
      </trkpt>
      <trkpt lat="49.02921" lon="1.3086">
        <ele>59.599998474121</ele>
        <time>2021-05-16T08:12:20Z</time>
      </trkpt>
      <trkpt lat="49.02926" lon="1.30867">
        <ele>59.799999237061</ele>
        <time>2021-05-16T08:12:22Z</time>
      </trkpt>
      <trkpt lat="49.02928" lon="1.3087">
        <ele>59.799999237061</ele>
        <time>2021-05-16T08:12:23Z</time>
      </trkpt>
      <trkpt lat="49.02931" lon="1.30877">
        <ele>60</ele>
        <time>2021-05-16T08:12:25Z</time>
      </trkpt>
      <trkpt lat="49.02931" lon="1.30881">
        <ele>60.400001525879</ele>
        <time>2021-05-16T08:12:28Z</time>
      </trkpt>
      <trkpt lat="49.0293" lon="1.30886">
        <ele>60.400001525879</ele>
        <time>2021-05-16T08:12:31Z</time>
      </trkpt>
      <trkpt lat="49.02932" lon="1.30905">
        <ele>60.599998474121</ele>
        <time>2021-05-16T08:12:36Z</time>
      </trkpt>
      <trkpt lat="49.02937" lon="1.30943">
        <ele>60.599998474121</ele>
        <time>2021-05-16T08:12:42Z</time>
      </trkpt>
      <trkpt lat="49.02939" lon="1.30976">
        <ele>60.799999237061</ele>
        <time>2021-05-16T08:12:47Z</time>
      </trkpt>
      <trkpt lat="49.0294" lon="1.30983">
        <ele>60.799999237061</ele>
        <time>2021-05-16T08:12:48Z</time>
      </trkpt>
      <trkpt lat="49.02942" lon="1.31004">
        <ele>60.599998474121</ele>
        <time>2021-05-16T08:12:51Z</time>
      </trkpt>
      <trkpt lat="49.02944" lon="1.31018">
        <ele>60.599998474121</ele>
        <time>2021-05-16T08:12:53Z</time>
      </trkpt>
      <trkpt lat="49.02945" lon="1.31026">
        <ele>60.599998474121</ele>
        <time>2021-05-16T08:12:54Z</time>
      </trkpt>
      <trkpt lat="49.02946" lon="1.31033">
        <ele>60.599998474121</ele>
        <time>2021-05-16T08:12:55Z</time>
      </trkpt>
      <trkpt lat="49.02953" lon="1.31052">
        <ele>60.799999237061</ele>
        <time>2021-05-16T08:12:58Z</time>
      </trkpt>
      <trkpt lat="49.02961" lon="1.31068">
        <ele>61</ele>
        <time>2021-05-16T08:13:01Z</time>
      </trkpt>
      <trkpt lat="49.02973" lon="1.31091">
        <ele>61.200000762939</ele>
        <time>2021-05-16T08:13:05Z</time>
      </trkpt>
      <trkpt lat="49.02993" lon="1.31132">
        <ele>61.599998474121</ele>
        <time>2021-05-16T08:13:12Z</time>
      </trkpt>
      <trkpt lat="49.03007" lon="1.31158">
        <ele>61.799999237061</ele>
        <time>2021-05-16T08:13:16Z</time>
      </trkpt>
      <trkpt lat="49.03015" lon="1.31173">
        <ele>61.799999237061</ele>
        <time>2021-05-16T08:13:18Z</time>
      </trkpt>
      <trkpt lat="49.03041" lon="1.31226">
        <ele>62.200000762939</ele>
        <time>2021-05-16T08:13:25Z</time>
      </trkpt>
      <trkpt lat="49.0306" lon="1.31266">
        <ele>62.200000762939</ele>
        <time>2021-05-16T08:13:30Z</time>
      </trkpt>
      <trkpt lat="49.03079" lon="1.31299">
        <ele>62.200000762939</ele>
        <time>2021-05-16T08:13:35Z</time>
      </trkpt>
      <trkpt lat="49.03105" lon="1.31346">
        <ele>62.400001525879</ele>
        <time>2021-05-16T08:13:41Z</time>
      </trkpt>
      <trkpt lat="49.03138" lon="1.3139">
        <ele>62.400001525879</ele>
        <time>2021-05-16T08:13:47Z</time>
      </trkpt>
      <trkpt lat="49.03142" lon="1.31398">
        <ele>62.400001525879</ele>
        <time>2021-05-16T08:13:48Z</time>
      </trkpt>
      <trkpt lat="49.03163" lon="1.31435">
        <ele>62.599998474121</ele>
        <time>2021-05-16T08:13:53Z</time>
      </trkpt>
      <trkpt lat="49.03167" lon="1.31442">
        <ele>62.599998474121</ele>
        <time>2021-05-16T08:13:54Z</time>
      </trkpt>
      <trkpt lat="49.0318" lon="1.31472">
        <ele>62.599998474121</ele>
        <time>2021-05-16T08:13:58Z</time>
      </trkpt>
      <trkpt lat="49.03184" lon="1.31479">
        <ele>62.599998474121</ele>
        <time>2021-05-16T08:13:59Z</time>
      </trkpt>
      <trkpt lat="49.03187" lon="1.31486">
        <ele>62.799999237061</ele>
        <time>2021-05-16T08:14:00Z</time>
      </trkpt>
      <trkpt lat="49.032" lon="1.31518">
        <ele>63</ele>
        <time>2021-05-16T08:14:04Z</time>
      </trkpt>
      <trkpt lat="49.03222" lon="1.31564">
        <ele>63.799999237061</ele>
        <time>2021-05-16T08:14:10Z</time>
      </trkpt>
      <trkpt lat="49.03231" lon="1.31582">
        <ele>64.199996948242</ele>
        <time>2021-05-16T08:14:13Z</time>
      </trkpt>
      <trkpt lat="49.03234" lon="1.31589">
        <ele>64.199996948242</ele>
        <time>2021-05-16T08:14:14Z</time>
      </trkpt>
      <trkpt lat="49.03237" lon="1.31596">
        <ele>64.199996948242</ele>
        <time>2021-05-16T08:14:15Z</time>
      </trkpt>
      <trkpt lat="49.03242" lon="1.31602">
        <ele>64.400001525879</ele>
        <time>2021-05-16T08:14:16Z</time>
      </trkpt>
      <trkpt lat="49.03259" lon="1.31637">
        <ele>64.800003051758</ele>
        <time>2021-05-16T08:14:21Z</time>
      </trkpt>
      <trkpt lat="49.03262" lon="1.31643">
        <ele>64.800003051758</ele>
        <time>2021-05-16T08:14:22Z</time>
      </trkpt>
      <trkpt lat="49.03276" lon="1.31684">
        <ele>65.400001525879</ele>
        <time>2021-05-16T08:14:28Z</time>
      </trkpt>
      <trkpt lat="49.03278" lon="1.3169">
        <ele>65.400001525879</ele>
        <time>2021-05-16T08:14:29Z</time>
      </trkpt>
      <trkpt lat="49.03284" lon="1.31715">
        <ele>65.599998474121</ele>
        <time>2021-05-16T08:14:32Z</time>
      </trkpt>
      <trkpt lat="49.03299" lon="1.31761">
        <ele>65.800003051758</ele>
        <time>2021-05-16T08:14:38Z</time>
      </trkpt>
      <trkpt lat="49.03319" lon="1.31811">
        <ele>66</ele>
        <time>2021-05-16T08:14:46Z</time>
      </trkpt>
      <trkpt lat="49.03336" lon="1.31843">
        <ele>65.800003051758</ele>
        <time>2021-05-16T08:14:52Z</time>
      </trkpt>
      <trkpt lat="49.0334" lon="1.31846">
        <ele>66</ele>
        <time>2021-05-16T08:14:53Z</time>
      </trkpt>
      <trkpt lat="49.03349" lon="1.31853">
        <ele>65.800003051758</ele>
        <time>2021-05-16T08:14:57Z</time>
      </trkpt>
      <trkpt lat="49.03351" lon="1.31855">
        <ele>65.599998474121</ele>
        <time>2021-05-16T08:14:59Z</time>
      </trkpt>
      <trkpt lat="49.03355" lon="1.31862">
        <ele>65.199996948242</ele>
        <time>2021-05-16T08:15:02Z</time>
      </trkpt>
      <trkpt lat="49.03364" lon="1.31874">
        <ele>65.199996948242</ele>
        <time>2021-05-16T08:15:07Z</time>
      </trkpt>
      <trkpt lat="49.03369" lon="1.31882">
        <ele>65</ele>
        <time>2021-05-16T08:15:09Z</time>
      </trkpt>
      <trkpt lat="49.0338" lon="1.31897">
        <ele>64.800003051758</ele>
        <time>2021-05-16T08:15:12Z</time>
      </trkpt>
      <trkpt lat="49.03404" lon="1.31931">
        <ele>64.199996948242</ele>
        <time>2021-05-16T08:15:17Z</time>
      </trkpt>
      <trkpt lat="49.03427" lon="1.31961">
        <ele>64.199996948242</ele>
        <time>2021-05-16T08:15:21Z</time>
      </trkpt>
      <trkpt lat="49.03432" lon="1.3197">
        <ele>64</ele>
        <time>2021-05-16T08:15:22Z</time>
      </trkpt>
      <trkpt lat="49.03437" lon="1.3198">
        <ele>63.799999237061</ele>
        <time>2021-05-16T08:15:23Z</time>
      </trkpt>
      <trkpt lat="49.03447" lon="1.32017">
        <ele>63.799999237061</ele>
        <time>2021-05-16T08:15:27Z</time>
      </trkpt>
      <trkpt lat="49.03454" lon="1.32052">
        <ele>63.400001525879</ele>
        <time>2021-05-16T08:15:31Z</time>
      </trkpt>
      <trkpt lat="49.03455" lon="1.32061">
        <ele>63.400001525879</ele>
        <time>2021-05-16T08:15:32Z</time>
      </trkpt>
      <trkpt lat="49.03457" lon="1.3207">
        <ele>63.200000762939</ele>
        <time>2021-05-16T08:15:33Z</time>
      </trkpt>
      <trkpt lat="49.0346" lon="1.3212">
        <ele>62.799999237061</ele>
        <time>2021-05-16T08:15:38Z</time>
      </trkpt>
      <trkpt lat="49.03461" lon="1.32174">
        <ele>62.400001525879</ele>
        <time>2021-05-16T08:15:43Z</time>
      </trkpt>
      <trkpt lat="49.03459" lon="1.32241">
        <ele>61.799999237061</ele>
        <time>2021-05-16T08:15:49Z</time>
      </trkpt>
      <trkpt lat="49.03459" lon="1.32251">
        <ele>61.599998474121</ele>
        <time>2021-05-16T08:15:50Z</time>
      </trkpt>
      <trkpt lat="49.0346" lon="1.32295">
        <ele>60.599998474121</ele>
        <time>2021-05-16T08:15:54Z</time>
      </trkpt>
      <trkpt lat="49.0346" lon="1.32306">
        <ele>60.400001525879</ele>
        <time>2021-05-16T08:15:55Z</time>
      </trkpt>
      <trkpt lat="49.03464" lon="1.32342">
        <ele>59.400001525879</ele>
        <time>2021-05-16T08:15:58Z</time>
      </trkpt>
      <trkpt lat="49.03465" lon="1.32356">
        <ele>59</ele>
        <time>2021-05-16T08:15:59Z</time>
      </trkpt>
      <trkpt lat="49.03465" lon="1.32369">
        <ele>59</ele>
        <time>2021-05-16T08:16:00Z</time>
      </trkpt>
      <trkpt lat="49.03465" lon="1.32382">
        <ele>58.599998474121</ele>
        <time>2021-05-16T08:16:01Z</time>
      </trkpt>
      <trkpt lat="49.03461" lon="1.32422">
        <ele>57.400001525879</ele>
        <time>2021-05-16T08:16:04Z</time>
      </trkpt>
      <trkpt lat="49.0346" lon="1.32436">
        <ele>57.200000762939</ele>
        <time>2021-05-16T08:16:05Z</time>
      </trkpt>
      <trkpt lat="49.0346" lon="1.32465">
        <ele>56.400001525879</ele>
        <time>2021-05-16T08:16:07Z</time>
      </trkpt>
      <trkpt lat="49.0346" lon="1.32478">
        <ele>55.799999237061</ele>
        <time>2021-05-16T08:16:08Z</time>
      </trkpt>
      <trkpt lat="49.03461" lon="1.3249">
        <ele>55.200000762939</ele>
        <time>2021-05-16T08:16:09Z</time>
      </trkpt>
      <trkpt lat="49.03463" lon="1.3251">
        <ele>54</ele>
        <time>2021-05-16T08:16:11Z</time>
      </trkpt>
      <trkpt lat="49.03465" lon="1.32518">
        <ele>53.599998474121</ele>
        <time>2021-05-16T08:16:12Z</time>
      </trkpt>
      <trkpt lat="49.03466" lon="1.32525">
        <ele>53</ele>
        <time>2021-05-16T08:16:13Z</time>
      </trkpt>
      <trkpt lat="49.0347" lon="1.32547">
        <ele>51.599998474121</ele>
        <time>2021-05-16T08:16:16Z</time>
      </trkpt>
      <trkpt lat="49.03474" lon="1.32562">
        <ele>50.799999237061</ele>
        <time>2021-05-16T08:16:18Z</time>
      </trkpt>
      <trkpt lat="49.03475" lon="1.32569">
        <ele>49.799999237061</ele>
        <time>2021-05-16T08:16:19Z</time>
      </trkpt>
      <trkpt lat="49.03478" lon="1.32582">
        <ele>48.400001525879</ele>
        <time>2021-05-16T08:16:22Z</time>
      </trkpt>
      <trkpt lat="49.0348" lon="1.32591">
        <ele>47</ele>
        <time>2021-05-16T08:16:25Z</time>
      </trkpt>
      <trkpt lat="49.03482" lon="1.32596">
        <ele>46</ele>
        <time>2021-05-16T08:16:27Z</time>
      </trkpt>
      <trkpt lat="49.03482" lon="1.32598">
        <ele>45.599998474121</ele>
        <time>2021-05-16T08:16:28Z</time>
      </trkpt>
      <trkpt lat="49.03483" lon="1.326">
        <ele>44.599998474121</ele>
        <time>2021-05-16T08:16:30Z</time>
      </trkpt>
      <trkpt lat="49.03483" lon="1.326">
        <ele>44</ele>
        <time>2021-05-16T08:16:31Z</time>
      </trkpt>
      <trkpt lat="49.03484" lon="1.32601">
        <ele>42.799999237061</ele>
        <time>2021-05-16T08:16:34Z</time>
      </trkpt>
      <trkpt lat="49.03487" lon="1.32606">
        <ele>42</ele>
        <time>2021-05-16T08:16:37Z</time>
      </trkpt>
      <trkpt lat="49.03489" lon="1.3261">
        <ele>41.400001525879</ele>
        <time>2021-05-16T08:16:39Z</time>
      </trkpt>
      <trkpt lat="49.0349" lon="1.32612">
        <ele>41</ele>
        <time>2021-05-16T08:16:40Z</time>
      </trkpt>
      <trkpt lat="49.0349" lon="1.32613">
        <ele>41</ele>
        <time>2021-05-16T08:16:41Z</time>
      </trkpt>
      <trkpt lat="49.03491" lon="1.32615">
        <ele>39.799999237061</ele>
        <time>2021-05-16T08:16:44Z</time>
      </trkpt>
      <trkpt lat="49.03492" lon="1.32616">
        <ele>35.400001525879</ele>
        <time>2021-05-16T08:17:01Z</time>
      </trkpt>
      <trkpt lat="49.03499" lon="1.32627">
        <ele>35</ele>
        <time>2021-05-16T08:17:05Z</time>
      </trkpt>
      <trkpt lat="49.03507" lon="1.32642">
        <ele>34.599998474121</ele>
        <time>2021-05-16T08:17:08Z</time>
      </trkpt>
      <trkpt lat="49.03513" lon="1.32653">
        <ele>34.599998474121</ele>
        <time>2021-05-16T08:17:10Z</time>
      </trkpt>
      <trkpt lat="49.03528" lon="1.3268">
        <ele>33.599998474121</ele>
        <time>2021-05-16T08:17:15Z</time>
      </trkpt>
      <trkpt lat="49.03551" lon="1.32718">
        <ele>32.799999237061</ele>
        <time>2021-05-16T08:17:22Z</time>
      </trkpt>
      <trkpt lat="49.03554" lon="1.32723">
        <ele>32.799999237061</ele>
        <time>2021-05-16T08:17:23Z</time>
      </trkpt>
      <trkpt lat="49.03565" lon="1.32745">
        <ele>33</ele>
        <time>2021-05-16T08:17:27Z</time>
      </trkpt>
      <trkpt lat="49.03565" lon="1.32751">
        <ele>32.799999237061</ele>
        <time>2021-05-16T08:17:28Z</time>
      </trkpt>
      <trkpt lat="49.03559" lon="1.32767">
        <ele>33</ele>
        <time>2021-05-16T08:17:32Z</time>
      </trkpt>
      <trkpt lat="49.03547" lon="1.32798">
        <ele>32.799999237061</ele>
        <time>2021-05-16T08:17:38Z</time>
      </trkpt>
      <trkpt lat="49.03544" lon="1.32811">
        <ele>32.799999237061</ele>
        <time>2021-05-16T08:17:40Z</time>
      </trkpt>
      <trkpt lat="49.03539" lon="1.32831">
        <ele>33</ele>
        <time>2021-05-16T08:17:43Z</time>
      </trkpt>
      <trkpt lat="49.03529" lon="1.32878">
        <ele>33.200000762939</ele>
        <time>2021-05-16T08:17:50Z</time>
      </trkpt>
      <trkpt lat="49.03524" lon="1.32909">
        <ele>33</ele>
        <time>2021-05-16T08:17:56Z</time>
      </trkpt>
      <trkpt lat="49.03523" lon="1.32915">
        <ele>32.799999237061</ele>
        <time>2021-05-16T08:17:57Z</time>
      </trkpt>
      <trkpt lat="49.03521" lon="1.32921">
        <ele>32.599998474121</ele>
        <time>2021-05-16T08:17:58Z</time>
      </trkpt>
      <trkpt lat="49.03513" lon="1.32947">
        <ele>32</ele>
        <time>2021-05-16T08:18:02Z</time>
      </trkpt>
      <trkpt lat="49.03511" lon="1.32954">
        <ele>31.60000038147</ele>
        <time>2021-05-16T08:18:03Z</time>
      </trkpt>
      <trkpt lat="49.03504" lon="1.32975">
        <ele>30.60000038147</ele>
        <time>2021-05-16T08:18:06Z</time>
      </trkpt>
      <trkpt lat="49.03497" lon="1.32995">
        <ele>29.39999961853</ele>
        <time>2021-05-16T08:18:09Z</time>
      </trkpt>
      <trkpt lat="49.03492" lon="1.33008">
        <ele>28.60000038147</ele>
        <time>2021-05-16T08:18:11Z</time>
      </trkpt>
      <trkpt lat="49.0349" lon="1.33015">
        <ele>28.200000762939</ele>
        <time>2021-05-16T08:18:12Z</time>
      </trkpt>
      <trkpt lat="49.03485" lon="1.33028">
        <ele>27.200000762939</ele>
        <time>2021-05-16T08:18:14Z</time>
      </trkpt>
      <trkpt lat="49.03476" lon="1.33046">
        <ele>26.200000762939</ele>
        <time>2021-05-16T08:18:17Z</time>
      </trkpt>
      <trkpt lat="49.0347" lon="1.33059">
        <ele>25.200000762939</ele>
        <time>2021-05-16T08:18:19Z</time>
      </trkpt>
      <trkpt lat="49.03468" lon="1.33065">
        <ele>24.799999237061</ele>
        <time>2021-05-16T08:18:20Z</time>
      </trkpt>
      <trkpt lat="49.03459" lon="1.33084">
        <ele>23.799999237061</ele>
        <time>2021-05-16T08:18:23Z</time>
      </trkpt>
      <trkpt lat="49.0345" lon="1.33103">
        <ele>22.60000038147</ele>
        <time>2021-05-16T08:18:26Z</time>
      </trkpt>
      <trkpt lat="49.03445" lon="1.33116">
        <ele>21.60000038147</ele>
        <time>2021-05-16T08:18:28Z</time>
      </trkpt>
      <trkpt lat="49.03436" lon="1.33136">
        <ele>20.200000762939</ele>
        <time>2021-05-16T08:18:31Z</time>
      </trkpt>
      <trkpt lat="49.0343" lon="1.3315">
        <ele>19.200000762939</ele>
        <time>2021-05-16T08:18:33Z</time>
      </trkpt>
      <trkpt lat="49.03421" lon="1.33171">
        <ele>18.39999961853</ele>
        <time>2021-05-16T08:18:36Z</time>
      </trkpt>
      <trkpt lat="49.03409" lon="1.33199">
        <ele>17.200000762939</ele>
        <time>2021-05-16T08:18:40Z</time>
      </trkpt>
      <trkpt lat="49.03407" lon="1.33206">
        <ele>16.39999961853</ele>
        <time>2021-05-16T08:18:41Z</time>
      </trkpt>
      <trkpt lat="49.03404" lon="1.33213">
        <ele>16.200000762939</ele>
        <time>2021-05-16T08:18:42Z</time>
      </trkpt>
      <trkpt lat="49.03396" lon="1.33234">
        <ele>15.199999809265</ele>
        <time>2021-05-16T08:18:45Z</time>
      </trkpt>
      <trkpt lat="49.03387" lon="1.33255">
        <ele>13.800000190735</ele>
        <time>2021-05-16T08:18:48Z</time>
      </trkpt>
      <trkpt lat="49.03384" lon="1.33262">
        <ele>13.60000038147</ele>
        <time>2021-05-16T08:18:49Z</time>
      </trkpt>
      <trkpt lat="49.03376" lon="1.33284">
        <ele>12.60000038147</ele>
        <time>2021-05-16T08:18:52Z</time>
      </trkpt>
      <trkpt lat="49.03368" lon="1.33306">
        <ele>11.60000038147</ele>
        <time>2021-05-16T08:18:55Z</time>
      </trkpt>
      <trkpt lat="49.03357" lon="1.33334">
        <ele>10.39999961853</ele>
        <time>2021-05-16T08:18:59Z</time>
      </trkpt>
      <trkpt lat="49.03352" lon="1.33348">
        <ele>9.8000001907349</ele>
        <time>2021-05-16T08:19:01Z</time>
      </trkpt>
      <trkpt lat="49.03347" lon="1.33362">
        <ele>9.1999998092651</ele>
        <time>2021-05-16T08:19:03Z</time>
      </trkpt>
      <trkpt lat="49.0334" lon="1.33383">
        <ele>8.1999998092651</ele>
        <time>2021-05-16T08:19:06Z</time>
      </trkpt>
      <trkpt lat="49.03333" lon="1.33403">
        <ele>7.1999998092651</ele>
        <time>2021-05-16T08:19:09Z</time>
      </trkpt>
      <trkpt lat="49.03328" lon="1.33416">
        <ele>6</ele>
        <time>2021-05-16T08:19:11Z</time>
      </trkpt>
      <trkpt lat="49.03316" lon="1.33448">
        <ele>4.8000001907349</ele>
        <time>2021-05-16T08:19:16Z</time>
      </trkpt>
      <trkpt lat="49.03304" lon="1.33471">
        <ele>3.5999999046326</ele>
        <time>2021-05-16T08:19:20Z</time>
      </trkpt>
      <trkpt lat="49.0329" lon="1.33497">
        <ele>2.5999999046326</ele>
        <time>2021-05-16T08:19:25Z</time>
      </trkpt>
      <trkpt lat="49.03284" lon="1.33507">
        <ele>2.2000000476837</ele>
        <time>2021-05-16T08:19:27Z</time>
      </trkpt>
      <trkpt lat="49.03281" lon="1.33512">
        <ele>2</ele>
        <time>2021-05-16T08:19:28Z</time>
      </trkpt>
      <trkpt lat="49.03276" lon="1.33522">
        <ele>1.6000000238419</ele>
        <time>2021-05-16T08:19:30Z</time>
      </trkpt>
      <trkpt lat="49.03259" lon="1.33552">
        <ele>0.40000000596046</ele>
        <time>2021-05-16T08:19:36Z</time>
      </trkpt>
      <trkpt lat="49.03251" lon="1.33566">
        <ele>-0.20000000298023</ele>
        <time>2021-05-16T08:19:39Z</time>
      </trkpt>
      <trkpt lat="49.03248" lon="1.33571">
        <ele>-0.40000000596046</ele>
        <time>2021-05-16T08:19:40Z</time>
      </trkpt>
      <trkpt lat="49.03238" lon="1.33591">
        <ele>-1.6000000238419</ele>
        <time>2021-05-16T08:19:44Z</time>
      </trkpt>
      <trkpt lat="49.03226" lon="1.33617">
        <ele>-2.7999999523163</ele>
        <time>2021-05-16T08:19:49Z</time>
      </trkpt>
      <trkpt lat="49.03221" lon="1.33626">
        <ele>-3.2000000476837</ele>
        <time>2021-05-16T08:19:51Z</time>
      </trkpt>
      <trkpt lat="49.03214" lon="1.33641">
        <ele>-4</ele>
        <time>2021-05-16T08:19:54Z</time>
      </trkpt>
      <trkpt lat="49.03207" lon="1.33662">
        <ele>-5</ele>
        <time>2021-05-16T08:19:58Z</time>
      </trkpt>
      <trkpt lat="49.03204" lon="1.33667">
        <ele>-5.1999998092651</ele>
        <time>2021-05-16T08:19:59Z</time>
      </trkpt>
      <trkpt lat="49.03196" lon="1.33688">
        <ele>-6.1999998092651</ele>
        <time>2021-05-16T08:20:03Z</time>
      </trkpt>
      <trkpt lat="49.03188" lon="1.33708">
        <ele>-7.5999999046326</ele>
        <time>2021-05-16T08:20:07Z</time>
      </trkpt>
      <trkpt lat="49.03183" lon="1.33718">
        <ele>-8.3999996185303</ele>
        <time>2021-05-16T08:20:09Z</time>
      </trkpt>
      <trkpt lat="49.03181" lon="1.33723">
        <ele>-8.8000001907349</ele>
        <time>2021-05-16T08:20:10Z</time>
      </trkpt>
      <trkpt lat="49.03173" lon="1.33743">
        <ele>-9.8000001907349</ele>
        <time>2021-05-16T08:20:14Z</time>
      </trkpt>
      <trkpt lat="49.03164" lon="1.33764">
        <ele>-10.60000038147</ele>
        <time>2021-05-16T08:20:18Z</time>
      </trkpt>
      <trkpt lat="49.03162" lon="1.33769">
        <ele>-10.800000190735</ele>
        <time>2021-05-16T08:20:19Z</time>
      </trkpt>
      <trkpt lat="49.03148" lon="1.338">
        <ele>-11.800000190735</ele>
        <time>2021-05-16T08:20:25Z</time>
      </trkpt>
      <trkpt lat="49.0314" lon="1.33816">
        <ele>-12.39999961853</ele>
        <time>2021-05-16T08:20:28Z</time>
      </trkpt>
      <trkpt lat="49.03133" lon="1.33832">
        <ele>-13</ele>
        <time>2021-05-16T08:20:31Z</time>
      </trkpt>
      <trkpt lat="49.03117" lon="1.33866">
        <ele>-14</ele>
        <time>2021-05-16T08:20:37Z</time>
      </trkpt>
      <trkpt lat="49.03115" lon="1.33871">
        <ele>-14.199999809265</ele>
        <time>2021-05-16T08:20:38Z</time>
      </trkpt>
      <trkpt lat="49.03105" lon="1.33894">
        <ele>-15.199999809265</ele>
        <time>2021-05-16T08:20:42Z</time>
      </trkpt>
      <trkpt lat="49.03095" lon="1.33923">
        <ele>-16.200000762939</ele>
        <time>2021-05-16T08:20:47Z</time>
      </trkpt>
      <trkpt lat="49.03082" lon="1.33966">
        <ele>-17</ele>
        <time>2021-05-16T08:20:54Z</time>
      </trkpt>
      <trkpt lat="49.03079" lon="1.33973">
        <ele>-17</ele>
        <time>2021-05-16T08:20:55Z</time>
      </trkpt>
      <trkpt lat="49.03072" lon="1.33991">
        <ele>-17.39999961853</ele>
        <time>2021-05-16T08:20:58Z</time>
      </trkpt>
      <trkpt lat="49.03069" lon="1.33997">
        <ele>-17.39999961853</ele>
        <time>2021-05-16T08:20:59Z</time>
      </trkpt>
      <trkpt lat="49.03058" lon="1.3402">
        <ele>-18</ele>
        <time>2021-05-16T08:21:03Z</time>
      </trkpt>
      <trkpt lat="49.0305" lon="1.34036">
        <ele>-18.200000762939</ele>
        <time>2021-05-16T08:21:06Z</time>
      </trkpt>
      <trkpt lat="49.03028" lon="1.3408">
        <ele>-17.799999237061</ele>
        <time>2021-05-16T08:21:15Z</time>
      </trkpt>
      <trkpt lat="49.03019" lon="1.34098">
        <ele>-17.200000762939</ele>
        <time>2021-05-16T08:21:20Z</time>
      </trkpt>
      <trkpt lat="49.03018" lon="1.34106">
        <ele>-16.60000038147</ele>
        <time>2021-05-16T08:21:24Z</time>
      </trkpt>
      <trkpt lat="49.03018" lon="1.34108">
        <ele>-16.39999961853</ele>
        <time>2021-05-16T08:21:25Z</time>
      </trkpt>
      <trkpt lat="49.03027" lon="1.34116">
        <ele>-15.39999961853</ele>
        <time>2021-05-16T08:21:29Z</time>
      </trkpt>
      <trkpt lat="49.0303" lon="1.34119">
        <ele>-15.199999809265</ele>
        <time>2021-05-16T08:21:30Z</time>
      </trkpt>
      <trkpt lat="49.03043" lon="1.34132">
        <ele>-14.39999961853</ele>
        <time>2021-05-16T08:21:34Z</time>
      </trkpt>
      <trkpt lat="49.0305" lon="1.3414">
        <ele>-14</ele>
        <time>2021-05-16T08:21:36Z</time>
      </trkpt>
      <trkpt lat="49.03053" lon="1.34144">
        <ele>-14</ele>
        <time>2021-05-16T08:21:37Z</time>
      </trkpt>
      <trkpt lat="49.03065" lon="1.34154">
        <ele>-13.199999809265</ele>
        <time>2021-05-16T08:21:40Z</time>
      </trkpt>
      <trkpt lat="49.03076" lon="1.34164">
        <ele>-12.60000038147</ele>
        <time>2021-05-16T08:21:43Z</time>
      </trkpt>
      <trkpt lat="49.03083" lon="1.34172">
        <ele>-12</ele>
        <time>2021-05-16T08:21:45Z</time>
      </trkpt>
      <trkpt lat="49.03102" lon="1.3419">
        <ele>-10.800000190735</ele>
        <time>2021-05-16T08:21:50Z</time>
      </trkpt>
      <trkpt lat="49.03112" lon="1.34202">
        <ele>-10</ele>
        <time>2021-05-16T08:21:53Z</time>
      </trkpt>
      <trkpt lat="49.03115" lon="1.34205">
        <ele>-9.8000001907349</ele>
        <time>2021-05-16T08:21:54Z</time>
      </trkpt>
      <trkpt lat="49.03127" lon="1.3422">
        <ele>-8.8000001907349</ele>
        <time>2021-05-16T08:21:58Z</time>
      </trkpt>
      <trkpt lat="49.03129" lon="1.34223">
        <ele>-8.6000003814697</ele>
        <time>2021-05-16T08:21:59Z</time>
      </trkpt>
      <trkpt lat="49.03128" lon="1.3423">
        <ele>-7.5999999046326</ele>
        <time>2021-05-16T08:22:02Z</time>
      </trkpt>
      <trkpt lat="49.03126" lon="1.34232">
        <ele>-7.1999998092651</ele>
        <time>2021-05-16T08:22:03Z</time>
      </trkpt>
      <trkpt lat="49.03121" lon="1.34236">
        <ele>-6.4000000953674</ele>
        <time>2021-05-16T08:22:05Z</time>
      </trkpt>
      <trkpt lat="49.03117" lon="1.34238">
        <ele>-5.8000001907349</ele>
        <time>2021-05-16T08:22:07Z</time>
      </trkpt>
      <trkpt lat="49.03114" lon="1.34242">
        <ele>-5.1999998092651</ele>
        <time>2021-05-16T08:22:09Z</time>
      </trkpt>
      <trkpt lat="49.03109" lon="1.34246">
        <ele>-4.4000000953674</ele>
        <time>2021-05-16T08:22:13Z</time>
      </trkpt>
      <trkpt lat="49.03108" lon="1.34248">
        <ele>-4</ele>
        <time>2021-05-16T08:22:15Z</time>
      </trkpt>
      <trkpt lat="49.03107" lon="1.3425">
        <ele>-3.5999999046326</ele>
        <time>2021-05-16T08:22:17Z</time>
      </trkpt>
      <trkpt lat="49.03105" lon="1.34254">
        <ele>-3</ele>
        <time>2021-05-16T08:22:19Z</time>
      </trkpt>
      <trkpt lat="49.03103" lon="1.34257">
        <ele>-2.7999999523163</ele>
        <time>2021-05-16T08:22:20Z</time>
      </trkpt>
      <trkpt lat="49.03101" lon="1.34259">
        <ele>-2.5999999046326</ele>
        <time>2021-05-16T08:22:21Z</time>
      </trkpt>
      <trkpt lat="49.03093" lon="1.34265">
        <ele>-2</ele>
        <time>2021-05-16T08:22:24Z</time>
      </trkpt>
      <trkpt lat="49.03087" lon="1.3427">
        <ele>-1.7999999523163</ele>
        <time>2021-05-16T08:22:26Z</time>
      </trkpt>
      <trkpt lat="49.03074" lon="1.34284">
        <ele>-1</ele>
        <time>2021-05-16T08:22:30Z</time>
      </trkpt>
      <trkpt lat="49.03067" lon="1.34292">
        <ele>-0.80000001192093</ele>
        <time>2021-05-16T08:22:32Z</time>
      </trkpt>
      <trkpt lat="49.03048" lon="1.34319">
        <ele>0.20000000298023</ele>
        <time>2021-05-16T08:22:38Z</time>
      </trkpt>
      <trkpt lat="49.03045" lon="1.34324">
        <ele>0.40000000596046</ele>
        <time>2021-05-16T08:22:39Z</time>
      </trkpt>
      <trkpt lat="49.03031" lon="1.3435">
        <ele>1.6000000238419</ele>
        <time>2021-05-16T08:22:44Z</time>
      </trkpt>
      <trkpt lat="49.03022" lon="1.34363">
        <ele>2.2000000476837</ele>
        <time>2021-05-16T08:22:47Z</time>
      </trkpt>
      <trkpt lat="49.03015" lon="1.34372">
        <ele>2.5999999046326</ele>
        <time>2021-05-16T08:22:49Z</time>
      </trkpt>
      <trkpt lat="49.02996" lon="1.34388">
        <ele>3.4000000953674</ele>
        <time>2021-05-16T08:22:54Z</time>
      </trkpt>
      <trkpt lat="49.02992" lon="1.3439">
        <ele>3.5999999046326</ele>
        <time>2021-05-16T08:22:55Z</time>
      </trkpt>
      <trkpt lat="49.02976" lon="1.34403">
        <ele>4.5999999046326</ele>
        <time>2021-05-16T08:22:59Z</time>
      </trkpt>
      <trkpt lat="49.02972" lon="1.34407">
        <ele>5</ele>
        <time>2021-05-16T08:23:00Z</time>
      </trkpt>
      <trkpt lat="49.02966" lon="1.34417">
        <ele>5.5999999046326</ele>
        <time>2021-05-16T08:23:02Z</time>
      </trkpt>
      <trkpt lat="49.0296" lon="1.34428">
        <ele>6</ele>
        <time>2021-05-16T08:23:04Z</time>
      </trkpt>
      <trkpt lat="49.02958" lon="1.34434">
        <ele>6.1999998092651</ele>
        <time>2021-05-16T08:23:05Z</time>
      </trkpt>
      <trkpt lat="49.02951" lon="1.34452">
        <ele>6.8000001907349</ele>
        <time>2021-05-16T08:23:08Z</time>
      </trkpt>
      <trkpt lat="49.02949" lon="1.34458">
        <ele>7</ele>
        <time>2021-05-16T08:23:09Z</time>
      </trkpt>
      <trkpt lat="49.02947" lon="1.34465">
        <ele>7.4000000953674</ele>
        <time>2021-05-16T08:23:10Z</time>
      </trkpt>
      <trkpt lat="49.02938" lon="1.3449">
        <ele>8.1999998092651</ele>
        <time>2021-05-16T08:23:14Z</time>
      </trkpt>
      <trkpt lat="49.02922" lon="1.34526">
        <ele>9.3999996185303</ele>
        <time>2021-05-16T08:23:20Z</time>
      </trkpt>
      <trkpt lat="49.02914" lon="1.34542">
        <ele>10</ele>
        <time>2021-05-16T08:23:23Z</time>
      </trkpt>
      <trkpt lat="49.02909" lon="1.3455">
        <ele>10.800000190735</ele>
        <time>2021-05-16T08:23:25Z</time>
      </trkpt>
      <trkpt lat="49.02901" lon="1.34557">
        <ele>11.199999809265</ele>
        <time>2021-05-16T08:23:28Z</time>
      </trkpt>
      <trkpt lat="49.0289" lon="1.34567">
        <ele>11.39999961853</ele>
        <time>2021-05-16T08:23:33Z</time>
      </trkpt>
      <trkpt lat="49.02892" lon="1.34579">
        <ele>11.39999961853</ele>
        <time>2021-05-16T08:23:36Z</time>
      </trkpt>
      <trkpt lat="49.02895" lon="1.34588">
        <ele>11.39999961853</ele>
        <time>2021-05-16T08:23:38Z</time>
      </trkpt>
      <trkpt lat="49.02898" lon="1.34598">
        <ele>11.199999809265</ele>
        <time>2021-05-16T08:23:40Z</time>
      </trkpt>
      <trkpt lat="49.02899" lon="1.34605">
        <ele>11</ele>
        <time>2021-05-16T08:23:41Z</time>
      </trkpt>
      <trkpt lat="49.02908" lon="1.34652">
        <ele>10.60000038147</ele>
        <time>2021-05-16T08:23:47Z</time>
      </trkpt>
      <trkpt lat="49.02918" lon="1.34705">
        <ele>11</ele>
        <time>2021-05-16T08:23:54Z</time>
      </trkpt>
      <trkpt lat="49.02931" lon="1.34749">
        <ele>11.199999809265</ele>
        <time>2021-05-16T08:24:00Z</time>
      </trkpt>
      <trkpt lat="49.02944" lon="1.34791">
        <ele>11.39999961853</ele>
        <time>2021-05-16T08:24:07Z</time>
      </trkpt>
      <trkpt lat="49.02963" lon="1.34844">
        <ele>10.60000038147</ele>
        <time>2021-05-16T08:24:17Z</time>
      </trkpt>
      <trkpt lat="49.02966" lon="1.34854">
        <ele>10.199999809265</ele>
        <time>2021-05-16T08:24:19Z</time>
      </trkpt>
      <trkpt lat="49.02975" lon="1.34879">
        <ele>9.1999998092651</ele>
        <time>2021-05-16T08:24:24Z</time>
      </trkpt>
      <trkpt lat="49.02982" lon="1.349">
        <ele>8.3999996185303</ele>
        <time>2021-05-16T08:24:28Z</time>
      </trkpt>
      <trkpt lat="49.02983" lon="1.34905">
        <ele>8</ele>
        <time>2021-05-16T08:24:29Z</time>
      </trkpt>
      <trkpt lat="49.02989" lon="1.34926">
        <ele>7</ele>
        <time>2021-05-16T08:24:33Z</time>
      </trkpt>
      <trkpt lat="49.02994" lon="1.34945">
        <ele>6.4000000953674</ele>
        <time>2021-05-16T08:24:36Z</time>
      </trkpt>
      <trkpt lat="49.02995" lon="1.34951">
        <ele>6</ele>
        <time>2021-05-16T08:24:37Z</time>
      </trkpt>
      <trkpt lat="49.03001" lon="1.34977">
        <ele>5</ele>
        <time>2021-05-16T08:24:41Z</time>
      </trkpt>
      <trkpt lat="49.03006" lon="1.34996">
        <ele>4</ele>
        <time>2021-05-16T08:24:44Z</time>
      </trkpt>
      <trkpt lat="49.03007" lon="1.35003">
        <ele>3.7999999523163</ele>
        <time>2021-05-16T08:24:45Z</time>
      </trkpt>
      <trkpt lat="49.03018" lon="1.35047">
        <ele>2.7999999523163</ele>
        <time>2021-05-16T08:24:52Z</time>
      </trkpt>
      <trkpt lat="49.03035" lon="1.35097">
        <ele>3.2000000476837</ele>
        <time>2021-05-16T08:25:00Z</time>
      </trkpt>
      <trkpt lat="49.03043" lon="1.35123">
        <ele>4</ele>
        <time>2021-05-16T08:25:04Z</time>
      </trkpt>
      <trkpt lat="49.03054" lon="1.35156">
        <ele>4.5999999046326</ele>
        <time>2021-05-16T08:25:09Z</time>
      </trkpt>
      <trkpt lat="49.0306" lon="1.35168">
        <ele>5</ele>
        <time>2021-05-16T08:25:11Z</time>
      </trkpt>
      <trkpt lat="49.03073" lon="1.35191">
        <ele>5.8000001907349</ele>
        <time>2021-05-16T08:25:15Z</time>
      </trkpt>
      <trkpt lat="49.03075" lon="1.35197">
        <ele>6</ele>
        <time>2021-05-16T08:25:16Z</time>
      </trkpt>
      <trkpt lat="49.03087" lon="1.35228">
        <ele>7.4000000953674</ele>
        <time>2021-05-16T08:25:21Z</time>
      </trkpt>
      <trkpt lat="49.03089" lon="1.35234">
        <ele>7.5999999046326</ele>
        <time>2021-05-16T08:25:22Z</time>
      </trkpt>
      <trkpt lat="49.03102" lon="1.35266">
        <ele>8.6000003814697</ele>
        <time>2021-05-16T08:25:27Z</time>
      </trkpt>
      <trkpt lat="49.0311" lon="1.35286">
        <ele>9.6000003814697</ele>
        <time>2021-05-16T08:25:30Z</time>
      </trkpt>
      <trkpt lat="49.03119" lon="1.35314">
        <ele>11.199999809265</ele>
        <time>2021-05-16T08:25:34Z</time>
      </trkpt>
      <trkpt lat="49.03128" lon="1.35334">
        <ele>12</ele>
        <time>2021-05-16T08:25:37Z</time>
      </trkpt>
      <trkpt lat="49.03131" lon="1.3534">
        <ele>12.199999809265</ele>
        <time>2021-05-16T08:25:38Z</time>
      </trkpt>
      <trkpt lat="49.03143" lon="1.35367">
        <ele>13.39999961853</ele>
        <time>2021-05-16T08:25:42Z</time>
      </trkpt>
      <trkpt lat="49.03148" lon="1.35382">
        <ele>14</ele>
        <time>2021-05-16T08:25:44Z</time>
      </trkpt>
      <trkpt lat="49.0315" lon="1.35389">
        <ele>14.39999961853</ele>
        <time>2021-05-16T08:25:45Z</time>
      </trkpt>
      <trkpt lat="49.03157" lon="1.35412">
        <ele>16</ele>
        <time>2021-05-16T08:25:48Z</time>
      </trkpt>
      <trkpt lat="49.03163" lon="1.35435">
        <ele>16.799999237061</ele>
        <time>2021-05-16T08:25:51Z</time>
      </trkpt>
      <trkpt lat="49.03165" lon="1.35443">
        <ele>17</ele>
        <time>2021-05-16T08:25:52Z</time>
      </trkpt>
      <trkpt lat="49.0317" lon="1.35477">
        <ele>18.39999961853</ele>
        <time>2021-05-16T08:25:56Z</time>
      </trkpt>
      <trkpt lat="49.03172" lon="1.35494">
        <ele>19.200000762939</ele>
        <time>2021-05-16T08:25:58Z</time>
      </trkpt>
      <trkpt lat="49.03174" lon="1.35511">
        <ele>19.799999237061</ele>
        <time>2021-05-16T08:26:00Z</time>
      </trkpt>
      <trkpt lat="49.03175" lon="1.35545">
        <ele>21.39999961853</ele>
        <time>2021-05-16T08:26:04Z</time>
      </trkpt>
      <trkpt lat="49.03174" lon="1.35553">
        <ele>21.799999237061</ele>
        <time>2021-05-16T08:26:05Z</time>
      </trkpt>
      <trkpt lat="49.03174" lon="1.35571">
        <ele>22.39999961853</ele>
        <time>2021-05-16T08:26:07Z</time>
      </trkpt>
      <trkpt lat="49.03173" lon="1.35597">
        <ele>23.60000038147</ele>
        <time>2021-05-16T08:26:10Z</time>
      </trkpt>
      <trkpt lat="49.03173" lon="1.35606">
        <ele>23.799999237061</ele>
        <time>2021-05-16T08:26:11Z</time>
      </trkpt>
      <trkpt lat="49.03173" lon="1.35642">
        <ele>25</ele>
        <time>2021-05-16T08:26:15Z</time>
      </trkpt>
      <trkpt lat="49.03172" lon="1.35669">
        <ele>26.200000762939</ele>
        <time>2021-05-16T08:26:18Z</time>
      </trkpt>
      <trkpt lat="49.03172" lon="1.35678">
        <ele>26.60000038147</ele>
        <time>2021-05-16T08:26:19Z</time>
      </trkpt>
      <trkpt lat="49.03172" lon="1.35695">
        <ele>27.39999961853</ele>
        <time>2021-05-16T08:26:21Z</time>
      </trkpt>
      <trkpt lat="49.03172" lon="1.35721">
        <ele>28.39999961853</ele>
        <time>2021-05-16T08:26:24Z</time>
      </trkpt>
      <trkpt lat="49.03171" lon="1.35756">
        <ele>29.60000038147</ele>
        <time>2021-05-16T08:26:28Z</time>
      </trkpt>
      <trkpt lat="49.03171" lon="1.35764">
        <ele>30.200000762939</ele>
        <time>2021-05-16T08:26:29Z</time>
      </trkpt>
      <trkpt lat="49.0317" lon="1.35782">
        <ele>31</ele>
        <time>2021-05-16T08:26:31Z</time>
      </trkpt>
      <trkpt lat="49.0317" lon="1.35808">
        <ele>32.200000762939</ele>
        <time>2021-05-16T08:26:34Z</time>
      </trkpt>
      <trkpt lat="49.0317" lon="1.35843">
        <ele>33.400001525879</ele>
        <time>2021-05-16T08:26:38Z</time>
      </trkpt>
      <trkpt lat="49.03169" lon="1.35878">
        <ele>34.799999237061</ele>
        <time>2021-05-16T08:26:42Z</time>
      </trkpt>
      <trkpt lat="49.0317" lon="1.35904">
        <ele>36</ele>
        <time>2021-05-16T08:26:45Z</time>
      </trkpt>
      <trkpt lat="49.03171" lon="1.3593">
        <ele>36.799999237061</ele>
        <time>2021-05-16T08:26:48Z</time>
      </trkpt>
      <trkpt lat="49.03173" lon="1.35947">
        <ele>37.200000762939</ele>
        <time>2021-05-16T08:26:50Z</time>
      </trkpt>
      <trkpt lat="49.03177" lon="1.3599">
        <ele>38.599998474121</ele>
        <time>2021-05-16T08:26:55Z</time>
      </trkpt>
      <trkpt lat="49.0318" lon="1.36007">
        <ele>39.200000762939</ele>
        <time>2021-05-16T08:26:57Z</time>
      </trkpt>
      <trkpt lat="49.03184" lon="1.36032">
        <ele>39.799999237061</ele>
        <time>2021-05-16T08:27:00Z</time>
      </trkpt>
      <trkpt lat="49.03195" lon="1.36071">
        <ele>41</ele>
        <time>2021-05-16T08:27:05Z</time>
      </trkpt>
      <trkpt lat="49.03197" lon="1.36079">
        <ele>41.200000762939</ele>
        <time>2021-05-16T08:27:06Z</time>
      </trkpt>
      <trkpt lat="49.03206" lon="1.36127">
        <ele>42.599998474121</ele>
        <time>2021-05-16T08:27:12Z</time>
      </trkpt>
      <trkpt lat="49.03208" lon="1.36135">
        <ele>43</ele>
        <time>2021-05-16T08:27:13Z</time>
      </trkpt>
      <trkpt lat="49.03216" lon="1.36171">
        <ele>43.799999237061</ele>
        <time>2021-05-16T08:27:17Z</time>
      </trkpt>
      <trkpt lat="49.03222" lon="1.36207">
        <ele>44.799999237061</ele>
        <time>2021-05-16T08:27:21Z</time>
      </trkpt>
      <trkpt lat="49.03222" lon="1.36216">
        <ele>44.799999237061</ele>
        <time>2021-05-16T08:27:22Z</time>
      </trkpt>
      <trkpt lat="49.03221" lon="1.36225">
        <ele>45</ele>
        <time>2021-05-16T08:27:23Z</time>
      </trkpt>
      <trkpt lat="49.03215" lon="1.3626">
        <ele>45.799999237061</ele>
        <time>2021-05-16T08:27:27Z</time>
      </trkpt>
      <trkpt lat="49.03203" lon="1.36342">
        <ele>46.400001525879</ele>
        <time>2021-05-16T08:27:36Z</time>
      </trkpt>
      <trkpt lat="49.032" lon="1.36402">
        <ele>47</ele>
        <time>2021-05-16T08:27:42Z</time>
      </trkpt>
      <trkpt lat="49.03202" lon="1.36433">
        <ele>47</ele>
        <time>2021-05-16T08:27:45Z</time>
      </trkpt>
      <trkpt lat="49.03205" lon="1.36452">
        <ele>47</ele>
        <time>2021-05-16T08:27:47Z</time>
      </trkpt>
      <trkpt lat="49.03208" lon="1.36461">
        <ele>47.200000762939</ele>
        <time>2021-05-16T08:27:48Z</time>
      </trkpt>
      <trkpt lat="49.0322" lon="1.36493">
        <ele>47.400001525879</ele>
        <time>2021-05-16T08:27:52Z</time>
      </trkpt>
      <trkpt lat="49.03242" lon="1.36539">
        <ele>47.599998474121</ele>
        <time>2021-05-16T08:27:59Z</time>
      </trkpt>
      <trkpt lat="49.03243" lon="1.36541">
        <ele>47.599998474121</ele>
        <time>2021-05-16T08:28:00Z</time>
      </trkpt>
      <trkpt lat="49.03243" lon="1.36544">
        <ele>47.799999237061</ele>
        <time>2021-05-16T08:28:03Z</time>
      </trkpt>
      <trkpt lat="49.03245" lon="1.36547">
        <ele>48</ele>
        <time>2021-05-16T08:28:05Z</time>
      </trkpt>
      <trkpt lat="49.0325" lon="1.36553">
        <ele>48</ele>
        <time>2021-05-16T08:28:07Z</time>
      </trkpt>
      <trkpt lat="49.03255" lon="1.36563">
        <ele>48.200000762939</ele>
        <time>2021-05-16T08:28:09Z</time>
      </trkpt>
      <trkpt lat="49.03265" lon="1.36579">
        <ele>48.400001525879</ele>
        <time>2021-05-16T08:28:12Z</time>
      </trkpt>
      <trkpt lat="49.03269" lon="1.36585">
        <ele>48.400001525879</ele>
        <time>2021-05-16T08:28:13Z</time>
      </trkpt>
      <trkpt lat="49.03283" lon="1.36617">
        <ele>48.400001525879</ele>
        <time>2021-05-16T08:28:18Z</time>
      </trkpt>
      <trkpt lat="49.0329" lon="1.3663">
        <ele>48.599998474121</ele>
        <time>2021-05-16T08:28:20Z</time>
      </trkpt>
      <trkpt lat="49.03298" lon="1.36647">
        <ele>48.599998474121</ele>
        <time>2021-05-16T08:28:22Z</time>
      </trkpt>
      <trkpt lat="49.03309" lon="1.3667">
        <ele>48.400001525879</ele>
        <time>2021-05-16T08:28:25Z</time>
      </trkpt>
      <trkpt lat="49.0332" lon="1.36689">
        <ele>48.400001525879</ele>
        <time>2021-05-16T08:28:28Z</time>
      </trkpt>
      <trkpt lat="49.03343" lon="1.36727">
        <ele>48.599998474121</ele>
        <time>2021-05-16T08:28:35Z</time>
      </trkpt>
      <trkpt lat="49.03345" lon="1.36733">
        <ele>48.599998474121</ele>
        <time>2021-05-16T08:28:36Z</time>
      </trkpt>
      <trkpt lat="49.03341" lon="1.36749">
        <ele>48.599998474121</ele>
        <time>2021-05-16T08:28:39Z</time>
      </trkpt>
      <trkpt lat="49.03338" lon="1.36753">
        <ele>48.599998474121</ele>
        <time>2021-05-16T08:28:40Z</time>
      </trkpt>
      <trkpt lat="49.03315" lon="1.36785">
        <ele>48.599998474121</ele>
        <time>2021-05-16T08:28:47Z</time>
      </trkpt>
      <trkpt lat="49.03295" lon="1.36811">
        <ele>49</ele>
        <time>2021-05-16T08:28:53Z</time>
      </trkpt>
      <trkpt lat="49.03268" lon="1.36843">
        <ele>49</ele>
        <time>2021-05-16T08:29:01Z</time>
      </trkpt>
      <trkpt lat="49.03252" lon="1.36862">
        <ele>49</ele>
        <time>2021-05-16T08:29:06Z</time>
      </trkpt>
      <trkpt lat="49.03243" lon="1.36872">
        <ele>49.200000762939</ele>
        <time>2021-05-16T08:29:09Z</time>
      </trkpt>
      <trkpt lat="49.0324" lon="1.36881">
        <ele>49.200000762939</ele>
        <time>2021-05-16T08:29:11Z</time>
      </trkpt>
      <trkpt lat="49.0324" lon="1.36886">
        <ele>49.400001525879</ele>
        <time>2021-05-16T08:29:12Z</time>
      </trkpt>
      <trkpt lat="49.03246" lon="1.369">
        <ele>49.599998474121</ele>
        <time>2021-05-16T08:29:16Z</time>
      </trkpt>
      <trkpt lat="49.03248" lon="1.36906">
        <ele>49.599998474121</ele>
        <time>2021-05-16T08:29:18Z</time>
      </trkpt>
      <trkpt lat="49.03256" lon="1.36927">
        <ele>50</ele>
        <time>2021-05-16T08:29:25Z</time>
      </trkpt>
      <trkpt lat="49.03271" lon="1.3696">
        <ele>51.400001525879</ele>
        <time>2021-05-16T08:29:36Z</time>
      </trkpt>
      <trkpt lat="49.03281" lon="1.3698">
        <ele>52.200000762939</ele>
        <time>2021-05-16T08:29:43Z</time>
      </trkpt>
      <trkpt lat="49.03285" lon="1.36988">
        <ele>52.599998474121</ele>
        <time>2021-05-16T08:29:46Z</time>
      </trkpt>
      <trkpt lat="49.0329" lon="1.36996">
        <ele>53</ele>
        <time>2021-05-16T08:29:49Z</time>
      </trkpt>
      <trkpt lat="49.03296" lon="1.37007">
        <ele>53.799999237061</ele>
        <time>2021-05-16T08:29:53Z</time>
      </trkpt>
      <trkpt lat="49.03304" lon="1.37023">
        <ele>54.599998474121</ele>
        <time>2021-05-16T08:29:59Z</time>
      </trkpt>
      <trkpt lat="49.0331" lon="1.37032">
        <ele>55.200000762939</ele>
        <time>2021-05-16T08:30:03Z</time>
      </trkpt>
      <trkpt lat="49.0332" lon="1.37047">
        <ele>56.400001525879</ele>
        <time>2021-05-16T08:30:09Z</time>
      </trkpt>
      <trkpt lat="49.03331" lon="1.37066">
        <ele>57.599998474121</ele>
        <time>2021-05-16T08:30:17Z</time>
      </trkpt>
      <trkpt lat="49.03332" lon="1.37068">
        <ele>57.799999237061</ele>
        <time>2021-05-16T08:30:18Z</time>
      </trkpt>
      <trkpt lat="49.0334" lon="1.37079">
        <ele>59</ele>
        <time>2021-05-16T08:30:23Z</time>
      </trkpt>
      <trkpt lat="49.03347" lon="1.37091">
        <ele>60</ele>
        <time>2021-05-16T08:30:28Z</time>
      </trkpt>
      <trkpt lat="49.03359" lon="1.3711">
        <ele>60.599998474121</ele>
        <time>2021-05-16T08:30:36Z</time>
      </trkpt>
      <trkpt lat="49.03367" lon="1.37114">
        <ele>60.799999237061</ele>
        <time>2021-05-16T08:30:40Z</time>
      </trkpt>
      <trkpt lat="49.03368" lon="1.37114">
        <ele>60.799999237061</ele>
        <time>2021-05-16T08:30:41Z</time>
      </trkpt>
      <trkpt lat="49.03378" lon="1.37104">
        <ele>61.599998474121</ele>
        <time>2021-05-16T08:30:47Z</time>
      </trkpt>
      <trkpt lat="49.03379" lon="1.37102">
        <ele>61.799999237061</ele>
        <time>2021-05-16T08:30:48Z</time>
      </trkpt>
      <trkpt lat="49.0339" lon="1.37084">
        <ele>62.799999237061</ele>
        <time>2021-05-16T08:30:56Z</time>
      </trkpt>
      <trkpt lat="49.03392" lon="1.37079">
        <ele>63.400001525879</ele>
        <time>2021-05-16T08:30:58Z</time>
      </trkpt>
      <trkpt lat="49.03394" lon="1.37077">
        <ele>64.199996948242</ele>
        <time>2021-05-16T08:30:59Z</time>
      </trkpt>
      <trkpt lat="49.03401" lon="1.37065">
        <ele>65.400001525879</ele>
        <time>2021-05-16T08:31:04Z</time>
      </trkpt>
      <trkpt lat="49.03404" lon="1.3706">
        <ele>66.199996948242</ele>
        <time>2021-05-16T08:31:06Z</time>
      </trkpt>
      <trkpt lat="49.03405" lon="1.37058">
        <ele>66.599998474121</ele>
        <time>2021-05-16T08:31:07Z</time>
      </trkpt>
      <trkpt lat="49.0341" lon="1.37048">
        <ele>67.599998474121</ele>
        <time>2021-05-16T08:31:11Z</time>
      </trkpt>
      <trkpt lat="49.03416" lon="1.37038">
        <ele>69</ele>
        <time>2021-05-16T08:31:15Z</time>
      </trkpt>
      <trkpt lat="49.03419" lon="1.37033">
        <ele>69.599998474121</ele>
        <time>2021-05-16T08:31:17Z</time>
      </trkpt>
      <trkpt lat="49.03424" lon="1.37026">
        <ele>70.199996948242</ele>
        <time>2021-05-16T08:31:20Z</time>
      </trkpt>
      <trkpt lat="49.03431" lon="1.37015">
        <ele>71.599998474121</ele>
        <time>2021-05-16T08:31:25Z</time>
      </trkpt>
      <trkpt lat="49.03432" lon="1.37012">
        <ele>71.800003051758</ele>
        <time>2021-05-16T08:31:26Z</time>
      </trkpt>
      <trkpt lat="49.03438" lon="1.37003">
        <ele>72.599998474121</ele>
        <time>2021-05-16T08:31:30Z</time>
      </trkpt>
      <trkpt lat="49.03445" lon="1.36992">
        <ele>74</ele>
        <time>2021-05-16T08:31:35Z</time>
      </trkpt>
      <trkpt lat="49.03448" lon="1.36988">
        <ele>74.400001525879</ele>
        <time>2021-05-16T08:31:37Z</time>
      </trkpt>
      <trkpt lat="49.03454" lon="1.3698">
        <ele>75.199996948242</ele>
        <time>2021-05-16T08:31:41Z</time>
      </trkpt>
      <trkpt lat="49.03459" lon="1.36974">
        <ele>76</ele>
        <time>2021-05-16T08:31:45Z</time>
      </trkpt>
      <trkpt lat="49.0346" lon="1.36973">
        <ele>76.199996948242</ele>
        <time>2021-05-16T08:31:46Z</time>
      </trkpt>
      <trkpt lat="49.03461" lon="1.3697">
        <ele>76.400001525879</ele>
        <time>2021-05-16T08:31:47Z</time>
      </trkpt>
      <trkpt lat="49.03461" lon="1.36966">
        <ele>77</ele>
        <time>2021-05-16T08:31:49Z</time>
      </trkpt>
      <trkpt lat="49.03465" lon="1.36962">
        <ele>77.400001525879</ele>
        <time>2021-05-16T08:31:52Z</time>
      </trkpt>
      <trkpt lat="49.03466" lon="1.3696">
        <ele>77.599998474121</ele>
        <time>2021-05-16T08:31:53Z</time>
      </trkpt>
      <trkpt lat="49.03467" lon="1.36958">
        <ele>77.599998474121</ele>
        <time>2021-05-16T08:31:54Z</time>
      </trkpt>
      <trkpt lat="49.03476" lon="1.36942">
        <ele>78.800003051758</ele>
        <time>2021-05-16T08:32:01Z</time>
      </trkpt>
      <trkpt lat="49.03488" lon="1.36924">
        <ele>79.800003051758</ele>
        <time>2021-05-16T08:32:09Z</time>
      </trkpt>
      <trkpt lat="49.0349" lon="1.36921">
        <ele>80</ele>
        <time>2021-05-16T08:32:10Z</time>
      </trkpt>
      <trkpt lat="49.03501" lon="1.36906">
        <ele>81</ele>
        <time>2021-05-16T08:32:17Z</time>
      </trkpt>
      <trkpt lat="49.03508" lon="1.36892">
        <ele>81.400001525879</ele>
        <time>2021-05-16T08:32:22Z</time>
      </trkpt>
      <trkpt lat="49.03512" lon="1.36883">
        <ele>81.800003051758</ele>
        <time>2021-05-16T08:32:25Z</time>
      </trkpt>
      <trkpt lat="49.03519" lon="1.36864">
        <ele>82.400001525879</ele>
        <time>2021-05-16T08:32:31Z</time>
      </trkpt>
      <trkpt lat="49.03525" lon="1.36845">
        <ele>83</ele>
        <time>2021-05-16T08:32:36Z</time>
      </trkpt>
      <trkpt lat="49.0353" lon="1.36829">
        <ele>83</ele>
        <time>2021-05-16T08:32:40Z</time>
      </trkpt>
      <trkpt lat="49.03534" lon="1.36816">
        <ele>83.400001525879</ele>
        <time>2021-05-16T08:32:45Z</time>
      </trkpt>
      <trkpt lat="49.03535" lon="1.36816">
        <ele>83.400001525879</ele>
        <time>2021-05-16T08:32:46Z</time>
      </trkpt>
      <trkpt lat="49.03536" lon="1.36815">
        <ele>82.199996948242</ele>
        <time>2021-05-16T08:33:20Z</time>
      </trkpt>
      <trkpt lat="49.03537" lon="1.36808">
        <ele>82</ele>
        <time>2021-05-16T08:33:23Z</time>
      </trkpt>
      <trkpt lat="49.03546" lon="1.36782">
        <ele>82</ele>
        <time>2021-05-16T08:33:29Z</time>
      </trkpt>
      <trkpt lat="49.03564" lon="1.36736">
        <ele>82.400001525879</ele>
        <time>2021-05-16T08:33:39Z</time>
      </trkpt>
      <trkpt lat="49.03586" lon="1.36698">
        <ele>83.800003051758</ele>
        <time>2021-05-16T08:33:48Z</time>
      </trkpt>
      <trkpt lat="49.03591" lon="1.36691">
        <ele>84.400001525879</ele>
        <time>2021-05-16T08:33:50Z</time>
      </trkpt>
      <trkpt lat="49.03605" lon="1.36669">
        <ele>84.800003051758</ele>
        <time>2021-05-16T08:33:55Z</time>
      </trkpt>
      <trkpt lat="49.03627" lon="1.36643">
        <ele>85.400001525879</ele>
        <time>2021-05-16T08:34:02Z</time>
      </trkpt>
      <trkpt lat="49.0363" lon="1.36641">
        <ele>85.599998474121</ele>
        <time>2021-05-16T08:34:03Z</time>
      </trkpt>
      <trkpt lat="49.03653" lon="1.36623">
        <ele>85.599998474121</ele>
        <time>2021-05-16T08:34:10Z</time>
      </trkpt>
      <trkpt lat="49.03683" lon="1.36595">
        <ele>86</ele>
        <time>2021-05-16T08:34:18Z</time>
      </trkpt>
      <trkpt lat="49.03706" lon="1.36568">
        <ele>85.800003051758</ele>
        <time>2021-05-16T08:34:25Z</time>
      </trkpt>
      <trkpt lat="49.03728" lon="1.36543">
        <ele>86</ele>
        <time>2021-05-16T08:34:33Z</time>
      </trkpt>
      <trkpt lat="49.03748" lon="1.36524">
        <ele>87</ele>
        <time>2021-05-16T08:34:40Z</time>
      </trkpt>
      <trkpt lat="49.03761" lon="1.36513">
        <ele>87.400001525879</ele>
        <time>2021-05-16T08:34:45Z</time>
      </trkpt>
      <trkpt lat="49.03765" lon="1.36509">
        <ele>88</ele>
        <time>2021-05-16T08:34:47Z</time>
      </trkpt>
      <trkpt lat="49.03785" lon="1.36493">
        <ele>88.800003051758</ele>
        <time>2021-05-16T08:34:54Z</time>
      </trkpt>
      <trkpt lat="49.03805" lon="1.36479">
        <ele>89.400001525879</ele>
        <time>2021-05-16T08:34:59Z</time>
      </trkpt>
      <trkpt lat="49.03839" lon="1.36463">
        <ele>89.400001525879</ele>
        <time>2021-05-16T08:35:06Z</time>
      </trkpt>
      <trkpt lat="49.03869" lon="1.36452">
        <ele>88.800003051758</ele>
        <time>2021-05-16T08:35:13Z</time>
      </trkpt>
      <trkpt lat="49.03904" lon="1.36441">
        <ele>88.800003051758</ele>
        <time>2021-05-16T08:35:20Z</time>
      </trkpt>
      <trkpt lat="49.0391" lon="1.36441">
        <ele>88.800003051758</ele>
        <time>2021-05-16T08:35:21Z</time>
      </trkpt>
      <trkpt lat="49.03927" lon="1.36443">
        <ele>88.800003051758</ele>
        <time>2021-05-16T08:35:24Z</time>
      </trkpt>
      <trkpt lat="49.03931" lon="1.36446">
        <ele>88.800003051758</ele>
        <time>2021-05-16T08:35:25Z</time>
      </trkpt>
      <trkpt lat="49.03943" lon="1.36459">
        <ele>88.599998474121</ele>
        <time>2021-05-16T08:35:29Z</time>
      </trkpt>
      <trkpt lat="49.03947" lon="1.36461">
        <ele>88.199996948242</ele>
        <time>2021-05-16T08:35:33Z</time>
      </trkpt>
      <trkpt lat="49.03951" lon="1.36467">
        <ele>88.199996948242</ele>
        <time>2021-05-16T08:35:37Z</time>
      </trkpt>
      <trkpt lat="49.03952" lon="1.3647">
        <ele>88.199996948242</ele>
        <time>2021-05-16T08:35:38Z</time>
      </trkpt>
      <trkpt lat="49.03959" lon="1.36478">
        <ele>88.599998474121</ele>
        <time>2021-05-16T08:35:43Z</time>
      </trkpt>
      <trkpt lat="49.03966" lon="1.36492">
        <ele>89.599998474121</ele>
        <time>2021-05-16T08:35:48Z</time>
      </trkpt>
      <trkpt lat="49.03967" lon="1.36494">
        <ele>89.599998474121</ele>
        <time>2021-05-16T08:35:49Z</time>
      </trkpt>
      <trkpt lat="49.0397" lon="1.365">
        <ele>90</ele>
        <time>2021-05-16T08:35:52Z</time>
      </trkpt>
      <trkpt lat="49.03972" lon="1.36505">
        <ele>90.199996948242</ele>
        <time>2021-05-16T08:35:54Z</time>
      </trkpt>
      <trkpt lat="49.03976" lon="1.36517">
        <ele>91</ele>
        <time>2021-05-16T08:35:59Z</time>
      </trkpt>
      <trkpt lat="49.03978" lon="1.36523">
        <ele>91.400001525879</ele>
        <time>2021-05-16T08:36:02Z</time>
      </trkpt>
      <trkpt lat="49.0398" lon="1.36526">
        <ele>91.400001525879</ele>
        <time>2021-05-16T08:36:04Z</time>
      </trkpt>
      <trkpt lat="49.03981" lon="1.36527">
        <ele>91.800003051758</ele>
        <time>2021-05-16T08:36:05Z</time>
      </trkpt>
      <trkpt lat="49.03981" lon="1.36528">
        <ele>91.800003051758</ele>
        <time>2021-05-16T08:36:07Z</time>
      </trkpt>
      <trkpt lat="49.03987" lon="1.36535">
        <ele>92.599998474121</ele>
        <time>2021-05-16T08:38:02Z</time>
      </trkpt>
      <trkpt lat="49.03989" lon="1.3654">
        <ele>92.599998474121</ele>
        <time>2021-05-16T08:38:04Z</time>
      </trkpt>
      <trkpt lat="49.03996" lon="1.36558">
        <ele>92.599998474121</ele>
        <time>2021-05-16T08:38:09Z</time>
      </trkpt>
      <trkpt lat="49.04" lon="1.36569">
        <ele>92.400001525879</ele>
        <time>2021-05-16T08:38:11Z</time>
      </trkpt>
      <trkpt lat="49.04004" lon="1.36583">
        <ele>92.400001525879</ele>
        <time>2021-05-16T08:38:13Z</time>
      </trkpt>
      <trkpt lat="49.0402" lon="1.36612">
        <ele>91.800003051758</ele>
        <time>2021-05-16T08:38:17Z</time>
      </trkpt>
      <trkpt lat="49.04025" lon="1.36618">
        <ele>91.400001525879</ele>
        <time>2021-05-16T08:38:18Z</time>
      </trkpt>
      <trkpt lat="49.04032" lon="1.36624">
        <ele>91.199996948242</ele>
        <time>2021-05-16T08:38:19Z</time>
      </trkpt>
      <trkpt lat="49.04037" lon="1.36629">
        <ele>91</ele>
        <time>2021-05-16T08:38:20Z</time>
      </trkpt>
      <trkpt lat="49.04042" lon="1.36633">
        <ele>90.800003051758</ele>
        <time>2021-05-16T08:38:21Z</time>
      </trkpt>
      <trkpt lat="49.04048" lon="1.36636">
        <ele>90.400001525879</ele>
        <time>2021-05-16T08:38:22Z</time>
      </trkpt>
      <trkpt lat="49.04059" lon="1.36633">
        <ele>89.800003051758</ele>
        <time>2021-05-16T08:38:24Z</time>
      </trkpt>
      <trkpt lat="49.04063" lon="1.36629">
        <ele>89.400001525879</ele>
        <time>2021-05-16T08:38:25Z</time>
      </trkpt>
      <trkpt lat="49.04069" lon="1.36618">
        <ele>88.800003051758</ele>
        <time>2021-05-16T08:38:27Z</time>
      </trkpt>
      <trkpt lat="49.04072" lon="1.36612">
        <ele>88.599998474121</ele>
        <time>2021-05-16T08:38:28Z</time>
      </trkpt>
      <trkpt lat="49.04073" lon="1.36606">
        <ele>88.199996948242</ele>
        <time>2021-05-16T08:38:29Z</time>
      </trkpt>
      <trkpt lat="49.04073" lon="1.366">
        <ele>88</ele>
        <time>2021-05-16T08:38:30Z</time>
      </trkpt>
      <trkpt lat="49.04072" lon="1.36595">
        <ele>87.800003051758</ele>
        <time>2021-05-16T08:38:31Z</time>
      </trkpt>
      <trkpt lat="49.04069" lon="1.36587">
        <ele>87.400001525879</ele>
        <time>2021-05-16T08:38:33Z</time>
      </trkpt>
      <trkpt lat="49.04063" lon="1.36577">
        <ele>87.400001525879</ele>
        <time>2021-05-16T08:38:35Z</time>
      </trkpt>
      <trkpt lat="49.04059" lon="1.36566">
        <ele>87.400001525879</ele>
        <time>2021-05-16T08:38:37Z</time>
      </trkpt>
      <trkpt lat="49.04052" lon="1.36549">
        <ele>87.400001525879</ele>
        <time>2021-05-16T08:38:40Z</time>
      </trkpt>
      <trkpt lat="49.04036" lon="1.36535">
        <ele>87.199996948242</ele>
        <time>2021-05-16T08:38:44Z</time>
      </trkpt>
      <trkpt lat="49.04033" lon="1.36531">
        <ele>86.800003051758</ele>
        <time>2021-05-16T08:38:45Z</time>
      </trkpt>
      <trkpt lat="49.0403" lon="1.36519">
        <ele>86.199996948242</ele>
        <time>2021-05-16T08:38:47Z</time>
      </trkpt>
      <trkpt lat="49.04031" lon="1.36497">
        <ele>84.800003051758</ele>
        <time>2021-05-16T08:38:50Z</time>
      </trkpt>
      <trkpt lat="49.04033" lon="1.36487">
        <ele>84.199996948242</ele>
        <time>2021-05-16T08:38:51Z</time>
      </trkpt>
      <trkpt lat="49.04034" lon="1.36477">
        <ele>83.599998474121</ele>
        <time>2021-05-16T08:38:52Z</time>
      </trkpt>
      <trkpt lat="49.0404" lon="1.36458">
        <ele>81.800003051758</ele>
        <time>2021-05-16T08:38:54Z</time>
      </trkpt>
      <trkpt lat="49.04047" lon="1.36439">
        <ele>80.199996948242</ele>
        <time>2021-05-16T08:38:56Z</time>
      </trkpt>
      <trkpt lat="49.0405" lon="1.36428">
        <ele>79.199996948242</ele>
        <time>2021-05-16T08:38:57Z</time>
      </trkpt>
      <trkpt lat="49.04054" lon="1.36417">
        <ele>78</ele>
        <time>2021-05-16T08:38:58Z</time>
      </trkpt>
      <trkpt lat="49.04057" lon="1.36406">
        <ele>77</ele>
        <time>2021-05-16T08:38:59Z</time>
      </trkpt>
      <trkpt lat="49.04058" lon="1.36396">
        <ele>74.800003051758</ele>
        <time>2021-05-16T08:39:00Z</time>
      </trkpt>
      <trkpt lat="49.04059" lon="1.36385">
        <ele>73.599998474121</ele>
        <time>2021-05-16T08:39:01Z</time>
      </trkpt>
      <trkpt lat="49.04057" lon="1.36374">
        <ele>72.400001525879</ele>
        <time>2021-05-16T08:39:02Z</time>
      </trkpt>
      <trkpt lat="49.0405" lon="1.36352">
        <ele>70.400001525879</ele>
        <time>2021-05-16T08:39:04Z</time>
      </trkpt>
      <trkpt lat="49.04042" lon="1.36333">
        <ele>68.400001525879</ele>
        <time>2021-05-16T08:39:06Z</time>
      </trkpt>
      <trkpt lat="49.04032" lon="1.36317">
        <ele>66.800003051758</ele>
        <time>2021-05-16T08:39:08Z</time>
      </trkpt>
      <trkpt lat="49.04027" lon="1.36309">
        <ele>66.199996948242</ele>
        <time>2021-05-16T08:39:09Z</time>
      </trkpt>
      <trkpt lat="49.04021" lon="1.363">
        <ele>65.599998474121</ele>
        <time>2021-05-16T08:39:10Z</time>
      </trkpt>
      <trkpt lat="49.04009" lon="1.36286">
        <ele>64.199996948242</ele>
        <time>2021-05-16T08:39:12Z</time>
      </trkpt>
      <trkpt lat="49.03997" lon="1.36274">
        <ele>62.200000762939</ele>
        <time>2021-05-16T08:39:14Z</time>
      </trkpt>
      <trkpt lat="49.03985" lon="1.36262">
        <ele>61</ele>
        <time>2021-05-16T08:39:16Z</time>
      </trkpt>
      <trkpt lat="49.03974" lon="1.36251">
        <ele>59.599998474121</ele>
        <time>2021-05-16T08:39:18Z</time>
      </trkpt>
      <trkpt lat="49.03969" lon="1.36246">
        <ele>59</ele>
        <time>2021-05-16T08:39:19Z</time>
      </trkpt>
      <trkpt lat="49.03963" lon="1.36242">
        <ele>58.400001525879</ele>
        <time>2021-05-16T08:39:20Z</time>
      </trkpt>
      <trkpt lat="49.03958" lon="1.36237">
        <ele>57.799999237061</ele>
        <time>2021-05-16T08:39:21Z</time>
      </trkpt>
      <trkpt lat="49.03954" lon="1.36232">
        <ele>57.200000762939</ele>
        <time>2021-05-16T08:39:22Z</time>
      </trkpt>
      <trkpt lat="49.03948" lon="1.36226">
        <ele>56</ele>
        <time>2021-05-16T08:39:24Z</time>
      </trkpt>
      <trkpt lat="49.03947" lon="1.36225">
        <ele>55.200000762939</ele>
        <time>2021-05-16T08:39:26Z</time>
      </trkpt>
      <trkpt lat="49.03944" lon="1.36224">
        <ele>52</ele>
        <time>2021-05-16T08:39:48Z</time>
      </trkpt>
      <trkpt lat="49.03936" lon="1.36218">
        <ele>51.599998474121</ele>
        <time>2021-05-16T08:39:54Z</time>
      </trkpt>
      <trkpt lat="49.03939" lon="1.36209">
        <ele>51.599998474121</ele>
        <time>2021-05-16T08:39:58Z</time>
      </trkpt>
      <trkpt lat="49.03943" lon="1.36198">
        <ele>51.599998474121</ele>
        <time>2021-05-16T08:40:03Z</time>
      </trkpt>
      <trkpt lat="49.03944" lon="1.36196">
        <ele>51.599998474121</ele>
        <time>2021-05-16T08:40:04Z</time>
      </trkpt>
      <trkpt lat="49.03949" lon="1.36182">
        <ele>53.400001525879</ele>
        <time>2021-05-16T08:40:12Z</time>
      </trkpt>
      <trkpt lat="49.03949" lon="1.36182">
        <ele>53.799999237061</ele>
        <time>2021-05-16T08:40:14Z</time>
      </trkpt>
      <trkpt lat="49.03954" lon="1.36173">
        <ele>59.599998474121</ele>
        <time>2021-05-16T08:43:30Z</time>
      </trkpt>
      <trkpt lat="49.03955" lon="1.36169">
        <ele>59.599998474121</ele>
        <time>2021-05-16T08:43:32Z</time>
      </trkpt>
      <trkpt lat="49.03956" lon="1.36165">
        <ele>59.599998474121</ele>
        <time>2021-05-16T08:43:34Z</time>
      </trkpt>
      <trkpt lat="49.03959" lon="1.36156">
        <ele>59.799999237061</ele>
        <time>2021-05-16T08:43:39Z</time>
      </trkpt>
      <trkpt lat="49.03963" lon="1.36146">
        <ele>60.599998474121</ele>
        <time>2021-05-16T08:43:46Z</time>
      </trkpt>
      <trkpt lat="49.03964" lon="1.36144">
        <ele>61.200000762939</ele>
        <time>2021-05-16T08:43:47Z</time>
      </trkpt>
      <trkpt lat="49.03967" lon="1.3614">
        <ele>62</ele>
        <time>2021-05-16T08:43:50Z</time>
      </trkpt>
      <trkpt lat="49.03968" lon="1.36139">
        <ele>62.200000762939</ele>
        <time>2021-05-16T08:43:51Z</time>
      </trkpt>
      <trkpt lat="49.03969" lon="1.36136">
        <ele>63</ele>
        <time>2021-05-16T08:43:53Z</time>
      </trkpt>
      <trkpt lat="49.0397" lon="1.36134">
        <ele>63.400001525879</ele>
        <time>2021-05-16T08:43:54Z</time>
      </trkpt>
      <trkpt lat="49.03974" lon="1.36128">
        <ele>64.800003051758</ele>
        <time>2021-05-16T08:43:58Z</time>
      </trkpt>
      <trkpt lat="49.03976" lon="1.36124">
        <ele>65.199996948242</ele>
        <time>2021-05-16T08:44:00Z</time>
      </trkpt>
      <trkpt lat="49.03978" lon="1.3612">
        <ele>65.800003051758</ele>
        <time>2021-05-16T08:44:02Z</time>
      </trkpt>
      <trkpt lat="49.03981" lon="1.36115">
        <ele>66.599998474121</ele>
        <time>2021-05-16T08:44:05Z</time>
      </trkpt>
      <trkpt lat="49.03983" lon="1.36113">
        <ele>67.199996948242</ele>
        <time>2021-05-16T08:44:06Z</time>
      </trkpt>
      <trkpt lat="49.03987" lon="1.36106">
        <ele>68.199996948242</ele>
        <time>2021-05-16T08:44:10Z</time>
      </trkpt>
      <trkpt lat="49.0399" lon="1.36101">
        <ele>69</ele>
        <time>2021-05-16T08:44:13Z</time>
      </trkpt>
      <trkpt lat="49.03992" lon="1.36097">
        <ele>69.199996948242</ele>
        <time>2021-05-16T08:44:15Z</time>
      </trkpt>
      <trkpt lat="49.03998" lon="1.36087">
        <ele>70.400001525879</ele>
        <time>2021-05-16T08:44:21Z</time>
      </trkpt>
      <trkpt lat="49.03999" lon="1.36085">
        <ele>70.599998474121</ele>
        <time>2021-05-16T08:44:22Z</time>
      </trkpt>
      <trkpt lat="49.04006" lon="1.36071">
        <ele>72</ele>
        <time>2021-05-16T08:44:29Z</time>
      </trkpt>
      <trkpt lat="49.04011" lon="1.36063">
        <ele>73</ele>
        <time>2021-05-16T08:44:34Z</time>
      </trkpt>
      <trkpt lat="49.04013" lon="1.36059">
        <ele>74</ele>
        <time>2021-05-16T08:44:37Z</time>
      </trkpt>
      <trkpt lat="49.04014" lon="1.36058">
        <ele>74.199996948242</ele>
        <time>2021-05-16T08:44:38Z</time>
      </trkpt>
      <trkpt lat="49.04017" lon="1.36051">
        <ele>75.199996948242</ele>
        <time>2021-05-16T08:44:42Z</time>
      </trkpt>
      <trkpt lat="49.04018" lon="1.3605">
        <ele>75.400001525879</ele>
        <time>2021-05-16T08:44:43Z</time>
      </trkpt>
      <trkpt lat="49.04018" lon="1.36049">
        <ele>75.599998474121</ele>
        <time>2021-05-16T08:44:44Z</time>
      </trkpt>
      <trkpt lat="49.0402" lon="1.36045">
        <ele>76.199996948242</ele>
        <time>2021-05-16T08:44:47Z</time>
      </trkpt>
      <trkpt lat="49.04022" lon="1.36042">
        <ele>76.599998474121</ele>
        <time>2021-05-16T08:44:49Z</time>
      </trkpt>
      <trkpt lat="49.04025" lon="1.36038">
        <ele>77.599998474121</ele>
        <time>2021-05-16T08:44:53Z</time>
      </trkpt>
      <trkpt lat="49.04026" lon="1.36036">
        <ele>77.800003051758</ele>
        <time>2021-05-16T08:44:54Z</time>
      </trkpt>
      <trkpt lat="49.04032" lon="1.36028">
        <ele>79.400001525879</ele>
        <time>2021-05-16T08:45:00Z</time>
      </trkpt>
      <trkpt lat="49.04036" lon="1.36023">
        <ele>80.400001525879</ele>
        <time>2021-05-16T08:45:04Z</time>
      </trkpt>
      <trkpt lat="49.04041" lon="1.36019">
        <ele>81.599998474121</ele>
        <time>2021-05-16T08:45:09Z</time>
      </trkpt>
      <trkpt lat="49.04043" lon="1.36016">
        <ele>82</ele>
        <time>2021-05-16T08:45:11Z</time>
      </trkpt>
      <trkpt lat="49.04049" lon="1.36011">
        <ele>82.800003051758</ele>
        <time>2021-05-16T08:45:17Z</time>
      </trkpt>
      <trkpt lat="49.0405" lon="1.3601">
        <ele>83</ele>
        <time>2021-05-16T08:45:18Z</time>
      </trkpt>
      <trkpt lat="49.04055" lon="1.36006">
        <ele>84.199996948242</ele>
        <time>2021-05-16T08:45:24Z</time>
      </trkpt>
      <trkpt lat="49.04056" lon="1.36006">
        <ele>84.400001525879</ele>
        <time>2021-05-16T08:45:25Z</time>
      </trkpt>
      <trkpt lat="49.04058" lon="1.36006">
        <ele>85</ele>
        <time>2021-05-16T08:45:28Z</time>
      </trkpt>
      <trkpt lat="49.04061" lon="1.36006">
        <ele>85.400001525879</ele>
        <time>2021-05-16T08:45:30Z</time>
      </trkpt>
      <trkpt lat="49.04063" lon="1.36008">
        <ele>85.800003051758</ele>
        <time>2021-05-16T08:45:32Z</time>
      </trkpt>
      <trkpt lat="49.04065" lon="1.36011">
        <ele>86.800003051758</ele>
        <time>2021-05-16T08:45:35Z</time>
      </trkpt>
      <trkpt lat="49.04067" lon="1.36015">
        <ele>88.199996948242</ele>
        <time>2021-05-16T08:45:38Z</time>
      </trkpt>
      <trkpt lat="49.04068" lon="1.36017">
        <ele>88.400001525879</ele>
        <time>2021-05-16T08:45:40Z</time>
      </trkpt>
      <trkpt lat="49.0407" lon="1.3602">
        <ele>89.199996948242</ele>
        <time>2021-05-16T08:45:43Z</time>
      </trkpt>
      <trkpt lat="49.04073" lon="1.36025">
        <ele>90.400001525879</ele>
        <time>2021-05-16T08:45:48Z</time>
      </trkpt>
      <trkpt lat="49.04076" lon="1.3603">
        <ele>91.599998474121</ele>
        <time>2021-05-16T08:45:53Z</time>
      </trkpt>
      <trkpt lat="49.0408" lon="1.36032">
        <ele>92.800003051758</ele>
        <time>2021-05-16T08:45:58Z</time>
      </trkpt>
      <trkpt lat="49.04081" lon="1.36031">
        <ele>93</ele>
        <time>2021-05-16T08:45:59Z</time>
      </trkpt>
      <trkpt lat="49.04083" lon="1.36031">
        <ele>93.199996948242</ele>
        <time>2021-05-16T08:46:00Z</time>
      </trkpt>
      <trkpt lat="49.04087" lon="1.36029">
        <ele>94</ele>
        <time>2021-05-16T08:46:04Z</time>
      </trkpt>
      <trkpt lat="49.04088" lon="1.36028">
        <ele>94.400001525879</ele>
        <time>2021-05-16T08:46:05Z</time>
      </trkpt>
      <trkpt lat="49.04093" lon="1.36026">
        <ele>95.400001525879</ele>
        <time>2021-05-16T08:46:09Z</time>
      </trkpt>
      <trkpt lat="49.04097" lon="1.36024">
        <ele>96.199996948242</ele>
        <time>2021-05-16T08:46:13Z</time>
      </trkpt>
      <trkpt lat="49.04099" lon="1.36022">
        <ele>96.800003051758</ele>
        <time>2021-05-16T08:46:15Z</time>
      </trkpt>
      <trkpt lat="49.04102" lon="1.3602">
        <ele>97.800003051758</ele>
        <time>2021-05-16T08:46:19Z</time>
      </trkpt>
      <trkpt lat="49.04108" lon="1.36017">
        <ele>99.199996948242</ele>
        <time>2021-05-16T08:46:24Z</time>
      </trkpt>
      <trkpt lat="49.04109" lon="1.36015">
        <ele>99.599998474121</ele>
        <time>2021-05-16T08:46:26Z</time>
      </trkpt>
      <trkpt lat="49.04112" lon="1.36014">
        <ele>100.19999694824</ele>
        <time>2021-05-16T08:46:29Z</time>
      </trkpt>
      <trkpt lat="49.04116" lon="1.36013">
        <ele>101.40000152588</ele>
        <time>2021-05-16T08:46:33Z</time>
      </trkpt>
      <trkpt lat="49.04123" lon="1.36008">
        <ele>102.40000152588</ele>
        <time>2021-05-16T08:46:39Z</time>
      </trkpt>
      <trkpt lat="49.04125" lon="1.36008">
        <ele>102.59999847412</ele>
        <time>2021-05-16T08:46:40Z</time>
      </trkpt>
      <trkpt lat="49.04127" lon="1.36007">
        <ele>103</ele>
        <time>2021-05-16T08:46:42Z</time>
      </trkpt>
      <trkpt lat="49.0413" lon="1.36006">
        <ele>103.40000152588</ele>
        <time>2021-05-16T08:46:45Z</time>
      </trkpt>
      <trkpt lat="49.04136" lon="1.36004">
        <ele>104.80000305176</ele>
        <time>2021-05-16T08:46:50Z</time>
      </trkpt>
      <trkpt lat="49.04138" lon="1.36003">
        <ele>105</ele>
        <time>2021-05-16T08:46:51Z</time>
      </trkpt>
      <trkpt lat="49.04142" lon="1.36001">
        <ele>105.80000305176</ele>
        <time>2021-05-16T08:46:55Z</time>
      </trkpt>
      <trkpt lat="49.04143" lon="1.36001">
        <ele>106.19999694824</ele>
        <time>2021-05-16T08:46:56Z</time>
      </trkpt>
      <trkpt lat="49.04145" lon="1.35999">
        <ele>106.80000305176</ele>
        <time>2021-05-16T08:46:58Z</time>
      </trkpt>
      <trkpt lat="49.04148" lon="1.35998">
        <ele>107.19999694824</ele>
        <time>2021-05-16T08:47:00Z</time>
      </trkpt>
      <trkpt lat="49.04152" lon="1.35996">
        <ele>108.19999694824</ele>
        <time>2021-05-16T08:47:03Z</time>
      </trkpt>
      <trkpt lat="49.04154" lon="1.35994">
        <ele>108.59999847412</ele>
        <time>2021-05-16T08:47:05Z</time>
      </trkpt>
      <trkpt lat="49.04158" lon="1.3599">
        <ele>109.19999694824</ele>
        <time>2021-05-16T08:47:09Z</time>
      </trkpt>
      <trkpt lat="49.0416" lon="1.35989">
        <ele>109.59999847412</ele>
        <time>2021-05-16T08:47:11Z</time>
      </trkpt>
      <trkpt lat="49.04164" lon="1.35986">
        <ele>110.40000152588</ele>
        <time>2021-05-16T08:47:14Z</time>
      </trkpt>
      <trkpt lat="49.04167" lon="1.35983">
        <ele>111</ele>
        <time>2021-05-16T08:47:17Z</time>
      </trkpt>
      <trkpt lat="49.0417" lon="1.3598">
        <ele>111.59999847412</ele>
        <time>2021-05-16T08:47:21Z</time>
      </trkpt>
      <trkpt lat="49.04174" lon="1.35978">
        <ele>112.80000305176</ele>
        <time>2021-05-16T08:47:26Z</time>
      </trkpt>
      <trkpt lat="49.04175" lon="1.35978">
        <ele>113</ele>
        <time>2021-05-16T08:47:27Z</time>
      </trkpt>
      <trkpt lat="49.04175" lon="1.35977">
        <ele>113.19999694824</ele>
        <time>2021-05-16T08:47:28Z</time>
      </trkpt>
      <trkpt lat="49.0418" lon="1.35965">
        <ele>116.19999694824</ele>
        <time>2021-05-16T08:48:55Z</time>
      </trkpt>
      <trkpt lat="49.04183" lon="1.35962">
        <ele>116.19999694824</ele>
        <time>2021-05-16T08:48:59Z</time>
      </trkpt>
      <trkpt lat="49.04184" lon="1.35961">
        <ele>116.40000152588</ele>
        <time>2021-05-16T08:49:00Z</time>
      </trkpt>
      <trkpt lat="49.04188" lon="1.3596">
        <ele>116.40000152588</ele>
        <time>2021-05-16T08:49:04Z</time>
      </trkpt>
      <trkpt lat="49.04196" lon="1.3596">
        <ele>117.19999694824</ele>
        <time>2021-05-16T08:49:09Z</time>
      </trkpt>
      <trkpt lat="49.04199" lon="1.3596">
        <ele>117.59999847412</ele>
        <time>2021-05-16T08:49:11Z</time>
      </trkpt>
      <trkpt lat="49.04205" lon="1.35961">
        <ele>118.59999847412</ele>
        <time>2021-05-16T08:49:15Z</time>
      </trkpt>
      <trkpt lat="49.04207" lon="1.35961">
        <ele>118.80000305176</ele>
        <time>2021-05-16T08:49:16Z</time>
      </trkpt>
      <trkpt lat="49.04211" lon="1.35963">
        <ele>119.80000305176</ele>
        <time>2021-05-16T08:49:19Z</time>
      </trkpt>
      <trkpt lat="49.04214" lon="1.35963">
        <ele>120.19999694824</ele>
        <time>2021-05-16T08:49:21Z</time>
      </trkpt>
      <trkpt lat="49.0422" lon="1.35966">
        <ele>121.40000152588</ele>
        <time>2021-05-16T08:49:25Z</time>
      </trkpt>
      <trkpt lat="49.04224" lon="1.35968">
        <ele>122</ele>
        <time>2021-05-16T08:49:28Z</time>
      </trkpt>
      <trkpt lat="49.04229" lon="1.3597">
        <ele>122.59999847412</ele>
        <time>2021-05-16T08:49:31Z</time>
      </trkpt>
      <trkpt lat="49.04234" lon="1.35972">
        <ele>123.19999694824</ele>
        <time>2021-05-16T08:49:35Z</time>
      </trkpt>
      <trkpt lat="49.04237" lon="1.35975">
        <ele>124.19999694824</ele>
        <time>2021-05-16T08:49:42Z</time>
      </trkpt>
      <trkpt lat="49.04242" lon="1.35982">
        <ele>124.19999694824</ele>
        <time>2021-05-16T08:49:46Z</time>
      </trkpt>
      <trkpt lat="49.0425" lon="1.35992">
        <ele>124.19999694824</ele>
        <time>2021-05-16T08:49:50Z</time>
      </trkpt>
      <trkpt lat="49.04265" lon="1.36009">
        <ele>124.40000152588</ele>
        <time>2021-05-16T08:49:56Z</time>
      </trkpt>
      <trkpt lat="49.04277" lon="1.36029">
        <ele>124.40000152588</ele>
        <time>2021-05-16T08:50:01Z</time>
      </trkpt>
      <trkpt lat="49.04296" lon="1.3607">
        <ele>125</ele>
        <time>2021-05-16T08:50:09Z</time>
      </trkpt>
      <trkpt lat="49.04312" lon="1.36098">
        <ele>125.40000152588</ele>
        <time>2021-05-16T08:50:15Z</time>
      </trkpt>
      <trkpt lat="49.04336" lon="1.36135">
        <ele>125.40000152588</ele>
        <time>2021-05-16T08:50:23Z</time>
      </trkpt>
      <trkpt lat="49.04359" lon="1.36171">
        <ele>125.80000305176</ele>
        <time>2021-05-16T08:50:31Z</time>
      </trkpt>
      <trkpt lat="49.04361" lon="1.36175">
        <ele>125.80000305176</ele>
        <time>2021-05-16T08:50:32Z</time>
      </trkpt>
      <trkpt lat="49.04376" lon="1.36198">
        <ele>126.19999694824</ele>
        <time>2021-05-16T08:50:38Z</time>
      </trkpt>
      <trkpt lat="49.04393" lon="1.36204">
        <ele>126.59999847412</ele>
        <time>2021-05-16T08:50:43Z</time>
      </trkpt>
      <trkpt lat="49.04411" lon="1.36222">
        <ele>126.80000305176</ele>
        <time>2021-05-16T08:50:49Z</time>
      </trkpt>
      <trkpt lat="49.04429" lon="1.3624">
        <ele>126.80000305176</ele>
        <time>2021-05-16T08:50:55Z</time>
      </trkpt>
      <trkpt lat="49.04441" lon="1.36229">
        <ele>127</ele>
        <time>2021-05-16T08:50:59Z</time>
      </trkpt>
      <trkpt lat="49.04452" lon="1.3621">
        <ele>126.80000305176</ele>
        <time>2021-05-16T08:51:05Z</time>
      </trkpt>
      <trkpt lat="49.04452" lon="1.36207">
        <ele>126.80000305176</ele>
        <time>2021-05-16T08:51:06Z</time>
      </trkpt>
      <trkpt lat="49.04452" lon="1.36202">
        <ele>126.80000305176</ele>
        <time>2021-05-16T08:51:09Z</time>
      </trkpt>
      <trkpt lat="49.04452" lon="1.36202">
        <ele>127.19999694824</ele>
        <time>2021-05-16T08:51:10Z</time>
      </trkpt>
      <trkpt lat="49.04454" lon="1.362">
        <ele>128.39999389648</ele>
        <time>2021-05-16T08:51:25Z</time>
      </trkpt>
      <trkpt lat="49.04456" lon="1.36193">
        <ele>128.39999389648</ele>
        <time>2021-05-16T08:51:27Z</time>
      </trkpt>
      <trkpt lat="49.04461" lon="1.36178">
        <ele>128.39999389648</ele>
        <time>2021-05-16T08:51:30Z</time>
      </trkpt>
      <trkpt lat="49.04469" lon="1.36161">
        <ele>128.39999389648</ele>
        <time>2021-05-16T08:51:33Z</time>
      </trkpt>
      <trkpt lat="49.04491" lon="1.36112">
        <ele>127.40000152588</ele>
        <time>2021-05-16T08:51:41Z</time>
      </trkpt>
      <trkpt lat="49.04494" lon="1.36105">
        <ele>127.40000152588</ele>
        <time>2021-05-16T08:51:42Z</time>
      </trkpt>
      <trkpt lat="49.04522" lon="1.36036">
        <ele>127.59999847412</ele>
        <time>2021-05-16T08:51:53Z</time>
      </trkpt>
      <trkpt lat="49.04529" lon="1.36018">
        <ele>127.80000305176</ele>
        <time>2021-05-16T08:51:56Z</time>
      </trkpt>
      <trkpt lat="49.04531" lon="1.36004">
        <ele>127.80000305176</ele>
        <time>2021-05-16T08:51:58Z</time>
      </trkpt>
      <trkpt lat="49.04531" lon="1.3599">
        <ele>127.80000305176</ele>
        <time>2021-05-16T08:52:00Z</time>
      </trkpt>
      <trkpt lat="49.0453" lon="1.35983">
        <ele>128</ele>
        <time>2021-05-16T08:52:01Z</time>
      </trkpt>
      <trkpt lat="49.04531" lon="1.35977">
        <ele>128.19999694824</ele>
        <time>2021-05-16T08:52:02Z</time>
      </trkpt>
      <trkpt lat="49.04532" lon="1.35965">
        <ele>129.19999694824</ele>
        <time>2021-05-16T08:52:04Z</time>
      </trkpt>
      <trkpt lat="49.04534" lon="1.35953">
        <ele>129.60000610352</ele>
        <time>2021-05-16T08:52:06Z</time>
      </trkpt>
      <trkpt lat="49.04536" lon="1.35947">
        <ele>129.60000610352</ele>
        <time>2021-05-16T08:52:07Z</time>
      </trkpt>
      <trkpt lat="49.04554" lon="1.35916">
        <ele>129.80000305176</ele>
        <time>2021-05-16T08:52:13Z</time>
      </trkpt>
      <trkpt lat="49.04578" lon="1.35869">
        <ele>129.60000610352</ele>
        <time>2021-05-16T08:52:22Z</time>
      </trkpt>
      <trkpt lat="49.04581" lon="1.35856">
        <ele>129.60000610352</ele>
        <time>2021-05-16T08:52:24Z</time>
      </trkpt>
      <trkpt lat="49.0458" lon="1.35844">
        <ele>129.60000610352</ele>
        <time>2021-05-16T08:52:26Z</time>
      </trkpt>
      <trkpt lat="49.04568" lon="1.35822">
        <ele>129.60000610352</ele>
        <time>2021-05-16T08:52:30Z</time>
      </trkpt>
      <trkpt lat="49.04565" lon="1.35818">
        <ele>129.39999389648</ele>
        <time>2021-05-16T08:52:31Z</time>
      </trkpt>
      <trkpt lat="49.04547" lon="1.35795">
        <ele>129.39999389648</ele>
        <time>2021-05-16T08:52:36Z</time>
      </trkpt>
      <trkpt lat="49.04521" lon="1.35752">
        <ele>129</ele>
        <time>2021-05-16T08:52:43Z</time>
      </trkpt>
      <trkpt lat="49.0452" lon="1.35729">
        <ele>128.80000305176</ele>
        <time>2021-05-16T08:52:46Z</time>
      </trkpt>
      <trkpt lat="49.04524" lon="1.35724">
        <ele>128.80000305176</ele>
        <time>2021-05-16T08:52:47Z</time>
      </trkpt>
      <trkpt lat="49.04528" lon="1.3572">
        <ele>128.60000610352</ele>
        <time>2021-05-16T08:52:48Z</time>
      </trkpt>
      <trkpt lat="49.04533" lon="1.35717">
        <ele>128.39999389648</ele>
        <time>2021-05-16T08:52:49Z</time>
      </trkpt>
      <trkpt lat="49.04556" lon="1.35699">
        <ele>128</ele>
        <time>2021-05-16T08:52:54Z</time>
      </trkpt>
      <trkpt lat="49.04563" lon="1.35692">
        <ele>128</ele>
        <time>2021-05-16T08:52:56Z</time>
      </trkpt>
      <trkpt lat="49.04567" lon="1.35687">
        <ele>127.80000305176</ele>
        <time>2021-05-16T08:52:57Z</time>
      </trkpt>
      <trkpt lat="49.04566" lon="1.35668">
        <ele>127.80000305176</ele>
        <time>2021-05-16T08:53:00Z</time>
      </trkpt>
      <trkpt lat="49.0456" lon="1.35655">
        <ele>127.80000305176</ele>
        <time>2021-05-16T08:53:02Z</time>
      </trkpt>
      <trkpt lat="49.04549" lon="1.35634">
        <ele>127.80000305176</ele>
        <time>2021-05-16T08:53:05Z</time>
      </trkpt>
      <trkpt lat="49.04529" lon="1.35595">
        <ele>127.59999847412</ele>
        <time>2021-05-16T08:53:11Z</time>
      </trkpt>
      <trkpt lat="49.04526" lon="1.3559">
        <ele>127.40000152588</ele>
        <time>2021-05-16T08:53:12Z</time>
      </trkpt>
      <trkpt lat="49.04523" lon="1.35584">
        <ele>127.40000152588</ele>
        <time>2021-05-16T08:53:13Z</time>
      </trkpt>
      <trkpt lat="49.0452" lon="1.35579">
        <ele>127</ele>
        <time>2021-05-16T08:53:14Z</time>
      </trkpt>
      <trkpt lat="49.0451" lon="1.35563">
        <ele>126.19999694824</ele>
        <time>2021-05-16T08:53:17Z</time>
      </trkpt>
      <trkpt lat="49.04503" lon="1.35555">
        <ele>126</ele>
        <time>2021-05-16T08:53:19Z</time>
      </trkpt>
      <trkpt lat="49.04494" lon="1.3554">
        <ele>125.80000305176</ele>
        <time>2021-05-16T08:53:22Z</time>
      </trkpt>
      <trkpt lat="49.04488" lon="1.35507">
        <ele>125.80000305176</ele>
        <time>2021-05-16T08:53:26Z</time>
      </trkpt>
      <trkpt lat="49.04496" lon="1.35474">
        <ele>125.59999847412</ele>
        <time>2021-05-16T08:53:30Z</time>
      </trkpt>
      <trkpt lat="49.04499" lon="1.35467">
        <ele>125.40000152588</ele>
        <time>2021-05-16T08:53:31Z</time>
      </trkpt>
      <trkpt lat="49.04513" lon="1.35442">
        <ele>125.19999694824</ele>
        <time>2021-05-16T08:53:35Z</time>
      </trkpt>
      <trkpt lat="49.04516" lon="1.35437">
        <ele>125.19999694824</ele>
        <time>2021-05-16T08:53:36Z</time>
      </trkpt>
      <trkpt lat="49.04542" lon="1.35384">
        <ele>125.19999694824</ele>
        <time>2021-05-16T08:53:44Z</time>
      </trkpt>
      <trkpt lat="49.0456" lon="1.35335">
        <ele>125.59999847412</ele>
        <time>2021-05-16T08:53:51Z</time>
      </trkpt>
      <trkpt lat="49.04567" lon="1.35311">
        <ele>125.59999847412</ele>
        <time>2021-05-16T08:53:54Z</time>
      </trkpt>
      <trkpt lat="49.04577" lon="1.3529">
        <ele>125.59999847412</ele>
        <time>2021-05-16T08:53:57Z</time>
      </trkpt>
      <trkpt lat="49.04605" lon="1.35244">
        <ele>124.80000305176</ele>
        <time>2021-05-16T08:54:04Z</time>
      </trkpt>
      <trkpt lat="49.04614" lon="1.3523">
        <ele>124.40000152588</ele>
        <time>2021-05-16T08:54:06Z</time>
      </trkpt>
      <trkpt lat="49.04639" lon="1.35188">
        <ele>123.59999847412</ele>
        <time>2021-05-16T08:54:12Z</time>
      </trkpt>
      <trkpt lat="49.04644" lon="1.35182">
        <ele>123.40000152588</ele>
        <time>2021-05-16T08:54:13Z</time>
      </trkpt>
      <trkpt lat="49.04661" lon="1.35159">
        <ele>122.80000305176</ele>
        <time>2021-05-16T08:54:17Z</time>
      </trkpt>
      <trkpt lat="49.04671" lon="1.35147">
        <ele>122.59999847412</ele>
        <time>2021-05-16T08:54:20Z</time>
      </trkpt>
      <trkpt lat="49.04673" lon="1.35143">
        <ele>122.40000152588</ele>
        <time>2021-05-16T08:54:21Z</time>
      </trkpt>
      <trkpt lat="49.04686" lon="1.35126">
        <ele>121.40000152588</ele>
        <time>2021-05-16T08:54:25Z</time>
      </trkpt>
      <trkpt lat="49.0469" lon="1.3512">
        <ele>121</ele>
        <time>2021-05-16T08:54:26Z</time>
      </trkpt>
      <trkpt lat="49.047" lon="1.35109">
        <ele>121</ele>
        <time>2021-05-16T08:54:28Z</time>
      </trkpt>
      <trkpt lat="49.0471" lon="1.35099">
        <ele>120.59999847412</ele>
        <time>2021-05-16T08:54:30Z</time>
      </trkpt>
      <trkpt lat="49.04718" lon="1.35088">
        <ele>120.19999694824</ele>
        <time>2021-05-16T08:54:32Z</time>
      </trkpt>
      <trkpt lat="49.04724" lon="1.35072">
        <ele>119.59999847412</ele>
        <time>2021-05-16T08:54:34Z</time>
      </trkpt>
      <trkpt lat="49.04728" lon="1.35063">
        <ele>119</ele>
        <time>2021-05-16T08:54:35Z</time>
      </trkpt>
      <trkpt lat="49.04731" lon="1.35055">
        <ele>118.59999847412</ele>
        <time>2021-05-16T08:54:36Z</time>
      </trkpt>
      <trkpt lat="49.0474" lon="1.35037">
        <ele>117.80000305176</ele>
        <time>2021-05-16T08:54:38Z</time>
      </trkpt>
      <trkpt lat="49.04745" lon="1.35027">
        <ele>117.40000152588</ele>
        <time>2021-05-16T08:54:39Z</time>
      </trkpt>
      <trkpt lat="49.04753" lon="1.35007">
        <ele>116.40000152588</ele>
        <time>2021-05-16T08:54:41Z</time>
      </trkpt>
      <trkpt lat="49.04758" lon="1.34996">
        <ele>116</ele>
        <time>2021-05-16T08:54:42Z</time>
      </trkpt>
      <trkpt lat="49.04769" lon="1.34973">
        <ele>115</ele>
        <time>2021-05-16T08:54:44Z</time>
      </trkpt>
      <trkpt lat="49.0478" lon="1.3495">
        <ele>113.80000305176</ele>
        <time>2021-05-16T08:54:46Z</time>
      </trkpt>
      <trkpt lat="49.04791" lon="1.34924">
        <ele>112.59999847412</ele>
        <time>2021-05-16T08:54:48Z</time>
      </trkpt>
      <trkpt lat="49.04797" lon="1.34911">
        <ele>112</ele>
        <time>2021-05-16T08:54:49Z</time>
      </trkpt>
      <trkpt lat="49.04803" lon="1.34898">
        <ele>111.19999694824</ele>
        <time>2021-05-16T08:54:50Z</time>
      </trkpt>
      <trkpt lat="49.04813" lon="1.34874">
        <ele>109.59999847412</ele>
        <time>2021-05-16T08:54:52Z</time>
      </trkpt>
      <trkpt lat="49.04821" lon="1.34846">
        <ele>107.80000305176</ele>
        <time>2021-05-16T08:54:54Z</time>
      </trkpt>
      <trkpt lat="49.04828" lon="1.34819">
        <ele>106.19999694824</ele>
        <time>2021-05-16T08:54:56Z</time>
      </trkpt>
      <trkpt lat="49.04836" lon="1.34793">
        <ele>104</ele>
        <time>2021-05-16T08:54:58Z</time>
      </trkpt>
      <trkpt lat="49.04839" lon="1.34779">
        <ele>102.80000305176</ele>
        <time>2021-05-16T08:54:59Z</time>
      </trkpt>
      <trkpt lat="49.04843" lon="1.34765">
        <ele>101.80000305176</ele>
        <time>2021-05-16T08:55:00Z</time>
      </trkpt>
      <trkpt lat="49.04846" lon="1.34752">
        <ele>101</ele>
        <time>2021-05-16T08:55:01Z</time>
      </trkpt>
      <trkpt lat="49.04854" lon="1.34725">
        <ele>98.199996948242</ele>
        <time>2021-05-16T08:55:03Z</time>
      </trkpt>
      <trkpt lat="49.04858" lon="1.34712">
        <ele>97</ele>
        <time>2021-05-16T08:55:04Z</time>
      </trkpt>
      <trkpt lat="49.04865" lon="1.34686">
        <ele>95.199996948242</ele>
        <time>2021-05-16T08:55:06Z</time>
      </trkpt>
      <trkpt lat="49.04871" lon="1.34663">
        <ele>93.800003051758</ele>
        <time>2021-05-16T08:55:08Z</time>
      </trkpt>
      <trkpt lat="49.04875" lon="1.34651">
        <ele>93.199996948242</ele>
        <time>2021-05-16T08:55:09Z</time>
      </trkpt>
      <trkpt lat="49.04878" lon="1.3464">
        <ele>92.400001525879</ele>
        <time>2021-05-16T08:55:10Z</time>
      </trkpt>
      <trkpt lat="49.04885" lon="1.34616">
        <ele>90.800003051758</ele>
        <time>2021-05-16T08:55:12Z</time>
      </trkpt>
      <trkpt lat="49.04892" lon="1.34592">
        <ele>89.800003051758</ele>
        <time>2021-05-16T08:55:14Z</time>
      </trkpt>
      <trkpt lat="49.04899" lon="1.34568">
        <ele>88.599998474121</ele>
        <time>2021-05-16T08:55:16Z</time>
      </trkpt>
      <trkpt lat="49.04906" lon="1.34543">
        <ele>87.599998474121</ele>
        <time>2021-05-16T08:55:18Z</time>
      </trkpt>
      <trkpt lat="49.04913" lon="1.34518">
        <ele>86.400001525879</ele>
        <time>2021-05-16T08:55:20Z</time>
      </trkpt>
      <trkpt lat="49.0492" lon="1.34492">
        <ele>84.800003051758</ele>
        <time>2021-05-16T08:55:22Z</time>
      </trkpt>
      <trkpt lat="49.04928" lon="1.34467">
        <ele>83.599998474121</ele>
        <time>2021-05-16T08:55:24Z</time>
      </trkpt>
      <trkpt lat="49.04932" lon="1.34455">
        <ele>83.199996948242</ele>
        <time>2021-05-16T08:55:25Z</time>
      </trkpt>
      <trkpt lat="49.04939" lon="1.34431">
        <ele>82.599998474121</ele>
        <time>2021-05-16T08:55:27Z</time>
      </trkpt>
      <trkpt lat="49.0495" lon="1.34396">
        <ele>81.400001525879</ele>
        <time>2021-05-16T08:55:30Z</time>
      </trkpt>
      <trkpt lat="49.04958" lon="1.34372">
        <ele>80.400001525879</ele>
        <time>2021-05-16T08:55:32Z</time>
      </trkpt>
      <trkpt lat="49.04973" lon="1.34326">
        <ele>79</ele>
        <time>2021-05-16T08:55:36Z</time>
      </trkpt>
      <trkpt lat="49.04981" lon="1.34304">
        <ele>78</ele>
        <time>2021-05-16T08:55:38Z</time>
      </trkpt>
      <trkpt lat="49.04986" lon="1.34294">
        <ele>77.400001525879</ele>
        <time>2021-05-16T08:55:39Z</time>
      </trkpt>
      <trkpt lat="49.05005" lon="1.34271">
        <ele>76</ele>
        <time>2021-05-16T08:55:42Z</time>
      </trkpt>
      <trkpt lat="49.05012" lon="1.34261">
        <ele>75.599998474121</ele>
        <time>2021-05-16T08:55:43Z</time>
      </trkpt>
      <trkpt lat="49.05018" lon="1.34252">
        <ele>75</ele>
        <time>2021-05-16T08:55:44Z</time>
      </trkpt>
      <trkpt lat="49.0503" lon="1.34231">
        <ele>73.800003051758</ele>
        <time>2021-05-16T08:55:46Z</time>
      </trkpt>
      <trkpt lat="49.05039" lon="1.34208">
        <ele>72.800003051758</ele>
        <time>2021-05-16T08:55:48Z</time>
      </trkpt>
      <trkpt lat="49.05043" lon="1.34196">
        <ele>72.199996948242</ele>
        <time>2021-05-16T08:55:49Z</time>
      </trkpt>
      <trkpt lat="49.05052" lon="1.34171">
        <ele>70.599998474121</ele>
        <time>2021-05-16T08:55:51Z</time>
      </trkpt>
      <trkpt lat="49.05062" lon="1.34148">
        <ele>68.800003051758</ele>
        <time>2021-05-16T08:55:53Z</time>
      </trkpt>
      <trkpt lat="49.05072" lon="1.34128">
        <ele>67</ele>
        <time>2021-05-16T08:55:55Z</time>
      </trkpt>
      <trkpt lat="49.05084" lon="1.34108">
        <ele>65.400001525879</ele>
        <time>2021-05-16T08:55:57Z</time>
      </trkpt>
      <trkpt lat="49.0509" lon="1.34099">
        <ele>64.400001525879</ele>
        <time>2021-05-16T08:55:58Z</time>
      </trkpt>
      <trkpt lat="49.05096" lon="1.34089">
        <ele>62</ele>
        <time>2021-05-16T08:55:59Z</time>
      </trkpt>
      <trkpt lat="49.05101" lon="1.3408">
        <ele>60.599998474121</ele>
        <time>2021-05-16T08:56:00Z</time>
      </trkpt>
      <trkpt lat="49.05106" lon="1.34072">
        <ele>59.200000762939</ele>
        <time>2021-05-16T08:56:01Z</time>
      </trkpt>
      <trkpt lat="49.05108" lon="1.34064">
        <ele>57.799999237061</ele>
        <time>2021-05-16T08:56:02Z</time>
      </trkpt>
      <trkpt lat="49.0511" lon="1.34056">
        <ele>56.599998474121</ele>
        <time>2021-05-16T08:56:03Z</time>
      </trkpt>
      <trkpt lat="49.05112" lon="1.3405">
        <ele>55.400001525879</ele>
        <time>2021-05-16T08:56:04Z</time>
      </trkpt>
      <trkpt lat="49.05114" lon="1.34047">
        <ele>54.400001525879</ele>
        <time>2021-05-16T08:56:05Z</time>
      </trkpt>
      <trkpt lat="49.05117" lon="1.34046">
        <ele>53</ele>
        <time>2021-05-16T08:56:06Z</time>
      </trkpt>
      <trkpt lat="49.0512" lon="1.34045">
        <ele>51.799999237061</ele>
        <time>2021-05-16T08:56:07Z</time>
      </trkpt>
      <trkpt lat="49.05122" lon="1.34045">
        <ele>50.400001525879</ele>
        <time>2021-05-16T08:56:08Z</time>
      </trkpt>
      <trkpt lat="49.05125" lon="1.34046">
        <ele>49.200000762939</ele>
        <time>2021-05-16T08:56:09Z</time>
      </trkpt>
      <trkpt lat="49.0513" lon="1.34046">
        <ele>47.400001525879</ele>
        <time>2021-05-16T08:56:11Z</time>
      </trkpt>
      <trkpt lat="49.05134" lon="1.34044">
        <ele>46.599998474121</ele>
        <time>2021-05-16T08:56:13Z</time>
      </trkpt>
      <trkpt lat="49.05145" lon="1.34034">
        <ele>46.400001525879</ele>
        <time>2021-05-16T08:56:19Z</time>
      </trkpt>
      <trkpt lat="49.05155" lon="1.34024">
        <ele>47.799999237061</ele>
        <time>2021-05-16T08:56:26Z</time>
      </trkpt>
      <trkpt lat="49.05157" lon="1.34023">
        <ele>48.599998474121</ele>
        <time>2021-05-16T08:56:27Z</time>
      </trkpt>
      <trkpt lat="49.05169" lon="1.34013">
        <ele>49.799999237061</ele>
        <time>2021-05-16T08:56:33Z</time>
      </trkpt>
      <trkpt lat="49.05171" lon="1.34011">
        <ele>50.200000762939</ele>
        <time>2021-05-16T08:56:34Z</time>
      </trkpt>
      <trkpt lat="49.05179" lon="1.34005">
        <ele>51</ele>
        <time>2021-05-16T08:56:38Z</time>
      </trkpt>
      <trkpt lat="49.05186" lon="1.34001">
        <ele>51.799999237061</ele>
        <time>2021-05-16T08:56:41Z</time>
      </trkpt>
      <trkpt lat="49.05188" lon="1.33999">
        <ele>52</ele>
        <time>2021-05-16T08:56:42Z</time>
      </trkpt>
      <trkpt lat="49.05199" lon="1.33991">
        <ele>53.400001525879</ele>
        <time>2021-05-16T08:56:47Z</time>
      </trkpt>
      <trkpt lat="49.05203" lon="1.3399">
        <ele>53.799999237061</ele>
        <time>2021-05-16T08:56:49Z</time>
      </trkpt>
      <trkpt lat="49.05208" lon="1.33989">
        <ele>54.599998474121</ele>
        <time>2021-05-16T08:56:52Z</time>
      </trkpt>
      <trkpt lat="49.05213" lon="1.33987">
        <ele>55.200000762939</ele>
        <time>2021-05-16T08:56:54Z</time>
      </trkpt>
      <trkpt lat="49.05215" lon="1.33986">
        <ele>55.599998474121</ele>
        <time>2021-05-16T08:56:55Z</time>
      </trkpt>
      <trkpt lat="49.05227" lon="1.33982">
        <ele>57.200000762939</ele>
        <time>2021-05-16T08:57:00Z</time>
      </trkpt>
      <trkpt lat="49.05231" lon="1.33981">
        <ele>57.599998474121</ele>
        <time>2021-05-16T08:57:02Z</time>
      </trkpt>
      <trkpt lat="49.05239" lon="1.33976">
        <ele>58.200000762939</ele>
        <time>2021-05-16T08:57:06Z</time>
      </trkpt>
      <trkpt lat="49.05248" lon="1.33972">
        <ele>59.400001525879</ele>
        <time>2021-05-16T08:57:10Z</time>
      </trkpt>
      <trkpt lat="49.05252" lon="1.33971">
        <ele>60</ele>
        <time>2021-05-16T08:57:12Z</time>
      </trkpt>
      <trkpt lat="49.05254" lon="1.33972">
        <ele>60.400001525879</ele>
        <time>2021-05-16T08:57:13Z</time>
      </trkpt>
      <trkpt lat="49.05256" lon="1.33977">
        <ele>60.799999237061</ele>
        <time>2021-05-16T08:57:16Z</time>
      </trkpt>
      <trkpt lat="49.05257" lon="1.33978">
        <ele>61.599998474121</ele>
        <time>2021-05-16T08:57:20Z</time>
      </trkpt>
      <trkpt lat="49.05258" lon="1.33977">
        <ele>61.799999237061</ele>
        <time>2021-05-16T08:57:22Z</time>
      </trkpt>
      <trkpt lat="49.05258" lon="1.33976">
        <ele>62.400001525879</ele>
        <time>2021-05-16T08:57:24Z</time>
      </trkpt>
      <trkpt lat="49.05259" lon="1.33975">
        <ele>64.400001525879</ele>
        <time>2021-05-16T08:58:24Z</time>
      </trkpt>
      <trkpt lat="49.0526" lon="1.33974">
        <ele>64.400001525879</ele>
        <time>2021-05-16T08:58:25Z</time>
      </trkpt>
      <trkpt lat="49.05271" lon="1.33963">
        <ele>64.199996948242</ele>
        <time>2021-05-16T08:58:30Z</time>
      </trkpt>
      <trkpt lat="49.05291" lon="1.33943">
        <ele>64.199996948242</ele>
        <time>2021-05-16T08:58:35Z</time>
      </trkpt>
      <trkpt lat="49.05296" lon="1.33939">
        <ele>64</ele>
        <time>2021-05-16T08:58:36Z</time>
      </trkpt>
      <trkpt lat="49.05304" lon="1.33931">
        <ele>63.400001525879</ele>
        <time>2021-05-16T08:58:38Z</time>
      </trkpt>
      <trkpt lat="49.05312" lon="1.33923">
        <ele>63</ele>
        <time>2021-05-16T08:58:40Z</time>
      </trkpt>
      <trkpt lat="49.05319" lon="1.33916">
        <ele>62.400001525879</ele>
        <time>2021-05-16T08:58:42Z</time>
      </trkpt>
      <trkpt lat="49.05323" lon="1.33912">
        <ele>61.799999237061</ele>
        <time>2021-05-16T08:58:44Z</time>
      </trkpt>
      <trkpt lat="49.05334" lon="1.339">
        <ele>61.599998474121</ele>
        <time>2021-05-16T08:58:49Z</time>
      </trkpt>
      <trkpt lat="49.05359" lon="1.33876">
        <ele>62.200000762939</ele>
        <time>2021-05-16T08:58:55Z</time>
      </trkpt>
      <trkpt lat="49.05404" lon="1.33838">
        <ele>62.599998474121</ele>
        <time>2021-05-16T08:59:04Z</time>
      </trkpt>
      <trkpt lat="49.05444" lon="1.33803">
        <ele>62.400001525879</ele>
        <time>2021-05-16T08:59:11Z</time>
      </trkpt>
      <trkpt lat="49.05458" lon="1.33789">
        <ele>61.799999237061</ele>
        <time>2021-05-16T08:59:14Z</time>
      </trkpt>
      <trkpt lat="49.05468" lon="1.33779">
        <ele>60.799999237061</ele>
        <time>2021-05-16T08:59:16Z</time>
      </trkpt>
      <trkpt lat="49.05481" lon="1.33764">
        <ele>60.200000762939</ele>
        <time>2021-05-16T08:59:19Z</time>
      </trkpt>
      <trkpt lat="49.05506" lon="1.33737">
        <ele>60</ele>
        <time>2021-05-16T08:59:24Z</time>
      </trkpt>
      <trkpt lat="49.05512" lon="1.33731">
        <ele>59.599998474121</ele>
        <time>2021-05-16T08:59:25Z</time>
      </trkpt>
      <trkpt lat="49.05543" lon="1.33697">
        <ele>59.200000762939</ele>
        <time>2021-05-16T08:59:30Z</time>
      </trkpt>
      <trkpt lat="49.05555" lon="1.3368">
        <ele>58.799999237061</ele>
        <time>2021-05-16T08:59:32Z</time>
      </trkpt>
      <trkpt lat="49.05574" lon="1.33652">
        <ele>57.400001525879</ele>
        <time>2021-05-16T08:59:35Z</time>
      </trkpt>
      <trkpt lat="49.05593" lon="1.33624">
        <ele>56.200000762939</ele>
        <time>2021-05-16T08:59:38Z</time>
      </trkpt>
      <trkpt lat="49.05607" lon="1.33607">
        <ele>55.200000762939</ele>
        <time>2021-05-16T08:59:40Z</time>
      </trkpt>
      <trkpt lat="49.05614" lon="1.33599">
        <ele>54.599998474121</ele>
        <time>2021-05-16T08:59:41Z</time>
      </trkpt>
      <trkpt lat="49.05621" lon="1.33591">
        <ele>54</ele>
        <time>2021-05-16T08:59:42Z</time>
      </trkpt>
      <trkpt lat="49.05636" lon="1.33576">
        <ele>52.599998474121</ele>
        <time>2021-05-16T08:59:44Z</time>
      </trkpt>
      <trkpt lat="49.05649" lon="1.33557">
        <ele>51.599998474121</ele>
        <time>2021-05-16T08:59:46Z</time>
      </trkpt>
      <trkpt lat="49.05655" lon="1.33546">
        <ele>51.200000762939</ele>
        <time>2021-05-16T08:59:47Z</time>
      </trkpt>
      <trkpt lat="49.0567" lon="1.33514">
        <ele>50.799999237061</ele>
        <time>2021-05-16T08:59:50Z</time>
      </trkpt>
      <trkpt lat="49.05677" lon="1.33497">
        <ele>50.200000762939</ele>
        <time>2021-05-16T08:59:52Z</time>
      </trkpt>
      <trkpt lat="49.05681" lon="1.3349">
        <ele>49.599998474121</ele>
        <time>2021-05-16T08:59:53Z</time>
      </trkpt>
      <trkpt lat="49.05686" lon="1.33485">
        <ele>49.200000762939</ele>
        <time>2021-05-16T08:59:54Z</time>
      </trkpt>
      <trkpt lat="49.05697" lon="1.33477">
        <ele>48</ele>
        <time>2021-05-16T08:59:56Z</time>
      </trkpt>
      <trkpt lat="49.05703" lon="1.33472">
        <ele>47.599998474121</ele>
        <time>2021-05-16T08:59:57Z</time>
      </trkpt>
      <trkpt lat="49.05709" lon="1.33468">
        <ele>47</ele>
        <time>2021-05-16T08:59:58Z</time>
      </trkpt>
      <trkpt lat="49.05725" lon="1.33455">
        <ele>45.799999237061</ele>
        <time>2021-05-16T09:00:01Z</time>
      </trkpt>
      <trkpt lat="49.05734" lon="1.33445">
        <ele>45</ele>
        <time>2021-05-16T09:00:03Z</time>
      </trkpt>
      <trkpt lat="49.05735" lon="1.33438">
        <ele>44.799999237061</ele>
        <time>2021-05-16T09:00:04Z</time>
      </trkpt>
      <trkpt lat="49.05725" lon="1.33417">
        <ele>44</ele>
        <time>2021-05-16T09:00:07Z</time>
      </trkpt>
      <trkpt lat="49.05722" lon="1.3341">
        <ele>43.799999237061</ele>
        <time>2021-05-16T09:00:08Z</time>
      </trkpt>
      <trkpt lat="49.05718" lon="1.33402">
        <ele>43.799999237061</ele>
        <time>2021-05-16T09:00:09Z</time>
      </trkpt>
      <trkpt lat="49.05702" lon="1.3337">
        <ele>43.200000762939</ele>
        <time>2021-05-16T09:00:13Z</time>
      </trkpt>
      <trkpt lat="49.05678" lon="1.33322">
        <ele>42.799999237061</ele>
        <time>2021-05-16T09:00:19Z</time>
      </trkpt>
      <trkpt lat="49.05673" lon="1.33315">
        <ele>42.599998474121</ele>
        <time>2021-05-16T09:00:20Z</time>
      </trkpt>
      <trkpt lat="49.05667" lon="1.33309">
        <ele>42.599998474121</ele>
        <time>2021-05-16T09:00:21Z</time>
      </trkpt>
      <trkpt lat="49.05629" lon="1.3328">
        <ele>42.200000762939</ele>
        <time>2021-05-16T09:00:27Z</time>
      </trkpt>
      <trkpt lat="49.05612" lon="1.33265">
        <ele>42.200000762939</ele>
        <time>2021-05-16T09:00:30Z</time>
      </trkpt>
      <trkpt lat="49.05602" lon="1.33254">
        <ele>41.799999237061</ele>
        <time>2021-05-16T09:00:32Z</time>
      </trkpt>
      <trkpt lat="49.05597" lon="1.33248">
        <ele>41.599998474121</ele>
        <time>2021-05-16T09:00:33Z</time>
      </trkpt>
      <trkpt lat="49.05589" lon="1.33234">
        <ele>41.400001525879</ele>
        <time>2021-05-16T09:00:35Z</time>
      </trkpt>
      <trkpt lat="49.05582" lon="1.33218">
        <ele>41</ele>
        <time>2021-05-16T09:00:37Z</time>
      </trkpt>
      <trkpt lat="49.05574" lon="1.33171">
        <ele>40.799999237061</ele>
        <time>2021-05-16T09:00:42Z</time>
      </trkpt>
      <trkpt lat="49.05575" lon="1.33152">
        <ele>41</ele>
        <time>2021-05-16T09:00:44Z</time>
      </trkpt>
      <trkpt lat="49.05575" lon="1.33119">
        <ele>41</ele>
        <time>2021-05-16T09:00:48Z</time>
      </trkpt>
      <trkpt lat="49.05577" lon="1.33074">
        <ele>40.799999237061</ele>
        <time>2021-05-16T09:00:54Z</time>
      </trkpt>
      <trkpt lat="49.0558" lon="1.33067">
        <ele>40.799999237061</ele>
        <time>2021-05-16T09:00:55Z</time>
      </trkpt>
      <trkpt lat="49.05598" lon="1.33032">
        <ele>40.799999237061</ele>
        <time>2021-05-16T09:01:00Z</time>
      </trkpt>
      <trkpt lat="49.0563" lon="1.32965">
        <ele>40.200000762939</ele>
        <time>2021-05-16T09:01:09Z</time>
      </trkpt>
      <trkpt lat="49.05653" lon="1.32925">
        <ele>40</ele>
        <time>2021-05-16T09:01:15Z</time>
      </trkpt>
      <trkpt lat="49.05684" lon="1.3288">
        <ele>40.200000762939</ele>
        <time>2021-05-16T09:01:22Z</time>
      </trkpt>
      <trkpt lat="49.05705" lon="1.32858">
        <ele>40.200000762939</ele>
        <time>2021-05-16T09:01:26Z</time>
      </trkpt>
      <trkpt lat="49.05713" lon="1.32844">
        <ele>40.200000762939</ele>
        <time>2021-05-16T09:01:28Z</time>
      </trkpt>
      <trkpt lat="49.05727" lon="1.32811">
        <ele>40.400001525879</ele>
        <time>2021-05-16T09:01:32Z</time>
      </trkpt>
      <trkpt lat="49.05735" lon="1.32797">
        <ele>40.400001525879</ele>
        <time>2021-05-16T09:01:34Z</time>
      </trkpt>
      <trkpt lat="49.05749" lon="1.32768">
        <ele>40.200000762939</ele>
        <time>2021-05-16T09:01:38Z</time>
      </trkpt>
      <trkpt lat="49.05753" lon="1.32753">
        <ele>40.200000762939</ele>
        <time>2021-05-16T09:01:40Z</time>
      </trkpt>
      <trkpt lat="49.05756" lon="1.32736">
        <ele>40</ele>
        <time>2021-05-16T09:01:42Z</time>
      </trkpt>
      <trkpt lat="49.05757" lon="1.32728">
        <ele>40</ele>
        <time>2021-05-16T09:01:43Z</time>
      </trkpt>
      <trkpt lat="49.05758" lon="1.3272">
        <ele>40</ele>
        <time>2021-05-16T09:01:44Z</time>
      </trkpt>
      <trkpt lat="49.0576" lon="1.32696">
        <ele>40</ele>
        <time>2021-05-16T09:01:47Z</time>
      </trkpt>
      <trkpt lat="49.05765" lon="1.32656">
        <ele>40.200000762939</ele>
        <time>2021-05-16T09:01:52Z</time>
      </trkpt>
      <trkpt lat="49.05769" lon="1.32641">
        <ele>40.200000762939</ele>
        <time>2021-05-16T09:01:54Z</time>
      </trkpt>
      <trkpt lat="49.05789" lon="1.32591">
        <ele>40.400001525879</ele>
        <time>2021-05-16T09:02:01Z</time>
      </trkpt>
      <trkpt lat="49.05813" lon="1.32534">
        <ele>40.200000762939</ele>
        <time>2021-05-16T09:02:10Z</time>
      </trkpt>
      <trkpt lat="49.05847" lon="1.32469">
        <ele>40.400001525879</ele>
        <time>2021-05-16T09:02:20Z</time>
      </trkpt>
      <trkpt lat="49.0585" lon="1.32463">
        <ele>40.400001525879</ele>
        <time>2021-05-16T09:02:21Z</time>
      </trkpt>
      <trkpt lat="49.05884" lon="1.32399">
        <ele>40.400001525879</ele>
        <time>2021-05-16T09:02:31Z</time>
      </trkpt>
      <trkpt lat="49.05894" lon="1.32379">
        <ele>40.200000762939</ele>
        <time>2021-05-16T09:02:34Z</time>
      </trkpt>
      <trkpt lat="49.05924" lon="1.32323">
        <ele>39.799999237061</ele>
        <time>2021-05-16T09:02:43Z</time>
      </trkpt>
      <trkpt lat="49.05959" lon="1.32258">
        <ele>39.799999237061</ele>
        <time>2021-05-16T09:02:54Z</time>
      </trkpt>
      <trkpt lat="49.05962" lon="1.32252">
        <ele>39.799999237061</ele>
        <time>2021-05-16T09:02:55Z</time>
      </trkpt>
      <trkpt lat="49.0599" lon="1.32198">
        <ele>39.799999237061</ele>
        <time>2021-05-16T09:03:05Z</time>
      </trkpt>
      <trkpt lat="49.06007" lon="1.32165">
        <ele>40.400001525879</ele>
        <time>2021-05-16T09:03:11Z</time>
      </trkpt>
      <trkpt lat="49.0603" lon="1.32121">
        <ele>40.599998474121</ele>
        <time>2021-05-16T09:03:19Z</time>
      </trkpt>
      <trkpt lat="49.06054" lon="1.32071">
        <ele>40.599998474121</ele>
        <time>2021-05-16T09:03:28Z</time>
      </trkpt>
      <trkpt lat="49.06067" lon="1.32044">
        <ele>40.799999237061</ele>
        <time>2021-05-16T09:03:34Z</time>
      </trkpt>
      <trkpt lat="49.06074" lon="1.32032">
        <ele>40.799999237061</ele>
        <time>2021-05-16T09:03:36Z</time>
      </trkpt>
      <trkpt lat="49.06085" lon="1.32012">
        <ele>41</ele>
        <time>2021-05-16T09:03:39Z</time>
      </trkpt>
      <trkpt lat="49.06108" lon="1.31969">
        <ele>41.200000762939</ele>
        <time>2021-05-16T09:03:46Z</time>
      </trkpt>
      <trkpt lat="49.06128" lon="1.31931">
        <ele>41.200000762939</ele>
        <time>2021-05-16T09:03:52Z</time>
      </trkpt>
      <trkpt lat="49.06137" lon="1.31915">
        <ele>41.200000762939</ele>
        <time>2021-05-16T09:03:55Z</time>
      </trkpt>
      <trkpt lat="49.06148" lon="1.31894">
        <ele>41</ele>
        <time>2021-05-16T09:03:59Z</time>
      </trkpt>
      <trkpt lat="49.06169" lon="1.31852">
        <ele>40.799999237061</ele>
        <time>2021-05-16T09:04:07Z</time>
      </trkpt>
      <trkpt lat="49.06176" lon="1.31837">
        <ele>40.799999237061</ele>
        <time>2021-05-16T09:04:10Z</time>
      </trkpt>
      <trkpt lat="49.06182" lon="1.31827">
        <ele>41</ele>
        <time>2021-05-16T09:04:12Z</time>
      </trkpt>
      <trkpt lat="49.06185" lon="1.31824">
        <ele>41</ele>
        <time>2021-05-16T09:04:13Z</time>
      </trkpt>
      <trkpt lat="49.06202" lon="1.318">
        <ele>40.799999237061</ele>
        <time>2021-05-16T09:04:19Z</time>
      </trkpt>
      <trkpt lat="49.06213" lon="1.31781">
        <ele>40.799999237061</ele>
        <time>2021-05-16T09:04:23Z</time>
      </trkpt>
      <trkpt lat="49.0623" lon="1.31752">
        <ele>40.799999237061</ele>
        <time>2021-05-16T09:04:29Z</time>
      </trkpt>
      <trkpt lat="49.06252" lon="1.31709">
        <ele>41</ele>
        <time>2021-05-16T09:04:36Z</time>
      </trkpt>
      <trkpt lat="49.06277" lon="1.31658">
        <ele>41</ele>
        <time>2021-05-16T09:04:44Z</time>
      </trkpt>
      <trkpt lat="49.06295" lon="1.31624">
        <ele>40.799999237061</ele>
        <time>2021-05-16T09:04:50Z</time>
      </trkpt>
      <trkpt lat="49.06311" lon="1.31597">
        <ele>40.400001525879</ele>
        <time>2021-05-16T09:04:55Z</time>
      </trkpt>
      <trkpt lat="49.0633" lon="1.31567">
        <ele>40.599998474121</ele>
        <time>2021-05-16T09:05:01Z</time>
      </trkpt>
      <trkpt lat="49.06344" lon="1.3154">
        <ele>40.599998474121</ele>
        <time>2021-05-16T09:05:07Z</time>
      </trkpt>
      <trkpt lat="49.06349" lon="1.31531">
        <ele>40.599998474121</ele>
        <time>2021-05-16T09:05:09Z</time>
      </trkpt>
      <trkpt lat="49.06358" lon="1.31513">
        <ele>40.599998474121</ele>
        <time>2021-05-16T09:05:12Z</time>
      </trkpt>
      <trkpt lat="49.06376" lon="1.31476">
        <ele>40.599998474121</ele>
        <time>2021-05-16T09:05:18Z</time>
      </trkpt>
      <trkpt lat="49.06394" lon="1.31441">
        <ele>40.400001525879</ele>
        <time>2021-05-16T09:05:24Z</time>
      </trkpt>
      <trkpt lat="49.06402" lon="1.31423">
        <ele>40.400001525879</ele>
        <time>2021-05-16T09:05:27Z</time>
      </trkpt>
      <trkpt lat="49.06412" lon="1.31406">
        <ele>40.400001525879</ele>
        <time>2021-05-16T09:05:30Z</time>
      </trkpt>
      <trkpt lat="49.06431" lon="1.31372">
        <ele>40.400001525879</ele>
        <time>2021-05-16T09:05:36Z</time>
      </trkpt>
      <trkpt lat="49.06453" lon="1.31329">
        <ele>40.200000762939</ele>
        <time>2021-05-16T09:05:43Z</time>
      </trkpt>
      <trkpt lat="49.06472" lon="1.31293">
        <ele>40.200000762939</ele>
        <time>2021-05-16T09:05:49Z</time>
      </trkpt>
      <trkpt lat="49.06478" lon="1.31281">
        <ele>40.200000762939</ele>
        <time>2021-05-16T09:05:51Z</time>
      </trkpt>
      <trkpt lat="49.06501" lon="1.31239">
        <ele>40</ele>
        <time>2021-05-16T09:05:58Z</time>
      </trkpt>
      <trkpt lat="49.0651" lon="1.31223">
        <ele>40</ele>
        <time>2021-05-16T09:06:01Z</time>
      </trkpt>
      <trkpt lat="49.0652" lon="1.31206">
        <ele>40</ele>
        <time>2021-05-16T09:06:04Z</time>
      </trkpt>
      <trkpt lat="49.06532" lon="1.31184">
        <ele>40</ele>
        <time>2021-05-16T09:06:08Z</time>
      </trkpt>
      <trkpt lat="49.06539" lon="1.31174">
        <ele>39.799999237061</ele>
        <time>2021-05-16T09:06:10Z</time>
      </trkpt>
      <trkpt lat="49.06558" lon="1.3114">
        <ele>40</ele>
        <time>2021-05-16T09:06:16Z</time>
      </trkpt>
      <trkpt lat="49.06577" lon="1.31105">
        <ele>40</ele>
        <time>2021-05-16T09:06:22Z</time>
      </trkpt>
      <trkpt lat="49.06593" lon="1.31069">
        <ele>40</ele>
        <time>2021-05-16T09:06:28Z</time>
      </trkpt>
      <trkpt lat="49.06596" lon="1.31063">
        <ele>40.200000762939</ele>
        <time>2021-05-16T09:06:29Z</time>
      </trkpt>
      <trkpt lat="49.06607" lon="1.31036">
        <ele>40.200000762939</ele>
        <time>2021-05-16T09:06:34Z</time>
      </trkpt>
      <trkpt lat="49.06611" lon="1.31024">
        <ele>40.400001525879</ele>
        <time>2021-05-16T09:06:37Z</time>
      </trkpt>
      <trkpt lat="49.06612" lon="1.31023">
        <ele>40.400001525879</ele>
        <time>2021-05-16T09:06:38Z</time>
      </trkpt>
      <trkpt lat="49.06612" lon="1.31022">
        <ele>40.599998474121</ele>
        <time>2021-05-16T09:06:40Z</time>
      </trkpt>
      <trkpt lat="49.06611" lon="1.31012">
        <ele>-21.60000038147</ele>
        <time>2021-05-16T09:08:33Z</time>
      </trkpt>
      <trkpt lat="49.06611" lon="1.3101">
        <ele>-21.799999237061</ele>
        <time>2021-05-16T09:08:34Z</time>
      </trkpt>
      <trkpt lat="49.06611" lon="1.31007">
        <ele>-22.200000762939</ele>
        <time>2021-05-16T09:08:35Z</time>
      </trkpt>
      <trkpt lat="49.0661" lon="1.31005">
        <ele>-22.799999237061</ele>
        <time>2021-05-16T09:08:36Z</time>
      </trkpt>
      <trkpt lat="49.06608" lon="1.30999">
        <ele>-24.200000762939</ele>
        <time>2021-05-16T09:08:39Z</time>
      </trkpt>
      <trkpt lat="49.06606" lon="1.30998">
        <ele>-25</ele>
        <time>2021-05-16T09:08:40Z</time>
      </trkpt>
      <trkpt lat="49.06605" lon="1.30998">
        <ele>-26</ele>
        <time>2021-05-16T09:08:41Z</time>
      </trkpt>
      <trkpt lat="49.06602" lon="1.30997">
        <ele>-27</ele>
        <time>2021-05-16T09:08:43Z</time>
      </trkpt>
      <trkpt lat="49.06601" lon="1.30995">
        <ele>-27.60000038147</ele>
        <time>2021-05-16T09:08:44Z</time>
      </trkpt>
      <trkpt lat="49.066" lon="1.30989">
        <ele>-28.39999961853</ele>
        <time>2021-05-16T09:08:46Z</time>
      </trkpt>
      <trkpt lat="49.066" lon="1.30981">
        <ele>-29.200000762939</ele>
        <time>2021-05-16T09:08:48Z</time>
      </trkpt>
      <trkpt lat="49.06598" lon="1.30973">
        <ele>-29.60000038147</ele>
        <time>2021-05-16T09:08:50Z</time>
      </trkpt>
      <trkpt lat="49.0659" lon="1.30956">
        <ele>-29.60000038147</ele>
        <time>2021-05-16T09:08:54Z</time>
      </trkpt>
      <trkpt lat="49.06579" lon="1.30937">
        <ele>-29.799999237061</ele>
        <time>2021-05-16T09:08:59Z</time>
      </trkpt>
      <trkpt lat="49.06578" lon="1.30935">
        <ele>-29.799999237061</ele>
        <time>2021-05-16T09:09:00Z</time>
      </trkpt>
      <trkpt lat="49.06578" lon="1.30929">
        <ele>-29.200000762939</ele>
        <time>2021-05-16T09:09:03Z</time>
      </trkpt>
      <trkpt lat="49.06576" lon="1.30928">
        <ele>-28.60000038147</ele>
        <time>2021-05-16T09:09:05Z</time>
      </trkpt>
      <trkpt lat="49.06572" lon="1.30924">
        <ele>-28</ele>
        <time>2021-05-16T09:09:08Z</time>
      </trkpt>
      <trkpt lat="49.0657" lon="1.30923">
        <ele>-27.39999961853</ele>
        <time>2021-05-16T09:09:09Z</time>
      </trkpt>
      <trkpt lat="49.06566" lon="1.30918">
        <ele>-26.39999961853</ele>
        <time>2021-05-16T09:09:12Z</time>
      </trkpt>
      <trkpt lat="49.06564" lon="1.30915">
        <ele>-26.200000762939</ele>
        <time>2021-05-16T09:09:13Z</time>
      </trkpt>
      <trkpt lat="49.06562" lon="1.30912">
        <ele>-26</ele>
        <time>2021-05-16T09:09:14Z</time>
      </trkpt>
      <trkpt lat="49.06559" lon="1.30906">
        <ele>-25.39999961853</ele>
        <time>2021-05-16T09:09:16Z</time>
      </trkpt>
      <trkpt lat="49.06555" lon="1.30898">
        <ele>-25</ele>
        <time>2021-05-16T09:09:19Z</time>
      </trkpt>
      <trkpt lat="49.06553" lon="1.30892">
        <ele>-24.60000038147</ele>
        <time>2021-05-16T09:09:21Z</time>
      </trkpt>
      <trkpt lat="49.06548" lon="1.30883">
        <ele>-23.60000038147</ele>
        <time>2021-05-16T09:09:24Z</time>
      </trkpt>
      <trkpt lat="49.06546" lon="1.30879">
        <ele>-23</ele>
        <time>2021-05-16T09:09:25Z</time>
      </trkpt>
      <trkpt lat="49.06542" lon="1.30871">
        <ele>-22.200000762939</ele>
        <time>2021-05-16T09:09:27Z</time>
      </trkpt>
      <trkpt lat="49.06537" lon="1.3086">
        <ele>-21.60000038147</ele>
        <time>2021-05-16T09:09:30Z</time>
      </trkpt>
      <trkpt lat="49.06536" lon="1.30858">
        <ele>-21.39999961853</ele>
        <time>2021-05-16T09:09:31Z</time>
      </trkpt>
      <trkpt lat="49.06534" lon="1.30854">
        <ele>-20.799999237061</ele>
        <time>2021-05-16T09:09:33Z</time>
      </trkpt>
      <trkpt lat="49.06533" lon="1.30852">
        <ele>-20.60000038147</ele>
        <time>2021-05-16T09:09:34Z</time>
      </trkpt>
      <trkpt lat="49.06532" lon="1.3085">
        <ele>-20.39999961853</ele>
        <time>2021-05-16T09:09:35Z</time>
      </trkpt>
      <trkpt lat="49.06529" lon="1.30848">
        <ele>-19.60000038147</ele>
        <time>2021-05-16T09:09:37Z</time>
      </trkpt>
      <trkpt lat="49.06528" lon="1.30847">
        <ele>-19.200000762939</ele>
        <time>2021-05-16T09:09:38Z</time>
      </trkpt>
      <trkpt lat="49.06522" lon="1.3084">
        <ele>-17.799999237061</ele>
        <time>2021-05-16T09:09:42Z</time>
      </trkpt>
      <trkpt lat="49.06518" lon="1.30834">
        <ele>-17.200000762939</ele>
        <time>2021-05-16T09:09:44Z</time>
      </trkpt>
      <trkpt lat="49.06517" lon="1.30831">
        <ele>-16.799999237061</ele>
        <time>2021-05-16T09:09:46Z</time>
      </trkpt>
      <trkpt lat="49.06515" lon="1.30828">
        <ele>-15.60000038147</ele>
        <time>2021-05-16T09:09:49Z</time>
      </trkpt>
      <trkpt lat="49.06514" lon="1.30826">
        <ele>-15.39999961853</ele>
        <time>2021-05-16T09:09:50Z</time>
      </trkpt>
      <trkpt lat="49.06512" lon="1.30821">
        <ele>-14.60000038147</ele>
        <time>2021-05-16T09:09:53Z</time>
      </trkpt>
      <trkpt lat="49.0651" lon="1.30815">
        <ele>-13.800000190735</ele>
        <time>2021-05-16T09:09:55Z</time>
      </trkpt>
      <trkpt lat="49.06509" lon="1.30812">
        <ele>-13.60000038147</ele>
        <time>2021-05-16T09:09:56Z</time>
      </trkpt>
      <trkpt lat="49.06508" lon="1.3081">
        <ele>-13.199999809265</ele>
        <time>2021-05-16T09:09:57Z</time>
      </trkpt>
      <trkpt lat="49.065" lon="1.30799">
        <ele>-12.60000038147</ele>
        <time>2021-05-16T09:10:01Z</time>
      </trkpt>
      <trkpt lat="49.06498" lon="1.30797">
        <ele>-12.39999961853</ele>
        <time>2021-05-16T09:10:02Z</time>
      </trkpt>
      <trkpt lat="49.06493" lon="1.3079">
        <ele>-12</ele>
        <time>2021-05-16T09:10:05Z</time>
      </trkpt>
      <trkpt lat="49.06491" lon="1.30787">
        <ele>-11.60000038147</ele>
        <time>2021-05-16T09:10:06Z</time>
      </trkpt>
      <trkpt lat="49.0649" lon="1.30781">
        <ele>-11.199999809265</ele>
        <time>2021-05-16T09:10:08Z</time>
      </trkpt>
      <trkpt lat="49.06488" lon="1.3077">
        <ele>-10.39999961853</ele>
        <time>2021-05-16T09:10:11Z</time>
      </trkpt>
      <trkpt lat="49.06489" lon="1.30765">
        <ele>-10.39999961853</ele>
        <time>2021-05-16T09:10:12Z</time>
      </trkpt>
      <trkpt lat="49.06493" lon="1.30751">
        <ele>-9.8000001907349</ele>
        <time>2021-05-16T09:10:15Z</time>
      </trkpt>
      <trkpt lat="49.06497" lon="1.30741">
        <ele>-9.3999996185303</ele>
        <time>2021-05-16T09:10:17Z</time>
      </trkpt>
      <trkpt lat="49.06498" lon="1.30736">
        <ele>-9.1999998092651</ele>
        <time>2021-05-16T09:10:18Z</time>
      </trkpt>
      <trkpt lat="49.06502" lon="1.30715">
        <ele>-8.6000003814697</ele>
        <time>2021-05-16T09:10:22Z</time>
      </trkpt>
      <trkpt lat="49.06503" lon="1.30703">
        <ele>-8.1999998092651</ele>
        <time>2021-05-16T09:10:24Z</time>
      </trkpt>
      <trkpt lat="49.06505" lon="1.30688">
        <ele>-7.4000000953674</ele>
        <time>2021-05-16T09:10:27Z</time>
      </trkpt>
      <trkpt lat="49.06508" lon="1.30671">
        <ele>-6.4000000953674</ele>
        <time>2021-05-16T09:10:31Z</time>
      </trkpt>
      <trkpt lat="49.0651" lon="1.30665">
        <ele>-5.1999998092651</ele>
        <time>2021-05-16T09:10:33Z</time>
      </trkpt>
      <trkpt lat="49.06511" lon="1.30662">
        <ele>-5</ele>
        <time>2021-05-16T09:10:34Z</time>
      </trkpt>
      <trkpt lat="49.06512" lon="1.3066">
        <ele>-4.8000001907349</ele>
        <time>2021-05-16T09:10:35Z</time>
      </trkpt>
      <trkpt lat="49.06515" lon="1.30651">
        <ele>-4.4000000953674</ele>
        <time>2021-05-16T09:10:38Z</time>
      </trkpt>
      <trkpt lat="49.06516" lon="1.30647">
        <ele>-4.1999998092651</ele>
        <time>2021-05-16T09:10:39Z</time>
      </trkpt>
      <trkpt lat="49.06526" lon="1.30629">
        <ele>-3.4000000953674</ele>
        <time>2021-05-16T09:10:44Z</time>
      </trkpt>
      <trkpt lat="49.06531" lon="1.30622">
        <ele>-3</ele>
        <time>2021-05-16T09:10:46Z</time>
      </trkpt>
      <trkpt lat="49.0654" lon="1.30608">
        <ele>-2</ele>
        <time>2021-05-16T09:10:50Z</time>
      </trkpt>
      <trkpt lat="49.06542" lon="1.30604">
        <ele>-1.6000000238419</ele>
        <time>2021-05-16T09:10:51Z</time>
      </trkpt>
      <trkpt lat="49.06553" lon="1.30587">
        <ele>-0.80000001192093</ele>
        <time>2021-05-16T09:10:55Z</time>
      </trkpt>
      <trkpt lat="49.06561" lon="1.30574">
        <ele>33</ele>
        <time>2021-05-16T09:10:58Z</time>
      </trkpt>
      <trkpt lat="49.06568" lon="1.30566">
        <ele>0.40000000596046</ele>
        <time>2021-05-16T09:11:00Z</time>
      </trkpt>
      <trkpt lat="49.06576" lon="1.30553">
        <ele>1.3999999761581</ele>
        <time>2021-05-16T09:11:03Z</time>
      </trkpt>
      <trkpt lat="49.06579" lon="1.30548">
        <ele>1.6000000238419</ele>
        <time>2021-05-16T09:11:04Z</time>
      </trkpt>
      <trkpt lat="49.06593" lon="1.30529">
        <ele>2.7999999523163</ele>
        <time>2021-05-16T09:11:08Z</time>
      </trkpt>
      <trkpt lat="49.06597" lon="1.30524">
        <ele>2.7999999523163</ele>
        <time>2021-05-16T09:11:09Z</time>
      </trkpt>
      <trkpt lat="49.06607" lon="1.3051">
        <ele>3.7999999523163</ele>
        <time>2021-05-16T09:11:12Z</time>
      </trkpt>
      <trkpt lat="49.06621" lon="1.30491">
        <ele>4.8000001907349</ele>
        <time>2021-05-16T09:11:16Z</time>
      </trkpt>
      <trkpt lat="49.06624" lon="1.30486">
        <ele>5</ele>
        <time>2021-05-16T09:11:17Z</time>
      </trkpt>
      <trkpt lat="49.06627" lon="1.3048">
        <ele>5.1999998092651</ele>
        <time>2021-05-16T09:11:18Z</time>
      </trkpt>
      <trkpt lat="49.06638" lon="1.30465">
        <ele>6</ele>
        <time>2021-05-16T09:11:21Z</time>
      </trkpt>
      <trkpt lat="49.06641" lon="1.3046">
        <ele>6.4000000953674</ele>
        <time>2021-05-16T09:11:22Z</time>
      </trkpt>
      <trkpt lat="49.06649" lon="1.30451">
        <ele>6.8000001907349</ele>
        <time>2021-05-16T09:11:24Z</time>
      </trkpt>
      <trkpt lat="49.06652" lon="1.30446">
        <ele>7</ele>
        <time>2021-05-16T09:11:25Z</time>
      </trkpt>
      <trkpt lat="49.06659" lon="1.30438">
        <ele>7.4000000953674</ele>
        <time>2021-05-16T09:11:27Z</time>
      </trkpt>
      <trkpt lat="49.06666" lon="1.30429">
        <ele>8.1999998092651</ele>
        <time>2021-05-16T09:11:29Z</time>
      </trkpt>
      <trkpt lat="49.06677" lon="1.30413">
        <ele>9.3999996185303</ele>
        <time>2021-05-16T09:11:32Z</time>
      </trkpt>
      <trkpt lat="49.0668" lon="1.30408">
        <ele>9.8000001907349</ele>
        <time>2021-05-16T09:11:33Z</time>
      </trkpt>
      <trkpt lat="49.06686" lon="1.30399">
        <ele>10.39999961853</ele>
        <time>2021-05-16T09:11:35Z</time>
      </trkpt>
      <trkpt lat="49.06692" lon="1.30391">
        <ele>11.199999809265</ele>
        <time>2021-05-16T09:11:37Z</time>
      </trkpt>
      <trkpt lat="49.06698" lon="1.30382">
        <ele>11.60000038147</ele>
        <time>2021-05-16T09:11:39Z</time>
      </trkpt>
      <trkpt lat="49.06708" lon="1.30369">
        <ele>12.39999961853</ele>
        <time>2021-05-16T09:11:42Z</time>
      </trkpt>
      <trkpt lat="49.06711" lon="1.30366">
        <ele>12.60000038147</ele>
        <time>2021-05-16T09:11:43Z</time>
      </trkpt>
      <trkpt lat="49.06722" lon="1.30355">
        <ele>13.39999961853</ele>
        <time>2021-05-16T09:11:46Z</time>
      </trkpt>
      <trkpt lat="49.06729" lon="1.30349">
        <ele>13.800000190735</ele>
        <time>2021-05-16T09:11:48Z</time>
      </trkpt>
      <trkpt lat="49.06744" lon="1.30336">
        <ele>14.60000038147</ele>
        <time>2021-05-16T09:11:52Z</time>
      </trkpt>
      <trkpt lat="49.06747" lon="1.30333">
        <ele>15</ele>
        <time>2021-05-16T09:11:53Z</time>
      </trkpt>
      <trkpt lat="49.06765" lon="1.30313">
        <ele>16</ele>
        <time>2021-05-16T09:11:58Z</time>
      </trkpt>
      <trkpt lat="49.06778" lon="1.30304">
        <ele>17</ele>
        <time>2021-05-16T09:12:01Z</time>
      </trkpt>
      <trkpt lat="49.06787" lon="1.30298">
        <ele>17.60000038147</ele>
        <time>2021-05-16T09:12:03Z</time>
      </trkpt>
      <trkpt lat="49.06799" lon="1.30288">
        <ele>18.39999961853</ele>
        <time>2021-05-16T09:12:06Z</time>
      </trkpt>
      <trkpt lat="49.06812" lon="1.30276">
        <ele>19</ele>
        <time>2021-05-16T09:12:09Z</time>
      </trkpt>
      <trkpt lat="49.0682" lon="1.30267">
        <ele>19.200000762939</ele>
        <time>2021-05-16T09:12:11Z</time>
      </trkpt>
      <trkpt lat="49.06832" lon="1.30254">
        <ele>20.200000762939</ele>
        <time>2021-05-16T09:12:14Z</time>
      </trkpt>
      <trkpt lat="49.06837" lon="1.30249">
        <ele>20.39999961853</ele>
        <time>2021-05-16T09:12:15Z</time>
      </trkpt>
      <trkpt lat="49.06853" lon="1.3023">
        <ele>21.60000038147</ele>
        <time>2021-05-16T09:12:19Z</time>
      </trkpt>
      <trkpt lat="49.06872" lon="1.30209">
        <ele>22.60000038147</ele>
        <time>2021-05-16T09:12:23Z</time>
      </trkpt>
      <trkpt lat="49.0688" lon="1.30201">
        <ele>23.200000762939</ele>
        <time>2021-05-16T09:12:25Z</time>
      </trkpt>
      <trkpt lat="49.06884" lon="1.30196">
        <ele>23.799999237061</ele>
        <time>2021-05-16T09:12:26Z</time>
      </trkpt>
      <trkpt lat="49.06899" lon="1.30179">
        <ele>24.60000038147</ele>
        <time>2021-05-16T09:12:30Z</time>
      </trkpt>
      <trkpt lat="49.06902" lon="1.30176">
        <ele>24.799999237061</ele>
        <time>2021-05-16T09:12:31Z</time>
      </trkpt>
      <trkpt lat="49.06918" lon="1.30154">
        <ele>25.799999237061</ele>
        <time>2021-05-16T09:12:36Z</time>
      </trkpt>
      <trkpt lat="49.06941" lon="1.3012">
        <ele>27</ele>
        <time>2021-05-16T09:12:42Z</time>
      </trkpt>
      <trkpt lat="49.0695" lon="1.30112">
        <ele>27.39999961853</ele>
        <time>2021-05-16T09:12:44Z</time>
      </trkpt>
      <trkpt lat="49.06964" lon="1.30105">
        <ele>28</ele>
        <time>2021-05-16T09:12:47Z</time>
      </trkpt>
      <trkpt lat="49.06986" lon="1.30099">
        <ele>29.200000762939</ele>
        <time>2021-05-16T09:12:52Z</time>
      </trkpt>
      <trkpt lat="49.07004" lon="1.30091">
        <ele>30.39999961853</ele>
        <time>2021-05-16T09:12:56Z</time>
      </trkpt>
      <trkpt lat="49.07012" lon="1.30086">
        <ele>31</ele>
        <time>2021-05-16T09:12:58Z</time>
      </trkpt>
      <trkpt lat="49.07021" lon="1.30081">
        <ele>31.60000038147</ele>
        <time>2021-05-16T09:13:00Z</time>
      </trkpt>
      <trkpt lat="49.07038" lon="1.30072">
        <ele>32.599998474121</ele>
        <time>2021-05-16T09:13:03Z</time>
      </trkpt>
      <trkpt lat="49.07044" lon="1.30069">
        <ele>32.799999237061</ele>
        <time>2021-05-16T09:13:04Z</time>
      </trkpt>
      <trkpt lat="49.07068" lon="1.30061">
        <ele>34</ele>
        <time>2021-05-16T09:13:08Z</time>
      </trkpt>
      <trkpt lat="49.07084" lon="1.30053">
        <ele>34.200000762939</ele>
        <time>2021-05-16T09:13:11Z</time>
      </trkpt>
      <trkpt lat="49.07116" lon="1.30038">
        <ele>34.400001525879</ele>
        <time>2021-05-16T09:13:17Z</time>
      </trkpt>
      <trkpt lat="49.0715" lon="1.30014">
        <ele>34.400001525879</ele>
        <time>2021-05-16T09:13:24Z</time>
      </trkpt>
      <trkpt lat="49.07154" lon="1.3001">
        <ele>34.400001525879</ele>
        <time>2021-05-16T09:13:25Z</time>
      </trkpt>
      <trkpt lat="49.07174" lon="1.29992">
        <ele>34.799999237061</ele>
        <time>2021-05-16T09:13:30Z</time>
      </trkpt>
      <trkpt lat="49.07184" lon="1.29977">
        <ele>34.799999237061</ele>
        <time>2021-05-16T09:13:35Z</time>
      </trkpt>
      <trkpt lat="49.072" lon="1.29957">
        <ele>35</ele>
        <time>2021-05-16T09:13:40Z</time>
      </trkpt>
      <trkpt lat="49.07203" lon="1.29953">
        <ele>35.200000762939</ele>
        <time>2021-05-16T09:13:41Z</time>
      </trkpt>
      <trkpt lat="49.07217" lon="1.29939">
        <ele>35.400001525879</ele>
        <time>2021-05-16T09:13:45Z</time>
      </trkpt>
      <trkpt lat="49.07225" lon="1.2993">
        <ele>35.599998474121</ele>
        <time>2021-05-16T09:13:47Z</time>
      </trkpt>
      <trkpt lat="49.07241" lon="1.29912">
        <ele>36.200000762939</ele>
        <time>2021-05-16T09:13:51Z</time>
      </trkpt>
      <trkpt lat="49.0726" lon="1.2989">
        <ele>37.200000762939</ele>
        <time>2021-05-16T09:13:56Z</time>
      </trkpt>
      <trkpt lat="49.07262" lon="1.29887">
        <ele>37.400001525879</ele>
        <time>2021-05-16T09:13:57Z</time>
      </trkpt>
      <trkpt lat="49.07272" lon="1.29871">
        <ele>38.200000762939</ele>
        <time>2021-05-16T09:14:02Z</time>
      </trkpt>
      <trkpt lat="49.07271" lon="1.29865">
        <ele>38.400001525879</ele>
        <time>2021-05-16T09:14:04Z</time>
      </trkpt>
      <trkpt lat="49.07268" lon="1.29858">
        <ele>38.599998474121</ele>
        <time>2021-05-16T09:14:06Z</time>
      </trkpt>
      <trkpt lat="49.07257" lon="1.29828">
        <ele>39.200000762939</ele>
        <time>2021-05-16T09:14:12Z</time>
      </trkpt>
      <trkpt lat="49.07239" lon="1.29784">
        <ele>39.200000762939</ele>
        <time>2021-05-16T09:14:20Z</time>
      </trkpt>
      <trkpt lat="49.07213" lon="1.29732">
        <ele>38.799999237061</ele>
        <time>2021-05-16T09:14:29Z</time>
      </trkpt>
      <trkpt lat="49.07183" lon="1.29691">
        <ele>37.799999237061</ele>
        <time>2021-05-16T09:14:37Z</time>
      </trkpt>
      <trkpt lat="49.07176" lon="1.2968">
        <ele>37.599998474121</ele>
        <time>2021-05-16T09:14:39Z</time>
      </trkpt>
      <trkpt lat="49.0717" lon="1.29668">
        <ele>37.200000762939</ele>
        <time>2021-05-16T09:14:41Z</time>
      </trkpt>
      <trkpt lat="49.07169" lon="1.29646">
        <ele>36.599998474121</ele>
        <time>2021-05-16T09:14:44Z</time>
      </trkpt>
      <trkpt lat="49.07171" lon="1.29629">
        <ele>36.200000762939</ele>
        <time>2021-05-16T09:14:46Z</time>
      </trkpt>
      <trkpt lat="49.07174" lon="1.29613">
        <ele>35.200000762939</ele>
        <time>2021-05-16T09:14:48Z</time>
      </trkpt>
      <trkpt lat="49.07177" lon="1.29579">
        <ele>34.599998474121</ele>
        <time>2021-05-16T09:14:52Z</time>
      </trkpt>
      <trkpt lat="49.07177" lon="1.29571">
        <ele>34.400001525879</ele>
        <time>2021-05-16T09:14:53Z</time>
      </trkpt>
      <trkpt lat="49.07173" lon="1.29537">
        <ele>34.200000762939</ele>
        <time>2021-05-16T09:14:57Z</time>
      </trkpt>
      <trkpt lat="49.07169" lon="1.2951">
        <ele>34.200000762939</ele>
        <time>2021-05-16T09:15:00Z</time>
      </trkpt>
      <trkpt lat="49.07162" lon="1.29467">
        <ele>34.400001525879</ele>
        <time>2021-05-16T09:15:05Z</time>
      </trkpt>
      <trkpt lat="49.07152" lon="1.29398">
        <ele>34.599998474121</ele>
        <time>2021-05-16T09:15:13Z</time>
      </trkpt>
      <trkpt lat="49.07151" lon="1.29381">
        <ele>34.599998474121</ele>
        <time>2021-05-16T09:15:15Z</time>
      </trkpt>
      <trkpt lat="49.07153" lon="1.29338">
        <ele>35.599998474121</ele>
        <time>2021-05-16T09:15:20Z</time>
      </trkpt>
      <trkpt lat="49.07154" lon="1.29329">
        <ele>35.599998474121</ele>
        <time>2021-05-16T09:15:21Z</time>
      </trkpt>
      <trkpt lat="49.07157" lon="1.29304">
        <ele>36</ele>
        <time>2021-05-16T09:15:24Z</time>
      </trkpt>
      <trkpt lat="49.07155" lon="1.2928">
        <ele>36.400001525879</ele>
        <time>2021-05-16T09:15:27Z</time>
      </trkpt>
      <trkpt lat="49.07151" lon="1.29265">
        <ele>36.799999237061</ele>
        <time>2021-05-16T09:15:29Z</time>
      </trkpt>
      <trkpt lat="49.07149" lon="1.29258">
        <ele>36.799999237061</ele>
        <time>2021-05-16T09:15:30Z</time>
      </trkpt>
      <trkpt lat="49.07144" lon="1.29238">
        <ele>37.200000762939</ele>
        <time>2021-05-16T09:15:33Z</time>
      </trkpt>
      <trkpt lat="49.07132" lon="1.29196">
        <ele>38</ele>
        <time>2021-05-16T09:15:39Z</time>
      </trkpt>
      <trkpt lat="49.07128" lon="1.29182">
        <ele>38.200000762939</ele>
        <time>2021-05-16T09:15:41Z</time>
      </trkpt>
      <trkpt lat="49.07124" lon="1.29138">
        <ele>39</ele>
        <time>2021-05-16T09:15:47Z</time>
      </trkpt>
      <trkpt lat="49.07124" lon="1.29131">
        <ele>39.200000762939</ele>
        <time>2021-05-16T09:15:48Z</time>
      </trkpt>
      <trkpt lat="49.07124" lon="1.29124">
        <ele>39.200000762939</ele>
        <time>2021-05-16T09:15:49Z</time>
      </trkpt>
      <trkpt lat="49.07128" lon="1.2911">
        <ele>39.599998474121</ele>
        <time>2021-05-16T09:15:51Z</time>
      </trkpt>
      <trkpt lat="49.07139" lon="1.29094">
        <ele>40</ele>
        <time>2021-05-16T09:15:54Z</time>
      </trkpt>
      <trkpt lat="49.07146" lon="1.29084">
        <ele>40</ele>
        <time>2021-05-16T09:15:56Z</time>
      </trkpt>
      <trkpt lat="49.07168" lon="1.29052">
        <ele>40.200000762939</ele>
        <time>2021-05-16T09:16:02Z</time>
      </trkpt>
      <trkpt lat="49.07171" lon="1.29046">
        <ele>40.200000762939</ele>
        <time>2021-05-16T09:16:03Z</time>
      </trkpt>
      <trkpt lat="49.07174" lon="1.29041">
        <ele>40.200000762939</ele>
        <time>2021-05-16T09:16:04Z</time>
      </trkpt>
      <trkpt lat="49.07183" lon="1.29023">
        <ele>41</ele>
        <time>2021-05-16T09:16:08Z</time>
      </trkpt>
      <trkpt lat="49.07183" lon="1.29018">
        <ele>41.200000762939</ele>
        <time>2021-05-16T09:16:09Z</time>
      </trkpt>
      <trkpt lat="49.07179" lon="1.29009">
        <ele>41.400001525879</ele>
        <time>2021-05-16T09:16:11Z</time>
      </trkpt>
      <trkpt lat="49.07159" lon="1.28971">
        <ele>41.400001525879</ele>
        <time>2021-05-16T09:16:19Z</time>
      </trkpt>
      <trkpt lat="49.07142" lon="1.28946">
        <ele>40.400001525879</ele>
        <time>2021-05-16T09:16:26Z</time>
      </trkpt>
      <trkpt lat="49.07135" lon="1.28936">
        <ele>39.400001525879</ele>
        <time>2021-05-16T09:16:29Z</time>
      </trkpt>
      <trkpt lat="49.07129" lon="1.28928">
        <ele>38.200000762939</ele>
        <time>2021-05-16T09:16:32Z</time>
      </trkpt>
      <trkpt lat="49.07124" lon="1.28921">
        <ele>37</ele>
        <time>2021-05-16T09:16:35Z</time>
      </trkpt>
      <trkpt lat="49.07122" lon="1.28915">
        <ele>35.599998474121</ele>
        <time>2021-05-16T09:16:38Z</time>
      </trkpt>
      <trkpt lat="49.07121" lon="1.28913">
        <ele>34.799999237061</ele>
        <time>2021-05-16T09:16:40Z</time>
      </trkpt>
      <trkpt lat="49.07122" lon="1.28913">
        <ele>34.200000762939</ele>
        <time>2021-05-16T09:16:41Z</time>
      </trkpt>
      <trkpt lat="49.07118" lon="1.28909">
        <ele>6.8000001907349</ele>
        <time>2021-05-16T09:17:28Z</time>
      </trkpt>
      <trkpt lat="49.07115" lon="1.28904">
        <ele>5.5999999046326</ele>
        <time>2021-05-16T09:17:30Z</time>
      </trkpt>
      <trkpt lat="49.07112" lon="1.289">
        <ele>4.5999999046326</ele>
        <time>2021-05-16T09:17:32Z</time>
      </trkpt>
      <trkpt lat="49.0711" lon="1.28896">
        <ele>3.4000000953674</ele>
        <time>2021-05-16T09:17:34Z</time>
      </trkpt>
      <trkpt lat="49.0711" lon="1.28893">
        <ele>2.7999999523163</ele>
        <time>2021-05-16T09:17:35Z</time>
      </trkpt>
      <trkpt lat="49.0711" lon="1.28892">
        <ele>2.4000000953674</ele>
        <time>2021-05-16T09:17:36Z</time>
      </trkpt>
      <trkpt lat="49.0711" lon="1.28892">
        <ele>1.2000000476837</ele>
        <time>2021-05-16T09:17:38Z</time>
      </trkpt>
      <trkpt lat="49.0711" lon="1.28894">
        <ele>-5.1999998092651</ele>
        <time>2021-05-16T09:17:55Z</time>
      </trkpt>
      <trkpt lat="49.0711" lon="1.28895">
        <ele>-5.5999999046326</ele>
        <time>2021-05-16T09:17:56Z</time>
      </trkpt>
      <trkpt lat="49.07112" lon="1.28895">
        <ele>-6.5999999046326</ele>
        <time>2021-05-16T09:18:00Z</time>
      </trkpt>
      <trkpt lat="49.07112" lon="1.28895">
        <ele>-7</ele>
        <time>2021-05-16T09:18:01Z</time>
      </trkpt>
      <trkpt lat="49.07112" lon="1.28895">
        <ele>-7.1999998092651</ele>
        <time>2021-05-16T09:18:02Z</time>
      </trkpt>
      <trkpt lat="49.07111" lon="1.28892">
        <ele>-42.400001525879</ele>
        <time>2021-05-16T09:21:24Z</time>
      </trkpt>
      <trkpt lat="49.07111" lon="1.2889">
        <ele>-42.400001525879</ele>
        <time>2021-05-16T09:21:25Z</time>
      </trkpt>
      <trkpt lat="49.07115" lon="1.28882">
        <ele>-42.599998474121</ele>
        <time>2021-05-16T09:21:28Z</time>
      </trkpt>
      <trkpt lat="49.07122" lon="1.28865">
        <ele>-42.799999237061</ele>
        <time>2021-05-16T09:21:32Z</time>
      </trkpt>
      <trkpt lat="49.07131" lon="1.28839">
        <ele>-42.599998474121</ele>
        <time>2021-05-16T09:21:36Z</time>
      </trkpt>
      <trkpt lat="49.07134" lon="1.28833">
        <ele>-42.599998474121</ele>
        <time>2021-05-16T09:21:37Z</time>
      </trkpt>
      <trkpt lat="49.07143" lon="1.28808">
        <ele>-42.400001525879</ele>
        <time>2021-05-16T09:21:41Z</time>
      </trkpt>
      <trkpt lat="49.07146" lon="1.28802">
        <ele>-42</ele>
        <time>2021-05-16T09:21:42Z</time>
      </trkpt>
      <trkpt lat="49.07157" lon="1.28774">
        <ele>-40.599998474121</ele>
        <time>2021-05-16T09:21:46Z</time>
      </trkpt>
      <trkpt lat="49.0716" lon="1.28767">
        <ele>-40.400001525879</ele>
        <time>2021-05-16T09:21:47Z</time>
      </trkpt>
      <trkpt lat="49.07166" lon="1.28754">
        <ele>-39.799999237061</ele>
        <time>2021-05-16T09:21:49Z</time>
      </trkpt>
      <trkpt lat="49.07173" lon="1.28739">
        <ele>-38.799999237061</ele>
        <time>2021-05-16T09:21:51Z</time>
      </trkpt>
      <trkpt lat="49.07177" lon="1.28731">
        <ele>-38.400001525879</ele>
        <time>2021-05-16T09:21:52Z</time>
      </trkpt>
      <trkpt lat="49.0718" lon="1.28723">
        <ele>-38</ele>
        <time>2021-05-16T09:21:53Z</time>
      </trkpt>
      <trkpt lat="49.07182" lon="1.28716">
        <ele>-37.400001525879</ele>
        <time>2021-05-16T09:21:54Z</time>
      </trkpt>
      <trkpt lat="49.07183" lon="1.28702">
        <ele>-36.599998474121</ele>
        <time>2021-05-16T09:21:56Z</time>
      </trkpt>
      <trkpt lat="49.07183" lon="1.28699">
        <ele>-36.400001525879</ele>
        <time>2021-05-16T09:21:57Z</time>
      </trkpt>
      <trkpt lat="49.07183" lon="1.28696">
        <ele>-35.599998474121</ele>
        <time>2021-05-16T09:21:59Z</time>
      </trkpt>
      <trkpt lat="49.0719" lon="1.28684">
        <ele>-28</ele>
        <time>2021-05-16T09:22:16Z</time>
      </trkpt>
      <trkpt lat="49.07193" lon="1.28681">
        <ele>-27.39999961853</ele>
        <time>2021-05-16T09:22:19Z</time>
      </trkpt>
      <trkpt lat="49.07196" lon="1.28683">
        <ele>-27</ele>
        <time>2021-05-16T09:22:21Z</time>
      </trkpt>
      <trkpt lat="49.07202" lon="1.2869">
        <ele>-26.200000762939</ele>
        <time>2021-05-16T09:22:24Z</time>
      </trkpt>
      <trkpt lat="49.07205" lon="1.2869">
        <ele>-26</ele>
        <time>2021-05-16T09:22:25Z</time>
      </trkpt>
      <trkpt lat="49.07208" lon="1.28683">
        <ele>-26</ele>
        <time>2021-05-16T09:22:27Z</time>
      </trkpt>
      <trkpt lat="49.07213" lon="1.28662">
        <ele>-25.799999237061</ele>
        <time>2021-05-16T09:22:31Z</time>
      </trkpt>
      <trkpt lat="49.07215" lon="1.28657">
        <ele>-25.799999237061</ele>
        <time>2021-05-16T09:22:32Z</time>
      </trkpt>
      <trkpt lat="49.07232" lon="1.28612">
        <ele>-25.200000762939</ele>
        <time>2021-05-16T09:22:39Z</time>
      </trkpt>
      <trkpt lat="49.07249" lon="1.28564">
        <ele>-24</ele>
        <time>2021-05-16T09:22:45Z</time>
      </trkpt>
      <trkpt lat="49.07251" lon="1.28556">
        <ele>-23.799999237061</ele>
        <time>2021-05-16T09:22:46Z</time>
      </trkpt>
      <trkpt lat="49.07256" lon="1.28528">
        <ele>-23</ele>
        <time>2021-05-16T09:22:49Z</time>
      </trkpt>
      <trkpt lat="49.07259" lon="1.2851">
        <ele>-21.799999237061</ele>
        <time>2021-05-16T09:22:51Z</time>
      </trkpt>
      <trkpt lat="49.07261" lon="1.28503">
        <ele>-21.39999961853</ele>
        <time>2021-05-16T09:22:52Z</time>
      </trkpt>
      <trkpt lat="49.07269" lon="1.28493">
        <ele>-20.39999961853</ele>
        <time>2021-05-16T09:22:54Z</time>
      </trkpt>
      <trkpt lat="49.07274" lon="1.28489">
        <ele>-20</ele>
        <time>2021-05-16T09:22:55Z</time>
      </trkpt>
      <trkpt lat="49.07283" lon="1.28481">
        <ele>-19.39999961853</ele>
        <time>2021-05-16T09:22:57Z</time>
      </trkpt>
      <trkpt lat="49.07295" lon="1.28467">
        <ele>-18.200000762939</ele>
        <time>2021-05-16T09:23:00Z</time>
      </trkpt>
      <trkpt lat="49.07297" lon="1.28462">
        <ele>-18</ele>
        <time>2021-05-16T09:23:01Z</time>
      </trkpt>
      <trkpt lat="49.07295" lon="1.28449">
        <ele>-17.200000762939</ele>
        <time>2021-05-16T09:23:04Z</time>
      </trkpt>
      <trkpt lat="49.07293" lon="1.28444">
        <ele>-17</ele>
        <time>2021-05-16T09:23:05Z</time>
      </trkpt>
      <trkpt lat="49.07286" lon="1.28426">
        <ele>-16</ele>
        <time>2021-05-16T09:23:08Z</time>
      </trkpt>
      <trkpt lat="49.07282" lon="1.28414">
        <ele>-15.60000038147</ele>
        <time>2021-05-16T09:23:10Z</time>
      </trkpt>
      <trkpt lat="49.0728" lon="1.28408">
        <ele>-15.39999961853</ele>
        <time>2021-05-16T09:23:11Z</time>
      </trkpt>
      <trkpt lat="49.07276" lon="1.28397">
        <ele>-15.39999961853</ele>
        <time>2021-05-16T09:23:13Z</time>
      </trkpt>
      <trkpt lat="49.07271" lon="1.28385">
        <ele>-15.199999809265</ele>
        <time>2021-05-16T09:23:15Z</time>
      </trkpt>
      <trkpt lat="49.07268" lon="1.28363">
        <ele>-13.800000190735</ele>
        <time>2021-05-16T09:23:19Z</time>
      </trkpt>
      <trkpt lat="49.07273" lon="1.28345">
        <ele>-12.60000038147</ele>
        <time>2021-05-16T09:23:23Z</time>
      </trkpt>
      <trkpt lat="49.07272" lon="1.28336">
        <ele>-12.199999809265</ele>
        <time>2021-05-16T09:23:25Z</time>
      </trkpt>
      <trkpt lat="49.0727" lon="1.28327">
        <ele>-11.60000038147</ele>
        <time>2021-05-16T09:23:27Z</time>
      </trkpt>
      <trkpt lat="49.07268" lon="1.28313">
        <ele>-10.39999961853</ele>
        <time>2021-05-16T09:23:30Z</time>
      </trkpt>
      <trkpt lat="49.07265" lon="1.28271">
        <ele>-9.8000001907349</ele>
        <time>2021-05-16T09:23:39Z</time>
      </trkpt>
      <trkpt lat="49.07262" lon="1.28245">
        <ele>-10</ele>
        <time>2021-05-16T09:23:45Z</time>
      </trkpt>
      <trkpt lat="49.07258" lon="1.2821">
        <ele>-11.199999809265</ele>
        <time>2021-05-16T09:23:54Z</time>
      </trkpt>
      <trkpt lat="49.07249" lon="1.28191">
        <ele>-12</ele>
        <time>2021-05-16T09:24:01Z</time>
      </trkpt>
      <trkpt lat="49.07247" lon="1.28189">
        <ele>-12.199999809265</ele>
        <time>2021-05-16T09:24:02Z</time>
      </trkpt>
      <trkpt lat="49.0724" lon="1.2818">
        <ele>-13.39999961853</ele>
        <time>2021-05-16T09:24:06Z</time>
      </trkpt>
      <trkpt lat="49.07234" lon="1.2817">
        <ele>-14.39999961853</ele>
        <time>2021-05-16T09:24:10Z</time>
      </trkpt>
      <trkpt lat="49.07231" lon="1.28162">
        <ele>-15.199999809265</ele>
        <time>2021-05-16T09:24:13Z</time>
      </trkpt>
      <trkpt lat="49.07228" lon="1.28154">
        <ele>-15.800000190735</ele>
        <time>2021-05-16T09:24:16Z</time>
      </trkpt>
      <trkpt lat="49.07225" lon="1.28142">
        <ele>-17</ele>
        <time>2021-05-16T09:24:20Z</time>
      </trkpt>
      <trkpt lat="49.07222" lon="1.28134">
        <ele>-18.200000762939</ele>
        <time>2021-05-16T09:24:23Z</time>
      </trkpt>
      <trkpt lat="49.0722" lon="1.28125">
        <ele>-19.799999237061</ele>
        <time>2021-05-16T09:24:26Z</time>
      </trkpt>
      <trkpt lat="49.07218" lon="1.28116">
        <ele>-21.39999961853</ele>
        <time>2021-05-16T09:24:29Z</time>
      </trkpt>
      <trkpt lat="49.07217" lon="1.2811">
        <ele>-22.60000038147</ele>
        <time>2021-05-16T09:24:31Z</time>
      </trkpt>
      <trkpt lat="49.07217" lon="1.28101">
        <ele>-24</ele>
        <time>2021-05-16T09:24:34Z</time>
      </trkpt>
      <trkpt lat="49.07217" lon="1.28094">
        <ele>-25</ele>
        <time>2021-05-16T09:24:36Z</time>
      </trkpt>
      <trkpt lat="49.07216" lon="1.28088">
        <ele>-26</ele>
        <time>2021-05-16T09:24:38Z</time>
      </trkpt>
      <trkpt lat="49.07216" lon="1.28086">
        <ele>-26.799999237061</ele>
        <time>2021-05-16T09:24:39Z</time>
      </trkpt>
      <trkpt lat="49.07216" lon="1.2808">
        <ele>-27.799999237061</ele>
        <time>2021-05-16T09:24:41Z</time>
      </trkpt>
      <trkpt lat="49.07218" lon="1.2807">
        <ele>-29</ele>
        <time>2021-05-16T09:24:44Z</time>
      </trkpt>
      <trkpt lat="49.07218" lon="1.28064">
        <ele>-30.799999237061</ele>
        <time>2021-05-16T09:24:46Z</time>
      </trkpt>
      <trkpt lat="49.0722" lon="1.28055">
        <ele>-32</ele>
        <time>2021-05-16T09:24:49Z</time>
      </trkpt>
      <trkpt lat="49.07223" lon="1.28035">
        <ele>-32.599998474121</ele>
        <time>2021-05-16T09:24:55Z</time>
      </trkpt>
      <trkpt lat="49.07229" lon="1.28002">
        <ele>-33</ele>
        <time>2021-05-16T09:25:05Z</time>
      </trkpt>
      <trkpt lat="49.07233" lon="1.27976">
        <ele>-34</ele>
        <time>2021-05-16T09:25:13Z</time>
      </trkpt>
      <trkpt lat="49.0724" lon="1.27951">
        <ele>-34</ele>
        <time>2021-05-16T09:25:21Z</time>
      </trkpt>
      <trkpt lat="49.07244" lon="1.27934">
        <ele>-34</ele>
        <time>2021-05-16T09:25:27Z</time>
      </trkpt>
      <trkpt lat="49.07247" lon="1.27921">
        <ele>-33.200000762939</ele>
        <time>2021-05-16T09:25:32Z</time>
      </trkpt>
      <trkpt lat="49.07246" lon="1.27918">
        <ele>-33.200000762939</ele>
        <time>2021-05-16T09:25:33Z</time>
      </trkpt>
      <trkpt lat="49.07249" lon="1.27909">
        <ele>-32.599998474121</ele>
        <time>2021-05-16T09:25:36Z</time>
      </trkpt>
      <trkpt lat="49.07253" lon="1.27901">
        <ele>-32.400001525879</ele>
        <time>2021-05-16T09:25:39Z</time>
      </trkpt>
      <trkpt lat="49.07258" lon="1.27882">
        <ele>-31.799999237061</ele>
        <time>2021-05-16T09:25:45Z</time>
      </trkpt>
      <trkpt lat="49.07261" lon="1.2787">
        <ele>-31.39999961853</ele>
        <time>2021-05-16T09:25:49Z</time>
      </trkpt>
      <trkpt lat="49.07264" lon="1.2786">
        <ele>-31.200000762939</ele>
        <time>2021-05-16T09:25:52Z</time>
      </trkpt>
      <trkpt lat="49.07268" lon="1.27841">
        <ele>-30.200000762939</ele>
        <time>2021-05-16T09:25:58Z</time>
      </trkpt>
      <trkpt lat="49.07271" lon="1.27828">
        <ele>-29.200000762939</ele>
        <time>2021-05-16T09:26:02Z</time>
      </trkpt>
      <trkpt lat="49.07274" lon="1.27818">
        <ele>-28</ele>
        <time>2021-05-16T09:26:05Z</time>
      </trkpt>
      <trkpt lat="49.07276" lon="1.27809">
        <ele>-27.39999961853</ele>
        <time>2021-05-16T09:26:08Z</time>
      </trkpt>
      <trkpt lat="49.07276" lon="1.27806">
        <ele>-26.799999237061</ele>
        <time>2021-05-16T09:26:09Z</time>
      </trkpt>
      <trkpt lat="49.0728" lon="1.2779">
        <ele>-25.799999237061</ele>
        <time>2021-05-16T09:26:14Z</time>
      </trkpt>
      <trkpt lat="49.07283" lon="1.27777">
        <ele>-25.39999961853</ele>
        <time>2021-05-16T09:26:18Z</time>
      </trkpt>
      <trkpt lat="49.07284" lon="1.27767">
        <ele>-25</ele>
        <time>2021-05-16T09:26:21Z</time>
      </trkpt>
      <trkpt lat="49.07285" lon="1.27758">
        <ele>-24.799999237061</ele>
        <time>2021-05-16T09:26:24Z</time>
      </trkpt>
      <trkpt lat="49.07286" lon="1.27746">
        <ele>-24.200000762939</ele>
        <time>2021-05-16T09:26:28Z</time>
      </trkpt>
      <trkpt lat="49.07288" lon="1.27726">
        <ele>-24</ele>
        <time>2021-05-16T09:26:34Z</time>
      </trkpt>
      <trkpt lat="49.0729" lon="1.27711">
        <ele>-23.60000038147</ele>
        <time>2021-05-16T09:26:39Z</time>
      </trkpt>
      <trkpt lat="49.0729" lon="1.27704">
        <ele>-23.39999961853</ele>
        <time>2021-05-16T09:26:41Z</time>
      </trkpt>
      <trkpt lat="49.0729" lon="1.27689">
        <ele>-22.799999237061</ele>
        <time>2021-05-16T09:26:46Z</time>
      </trkpt>
      <trkpt lat="49.07291" lon="1.27686">
        <ele>-22.799999237061</ele>
        <time>2021-05-16T09:26:47Z</time>
      </trkpt>
      <trkpt lat="49.07295" lon="1.27666">
        <ele>-22.200000762939</ele>
        <time>2021-05-16T09:26:54Z</time>
      </trkpt>
      <trkpt lat="49.07295" lon="1.27663">
        <ele>-22</ele>
        <time>2021-05-16T09:26:55Z</time>
      </trkpt>
      <trkpt lat="49.07297" lon="1.27642">
        <ele>-21.60000038147</ele>
        <time>2021-05-16T09:27:02Z</time>
      </trkpt>
      <trkpt lat="49.07299" lon="1.27619">
        <ele>-21.200000762939</ele>
        <time>2021-05-16T09:27:09Z</time>
      </trkpt>
      <trkpt lat="49.07299" lon="1.27613">
        <ele>-20.799999237061</ele>
        <time>2021-05-16T09:27:11Z</time>
      </trkpt>
      <trkpt lat="49.07303" lon="1.27592">
        <ele>-20</ele>
        <time>2021-05-16T09:27:18Z</time>
      </trkpt>
      <trkpt lat="49.07312" lon="1.27578">
        <ele>-19.200000762939</ele>
        <time>2021-05-16T09:27:24Z</time>
      </trkpt>
      <trkpt lat="49.07313" lon="1.27575">
        <ele>-19</ele>
        <time>2021-05-16T09:27:25Z</time>
      </trkpt>
      <trkpt lat="49.07316" lon="1.27563">
        <ele>-18.200000762939</ele>
        <time>2021-05-16T09:27:29Z</time>
      </trkpt>
      <trkpt lat="49.07317" lon="1.27551">
        <ele>-17.60000038147</ele>
        <time>2021-05-16T09:27:33Z</time>
      </trkpt>
      <trkpt lat="49.07318" lon="1.27548">
        <ele>-17</ele>
        <time>2021-05-16T09:27:34Z</time>
      </trkpt>
      <trkpt lat="49.0732" lon="1.2753">
        <ele>-16.60000038147</ele>
        <time>2021-05-16T09:27:40Z</time>
      </trkpt>
      <trkpt lat="49.07322" lon="1.27519">
        <ele>-16.60000038147</ele>
        <time>2021-05-16T09:27:44Z</time>
      </trkpt>
      <trkpt lat="49.07324" lon="1.27508">
        <ele>-16.60000038147</ele>
        <time>2021-05-16T09:27:48Z</time>
      </trkpt>
      <trkpt lat="49.07328" lon="1.27483">
        <ele>-16.39999961853</ele>
        <time>2021-05-16T09:27:57Z</time>
      </trkpt>
      <trkpt lat="49.07331" lon="1.27469">
        <ele>-16.200000762939</ele>
        <time>2021-05-16T09:28:02Z</time>
      </trkpt>
      <trkpt lat="49.07332" lon="1.27462">
        <ele>-15.800000190735</ele>
        <time>2021-05-16T09:28:05Z</time>
      </trkpt>
      <trkpt lat="49.07335" lon="1.27453">
        <ele>-15.39999961853</ele>
        <time>2021-05-16T09:28:09Z</time>
      </trkpt>
      <trkpt lat="49.07336" lon="1.27448">
        <ele>-15.39999961853</ele>
        <time>2021-05-16T09:28:12Z</time>
      </trkpt>
      <trkpt lat="49.07337" lon="1.27438">
        <ele>-14.800000190735</ele>
        <time>2021-05-16T09:28:18Z</time>
      </trkpt>
      <trkpt lat="49.07337" lon="1.27436">
        <ele>-15</ele>
        <time>2021-05-16T09:28:19Z</time>
      </trkpt>
      <trkpt lat="49.07341" lon="1.27424">
        <ele>-14.39999961853</ele>
        <time>2021-05-16T09:28:24Z</time>
      </trkpt>
      <trkpt lat="49.07342" lon="1.2742">
        <ele>-14.39999961853</ele>
        <time>2021-05-16T09:28:26Z</time>
      </trkpt>
      <trkpt lat="49.07343" lon="1.27418">
        <ele>-14.199999809265</ele>
        <time>2021-05-16T09:28:27Z</time>
      </trkpt>
      <trkpt lat="49.07345" lon="1.27413">
        <ele>-13.60000038147</ele>
        <time>2021-05-16T09:28:30Z</time>
      </trkpt>
      <trkpt lat="49.07346" lon="1.27412">
        <ele>-13.39999961853</ele>
        <time>2021-05-16T09:28:31Z</time>
      </trkpt>
      <trkpt lat="49.07351" lon="1.27402">
        <ele>-12.39999961853</ele>
        <time>2021-05-16T09:28:36Z</time>
      </trkpt>
      <trkpt lat="49.07356" lon="1.27393">
        <ele>-11.60000038147</ele>
        <time>2021-05-16T09:28:40Z</time>
      </trkpt>
      <trkpt lat="49.07358" lon="1.27392">
        <ele>-11.39999961853</ele>
        <time>2021-05-16T09:28:41Z</time>
      </trkpt>
      <trkpt lat="49.07363" lon="1.27385">
        <ele>-10.60000038147</ele>
        <time>2021-05-16T09:28:45Z</time>
      </trkpt>
      <trkpt lat="49.07365" lon="1.27382">
        <ele>-10</ele>
        <time>2021-05-16T09:28:47Z</time>
      </trkpt>
      <trkpt lat="49.07366" lon="1.27379">
        <ele>-9.6000003814697</ele>
        <time>2021-05-16T09:28:49Z</time>
      </trkpt>
      <trkpt lat="49.07369" lon="1.27375">
        <ele>-8.6000003814697</ele>
        <time>2021-05-16T09:28:52Z</time>
      </trkpt>
      <trkpt lat="49.0737" lon="1.27374">
        <ele>-8.3999996185303</ele>
        <time>2021-05-16T09:28:53Z</time>
      </trkpt>
      <trkpt lat="49.07371" lon="1.27371">
        <ele>-7.5999999046326</ele>
        <time>2021-05-16T09:28:55Z</time>
      </trkpt>
      <trkpt lat="49.07372" lon="1.27368">
        <ele>-7.4000000953674</ele>
        <time>2021-05-16T09:28:57Z</time>
      </trkpt>
      <trkpt lat="49.07372" lon="1.27364">
        <ele>-6.8000001907349</ele>
        <time>2021-05-16T09:28:59Z</time>
      </trkpt>
      <trkpt lat="49.07372" lon="1.27362">
        <ele>-6.4000000953674</ele>
        <time>2021-05-16T09:29:00Z</time>
      </trkpt>
      <trkpt lat="49.07375" lon="1.27354">
        <ele>-5.8000001907349</ele>
        <time>2021-05-16T09:29:03Z</time>
      </trkpt>
      <trkpt lat="49.07377" lon="1.27346">
        <ele>-4.8000001907349</ele>
        <time>2021-05-16T09:29:06Z</time>
      </trkpt>
      <trkpt lat="49.07377" lon="1.27343">
        <ele>-4.5999999046326</ele>
        <time>2021-05-16T09:29:07Z</time>
      </trkpt>
      <trkpt lat="49.07377" lon="1.27334">
        <ele>-3.7999999523163</ele>
        <time>2021-05-16T09:29:11Z</time>
      </trkpt>
      <trkpt lat="49.07378" lon="1.27331">
        <ele>-3.4000000953674</ele>
        <time>2021-05-16T09:29:12Z</time>
      </trkpt>
      <trkpt lat="49.07379" lon="1.27324">
        <ele>-2.7999999523163</ele>
        <time>2021-05-16T09:29:14Z</time>
      </trkpt>
      <trkpt lat="49.0738" lon="1.27315">
        <ele>-1.7999999523163</ele>
        <time>2021-05-16T09:29:17Z</time>
      </trkpt>
      <trkpt lat="49.07381" lon="1.2731">
        <ele>-1.3999999761581</ele>
        <time>2021-05-16T09:29:19Z</time>
      </trkpt>
      <trkpt lat="49.07381" lon="1.27304">
        <ele>-0.80000001192093</ele>
        <time>2021-05-16T09:29:21Z</time>
      </trkpt>
      <trkpt lat="49.07382" lon="1.27295">
        <ele>0.20000000298023</ele>
        <time>2021-05-16T09:29:24Z</time>
      </trkpt>
      <trkpt lat="49.07382" lon="1.27291">
        <ele>0.40000000596046</ele>
        <time>2021-05-16T09:29:25Z</time>
      </trkpt>
      <trkpt lat="49.07384" lon="1.27285">
        <ele>1.3999999761581</ele>
        <time>2021-05-16T09:29:27Z</time>
      </trkpt>
      <trkpt lat="49.07385" lon="1.27276">
        <ele>2.2000000476837</ele>
        <time>2021-05-16T09:29:30Z</time>
      </trkpt>
      <trkpt lat="49.07385" lon="1.27273">
        <ele>2.5999999046326</ele>
        <time>2021-05-16T09:29:31Z</time>
      </trkpt>
      <trkpt lat="49.07386" lon="1.27268">
        <ele>3.4000000953674</ele>
        <time>2021-05-16T09:29:33Z</time>
      </trkpt>
      <trkpt lat="49.07388" lon="1.27259">
        <ele>4.4000000953674</ele>
        <time>2021-05-16T09:29:36Z</time>
      </trkpt>
      <trkpt lat="49.07389" lon="1.27248">
        <ele>5.1999998092651</ele>
        <time>2021-05-16T09:29:39Z</time>
      </trkpt>
      <trkpt lat="49.07389" lon="1.27244">
        <ele>5.5999999046326</ele>
        <time>2021-05-16T09:29:40Z</time>
      </trkpt>
      <trkpt lat="49.07391" lon="1.27231">
        <ele>6.4000000953674</ele>
        <time>2021-05-16T09:29:43Z</time>
      </trkpt>
      <trkpt lat="49.07391" lon="1.27221">
        <ele>7</ele>
        <time>2021-05-16T09:29:46Z</time>
      </trkpt>
      <trkpt lat="49.07392" lon="1.27216">
        <ele>7.1999998092651</ele>
        <time>2021-05-16T09:29:47Z</time>
      </trkpt>
      <trkpt lat="49.07393" lon="1.27206">
        <ele>8.1999998092651</ele>
        <time>2021-05-16T09:29:50Z</time>
      </trkpt>
      <trkpt lat="49.07395" lon="1.27201">
        <ele>8.6000003814697</ele>
        <time>2021-05-16T09:29:51Z</time>
      </trkpt>
      <trkpt lat="49.07396" lon="1.27194">
        <ele>9.3999996185303</ele>
        <time>2021-05-16T09:29:53Z</time>
      </trkpt>
      <trkpt lat="49.07398" lon="1.27183">
        <ele>10.60000038147</ele>
        <time>2021-05-16T09:29:56Z</time>
      </trkpt>
      <trkpt lat="49.07399" lon="1.27179">
        <ele>11</ele>
        <time>2021-05-16T09:29:57Z</time>
      </trkpt>
      <trkpt lat="49.074" lon="1.27169">
        <ele>11.60000038147</ele>
        <time>2021-05-16T09:29:59Z</time>
      </trkpt>
      <trkpt lat="49.07402" lon="1.27161">
        <ele>12.199999809265</ele>
        <time>2021-05-16T09:30:01Z</time>
      </trkpt>
      <trkpt lat="49.07403" lon="1.27157">
        <ele>12.60000038147</ele>
        <time>2021-05-16T09:30:02Z</time>
      </trkpt>
      <trkpt lat="49.07403" lon="1.27154">
        <ele>12.800000190735</ele>
        <time>2021-05-16T09:30:03Z</time>
      </trkpt>
      <trkpt lat="49.07405" lon="1.27146">
        <ele>13.60000038147</ele>
        <time>2021-05-16T09:30:05Z</time>
      </trkpt>
      <trkpt lat="49.07405" lon="1.27142">
        <ele>14</ele>
        <time>2021-05-16T09:30:06Z</time>
      </trkpt>
      <trkpt lat="49.07407" lon="1.27134">
        <ele>14.39999961853</ele>
        <time>2021-05-16T09:30:08Z</time>
      </trkpt>
      <trkpt lat="49.07407" lon="1.2713">
        <ele>14.800000190735</ele>
        <time>2021-05-16T09:30:09Z</time>
      </trkpt>
      <trkpt lat="49.07409" lon="1.27119">
        <ele>15.60000038147</ele>
        <time>2021-05-16T09:30:12Z</time>
      </trkpt>
      <trkpt lat="49.07409" lon="1.27111">
        <ele>16.39999961853</ele>
        <time>2021-05-16T09:30:14Z</time>
      </trkpt>
      <trkpt lat="49.07409" lon="1.27107">
        <ele>16.799999237061</ele>
        <time>2021-05-16T09:30:15Z</time>
      </trkpt>
      <trkpt lat="49.0741" lon="1.271">
        <ele>17.200000762939</ele>
        <time>2021-05-16T09:30:17Z</time>
      </trkpt>
      <trkpt lat="49.0741" lon="1.27096">
        <ele>17.60000038147</ele>
        <time>2021-05-16T09:30:18Z</time>
      </trkpt>
      <trkpt lat="49.07412" lon="1.27089">
        <ele>18</ele>
        <time>2021-05-16T09:30:20Z</time>
      </trkpt>
      <trkpt lat="49.07413" lon="1.27085">
        <ele>18.39999961853</ele>
        <time>2021-05-16T09:30:21Z</time>
      </trkpt>
      <trkpt lat="49.07415" lon="1.27073">
        <ele>19.60000038147</ele>
        <time>2021-05-16T09:30:24Z</time>
      </trkpt>
      <trkpt lat="49.07415" lon="1.27065">
        <ele>20.200000762939</ele>
        <time>2021-05-16T09:30:26Z</time>
      </trkpt>
      <trkpt lat="49.07416" lon="1.2706">
        <ele>20.60000038147</ele>
        <time>2021-05-16T09:30:27Z</time>
      </trkpt>
      <trkpt lat="49.07418" lon="1.27042">
        <ele>21.799999237061</ele>
        <time>2021-05-16T09:30:31Z</time>
      </trkpt>
      <trkpt lat="49.07419" lon="1.2703">
        <ele>22.60000038147</ele>
        <time>2021-05-16T09:30:34Z</time>
      </trkpt>
      <trkpt lat="49.0742" lon="1.27015">
        <ele>23.60000038147</ele>
        <time>2021-05-16T09:30:38Z</time>
      </trkpt>
      <trkpt lat="49.07421" lon="1.27002">
        <ele>24.39999961853</ele>
        <time>2021-05-16T09:30:41Z</time>
      </trkpt>
      <trkpt lat="49.07422" lon="1.26998">
        <ele>24.799999237061</ele>
        <time>2021-05-16T09:30:42Z</time>
      </trkpt>
      <trkpt lat="49.07425" lon="1.26984">
        <ele>25.60000038147</ele>
        <time>2021-05-16T09:30:46Z</time>
      </trkpt>
      <trkpt lat="49.07425" lon="1.2698">
        <ele>25.799999237061</ele>
        <time>2021-05-16T09:30:47Z</time>
      </trkpt>
      <trkpt lat="49.07428" lon="1.26967">
        <ele>26.60000038147</ele>
        <time>2021-05-16T09:30:51Z</time>
      </trkpt>
      <trkpt lat="49.0743" lon="1.26957">
        <ele>27.60000038147</ele>
        <time>2021-05-16T09:30:54Z</time>
      </trkpt>
      <trkpt lat="49.07436" lon="1.26943">
        <ele>28.799999237061</ele>
        <time>2021-05-16T09:30:58Z</time>
      </trkpt>
      <trkpt lat="49.07442" lon="1.26934">
        <ele>29.60000038147</ele>
        <time>2021-05-16T09:31:01Z</time>
      </trkpt>
      <trkpt lat="49.07449" lon="1.26922">
        <ele>30.60000038147</ele>
        <time>2021-05-16T09:31:05Z</time>
      </trkpt>
      <trkpt lat="49.07451" lon="1.26914">
        <ele>31.200000762939</ele>
        <time>2021-05-16T09:31:07Z</time>
      </trkpt>
      <trkpt lat="49.07454" lon="1.26907">
        <ele>31.799999237061</ele>
        <time>2021-05-16T09:31:09Z</time>
      </trkpt>
      <trkpt lat="49.07461" lon="1.26894">
        <ele>32.799999237061</ele>
        <time>2021-05-16T09:31:13Z</time>
      </trkpt>
      <trkpt lat="49.07465" lon="1.26889">
        <ele>33.400001525879</ele>
        <time>2021-05-16T09:31:15Z</time>
      </trkpt>
      <trkpt lat="49.07469" lon="1.26884">
        <ele>33.599998474121</ele>
        <time>2021-05-16T09:31:17Z</time>
      </trkpt>
      <trkpt lat="49.07479" lon="1.26875">
        <ele>34.400001525879</ele>
        <time>2021-05-16T09:31:21Z</time>
      </trkpt>
      <trkpt lat="49.07482" lon="1.26871">
        <ele>34.799999237061</ele>
        <time>2021-05-16T09:31:22Z</time>
      </trkpt>
      <trkpt lat="49.07496" lon="1.26853">
        <ele>35.599998474121</ele>
        <time>2021-05-16T09:31:28Z</time>
      </trkpt>
      <trkpt lat="49.07498" lon="1.26849">
        <ele>35.599998474121</ele>
        <time>2021-05-16T09:31:29Z</time>
      </trkpt>
      <trkpt lat="49.07509" lon="1.26835">
        <ele>36.599998474121</ele>
        <time>2021-05-16T09:31:33Z</time>
      </trkpt>
      <trkpt lat="49.07517" lon="1.26825">
        <ele>37.200000762939</ele>
        <time>2021-05-16T09:31:36Z</time>
      </trkpt>
      <trkpt lat="49.07523" lon="1.26818">
        <ele>37.599998474121</ele>
        <time>2021-05-16T09:31:38Z</time>
      </trkpt>
      <trkpt lat="49.07537" lon="1.268">
        <ele>38.400001525879</ele>
        <time>2021-05-16T09:31:43Z</time>
      </trkpt>
      <trkpt lat="49.0754" lon="1.26797">
        <ele>38.599998474121</ele>
        <time>2021-05-16T09:31:44Z</time>
      </trkpt>
      <trkpt lat="49.07549" lon="1.26785">
        <ele>39.400001525879</ele>
        <time>2021-05-16T09:31:48Z</time>
      </trkpt>
      <trkpt lat="49.07555" lon="1.26777">
        <ele>40.400001525879</ele>
        <time>2021-05-16T09:31:51Z</time>
      </trkpt>
      <trkpt lat="49.07556" lon="1.26775">
        <ele>40.599998474121</ele>
        <time>2021-05-16T09:31:52Z</time>
      </trkpt>
      <trkpt lat="49.07566" lon="1.26759">
        <ele>41.599998474121</ele>
        <time>2021-05-16T09:31:59Z</time>
      </trkpt>
      <trkpt lat="49.0757" lon="1.26748">
        <ele>42.200000762939</ele>
        <time>2021-05-16T09:32:04Z</time>
      </trkpt>
      <trkpt lat="49.07571" lon="1.26747">
        <ele>42.200000762939</ele>
        <time>2021-05-16T09:32:05Z</time>
      </trkpt>
      <trkpt lat="49.07572" lon="1.26744">
        <ele>42.400001525879</ele>
        <time>2021-05-16T09:32:08Z</time>
      </trkpt>
      <trkpt lat="49.07572" lon="1.26739">
        <ele>3</ele>
        <time>2021-05-16T09:33:25Z</time>
      </trkpt>
      <trkpt lat="49.07573" lon="1.26738">
        <ele>3</ele>
        <time>2021-05-16T09:33:26Z</time>
      </trkpt>
      <trkpt lat="49.07573" lon="1.26735">
        <ele>2.7999999523163</ele>
        <time>2021-05-16T09:33:28Z</time>
      </trkpt>
      <trkpt lat="49.07579" lon="1.26729">
        <ele>2.7999999523163</ele>
        <time>2021-05-16T09:33:31Z</time>
      </trkpt>
      <trkpt lat="49.07591" lon="1.2671">
        <ele>2.5999999046326</ele>
        <time>2021-05-16T09:33:36Z</time>
      </trkpt>
      <trkpt lat="49.07611" lon="1.26685">
        <ele>3</ele>
        <time>2021-05-16T09:33:41Z</time>
      </trkpt>
      <trkpt lat="49.07615" lon="1.26679">
        <ele>3.5999999046326</ele>
        <time>2021-05-16T09:33:42Z</time>
      </trkpt>
      <trkpt lat="49.07631" lon="1.26654">
        <ele>4.4000000953674</ele>
        <time>2021-05-16T09:33:46Z</time>
      </trkpt>
      <trkpt lat="49.07638" lon="1.2664">
        <ele>4.5999999046326</ele>
        <time>2021-05-16T09:33:48Z</time>
      </trkpt>
      <trkpt lat="49.0764" lon="1.26632">
        <ele>4.8000001907349</ele>
        <time>2021-05-16T09:33:49Z</time>
      </trkpt>
      <trkpt lat="49.07644" lon="1.26616">
        <ele>5.1999998092651</ele>
        <time>2021-05-16T09:33:51Z</time>
      </trkpt>
      <trkpt lat="49.07645" lon="1.26608">
        <ele>5.5999999046326</ele>
        <time>2021-05-16T09:33:52Z</time>
      </trkpt>
      <trkpt lat="49.07647" lon="1.26599">
        <ele>5.5999999046326</ele>
        <time>2021-05-16T09:33:53Z</time>
      </trkpt>
      <trkpt lat="49.07652" lon="1.26574">
        <ele>5.8000001907349</ele>
        <time>2021-05-16T09:33:56Z</time>
      </trkpt>
      <trkpt lat="49.07657" lon="1.26541">
        <ele>6.5999999046326</ele>
        <time>2021-05-16T09:34:00Z</time>
      </trkpt>
      <trkpt lat="49.07658" lon="1.26532">
        <ele>6.8000001907349</ele>
        <time>2021-05-16T09:34:01Z</time>
      </trkpt>
      <trkpt lat="49.07661" lon="1.26473">
        <ele>7.5999999046326</ele>
        <time>2021-05-16T09:34:08Z</time>
      </trkpt>
      <trkpt lat="49.07664" lon="1.26441">
        <ele>8.6000003814697</ele>
        <time>2021-05-16T09:34:12Z</time>
      </trkpt>
      <trkpt lat="49.07666" lon="1.26426">
        <ele>9</ele>
        <time>2021-05-16T09:34:14Z</time>
      </trkpt>
      <trkpt lat="49.07668" lon="1.26419">
        <ele>9</ele>
        <time>2021-05-16T09:34:15Z</time>
      </trkpt>
      <trkpt lat="49.07677" lon="1.26414">
        <ele>9.3999996185303</ele>
        <time>2021-05-16T09:34:17Z</time>
      </trkpt>
      <trkpt lat="49.07689" lon="1.26416">
        <ele>9.8000001907349</ele>
        <time>2021-05-16T09:34:19Z</time>
      </trkpt>
      <trkpt lat="49.077" lon="1.26416">
        <ele>10.199999809265</ele>
        <time>2021-05-16T09:34:21Z</time>
      </trkpt>
      <trkpt lat="49.07705" lon="1.26414">
        <ele>10.60000038147</ele>
        <time>2021-05-16T09:34:22Z</time>
      </trkpt>
      <trkpt lat="49.07715" lon="1.26396">
        <ele>10.800000190735</ele>
        <time>2021-05-16T09:34:25Z</time>
      </trkpt>
      <trkpt lat="49.07714" lon="1.26374">
        <ele>11</ele>
        <time>2021-05-16T09:34:28Z</time>
      </trkpt>
      <trkpt lat="49.07714" lon="1.26367">
        <ele>11</ele>
        <time>2021-05-16T09:34:29Z</time>
      </trkpt>
      <trkpt lat="49.07713" lon="1.26359">
        <ele>11.199999809265</ele>
        <time>2021-05-16T09:34:30Z</time>
      </trkpt>
      <trkpt lat="49.07709" lon="1.26329">
        <ele>11.199999809265</ele>
        <time>2021-05-16T09:34:34Z</time>
      </trkpt>
      <trkpt lat="49.07703" lon="1.26271">
        <ele>11.60000038147</ele>
        <time>2021-05-16T09:34:42Z</time>
      </trkpt>
      <trkpt lat="49.07699" lon="1.26226">
        <ele>12.39999961853</ele>
        <time>2021-05-16T09:34:48Z</time>
      </trkpt>
      <trkpt lat="49.07698" lon="1.2621">
        <ele>12.800000190735</ele>
        <time>2021-05-16T09:34:50Z</time>
      </trkpt>
      <trkpt lat="49.07699" lon="1.26202">
        <ele>12.800000190735</ele>
        <time>2021-05-16T09:34:51Z</time>
      </trkpt>
      <trkpt lat="49.077" lon="1.26187">
        <ele>13.39999961853</ele>
        <time>2021-05-16T09:34:53Z</time>
      </trkpt>
      <trkpt lat="49.077" lon="1.26162">
        <ele>14.39999961853</ele>
        <time>2021-05-16T09:34:56Z</time>
      </trkpt>
      <trkpt lat="49.07702" lon="1.26138">
        <ele>15.39999961853</ele>
        <time>2021-05-16T09:34:59Z</time>
      </trkpt>
      <trkpt lat="49.07703" lon="1.26106">
        <ele>16.60000038147</ele>
        <time>2021-05-16T09:35:03Z</time>
      </trkpt>
      <trkpt lat="49.07702" lon="1.26089">
        <ele>17</ele>
        <time>2021-05-16T09:35:05Z</time>
      </trkpt>
      <trkpt lat="49.07701" lon="1.26071">
        <ele>17.39999961853</ele>
        <time>2021-05-16T09:35:07Z</time>
      </trkpt>
      <trkpt lat="49.07698" lon="1.26043">
        <ele>18.39999961853</ele>
        <time>2021-05-16T09:35:10Z</time>
      </trkpt>
      <trkpt lat="49.07697" lon="1.26035">
        <ele>18.60000038147</ele>
        <time>2021-05-16T09:35:11Z</time>
      </trkpt>
      <trkpt lat="49.07693" lon="1.26008">
        <ele>19.39999961853</ele>
        <time>2021-05-16T09:35:14Z</time>
      </trkpt>
      <trkpt lat="49.07687" lon="1.25969">
        <ele>20.200000762939</ele>
        <time>2021-05-16T09:35:18Z</time>
      </trkpt>
      <trkpt lat="49.07676" lon="1.25915">
        <ele>21.200000762939</ele>
        <time>2021-05-16T09:35:23Z</time>
      </trkpt>
      <trkpt lat="49.07673" lon="1.25905">
        <ele>21.39999961853</ele>
        <time>2021-05-16T09:35:24Z</time>
      </trkpt>
      <trkpt lat="49.07667" lon="1.25872">
        <ele>22.200000762939</ele>
        <time>2021-05-16T09:35:27Z</time>
      </trkpt>
      <trkpt lat="49.07659" lon="1.25838">
        <ele>22.799999237061</ele>
        <time>2021-05-16T09:35:30Z</time>
      </trkpt>
      <trkpt lat="49.07657" lon="1.25826">
        <ele>23</ele>
        <time>2021-05-16T09:35:31Z</time>
      </trkpt>
      <trkpt lat="49.07649" lon="1.25786">
        <ele>24.200000762939</ele>
        <time>2021-05-16T09:35:34Z</time>
      </trkpt>
      <trkpt lat="49.07644" lon="1.25757">
        <ele>24.799999237061</ele>
        <time>2021-05-16T09:35:36Z</time>
      </trkpt>
      <trkpt lat="49.07641" lon="1.25744">
        <ele>25.200000762939</ele>
        <time>2021-05-16T09:35:37Z</time>
      </trkpt>
      <trkpt lat="49.07635" lon="1.25716">
        <ele>26</ele>
        <time>2021-05-16T09:35:39Z</time>
      </trkpt>
      <trkpt lat="49.07632" lon="1.25701">
        <ele>26.200000762939</ele>
        <time>2021-05-16T09:35:40Z</time>
      </trkpt>
      <trkpt lat="49.07626" lon="1.25658">
        <ele>27</ele>
        <time>2021-05-16T09:35:43Z</time>
      </trkpt>
      <trkpt lat="49.07626" lon="1.25628">
        <ele>27.200000762939</ele>
        <time>2021-05-16T09:35:45Z</time>
      </trkpt>
      <trkpt lat="49.0763" lon="1.25601">
        <ele>27.60000038147</ele>
        <time>2021-05-16T09:35:47Z</time>
      </trkpt>
      <trkpt lat="49.07633" lon="1.2559">
        <ele>27.799999237061</ele>
        <time>2021-05-16T09:35:48Z</time>
      </trkpt>
      <trkpt lat="49.07635" lon="1.25579">
        <ele>28</ele>
        <time>2021-05-16T09:35:49Z</time>
      </trkpt>
      <trkpt lat="49.07641" lon="1.25551">
        <ele>28.60000038147</ele>
        <time>2021-05-16T09:35:52Z</time>
      </trkpt>
      <trkpt lat="49.07643" lon="1.25543">
        <ele>29</ele>
        <time>2021-05-16T09:35:53Z</time>
      </trkpt>
      <trkpt lat="49.07647" lon="1.25519">
        <ele>30.200000762939</ele>
        <time>2021-05-16T09:35:56Z</time>
      </trkpt>
      <trkpt lat="49.0765" lon="1.25503">
        <ele>30.799999237061</ele>
        <time>2021-05-16T09:35:58Z</time>
      </trkpt>
      <trkpt lat="49.07651" lon="1.25496">
        <ele>31.200000762939</ele>
        <time>2021-05-16T09:35:59Z</time>
      </trkpt>
      <trkpt lat="49.07655" lon="1.25474">
        <ele>32.200000762939</ele>
        <time>2021-05-16T09:36:02Z</time>
      </trkpt>
      <trkpt lat="49.07658" lon="1.25462">
        <ele>33</ele>
        <time>2021-05-16T09:36:04Z</time>
      </trkpt>
      <trkpt lat="49.07659" lon="1.25456">
        <ele>33.400001525879</ele>
        <time>2021-05-16T09:36:05Z</time>
      </trkpt>
      <trkpt lat="49.07662" lon="1.25445">
        <ele>34.400001525879</ele>
        <time>2021-05-16T09:36:07Z</time>
      </trkpt>
      <trkpt lat="49.07665" lon="1.25426">
        <ele>35.799999237061</ele>
        <time>2021-05-16T09:36:10Z</time>
      </trkpt>
      <trkpt lat="49.07668" lon="1.25407">
        <ele>37</ele>
        <time>2021-05-16T09:36:13Z</time>
      </trkpt>
      <trkpt lat="49.07669" lon="1.25401">
        <ele>37.599998474121</ele>
        <time>2021-05-16T09:36:14Z</time>
      </trkpt>
      <trkpt lat="49.07669" lon="1.25389">
        <ele>38.400001525879</ele>
        <time>2021-05-16T09:36:16Z</time>
      </trkpt>
      <trkpt lat="49.07666" lon="1.25384">
        <ele>38.799999237061</ele>
        <time>2021-05-16T09:36:17Z</time>
      </trkpt>
      <trkpt lat="49.07659" lon="1.25378">
        <ele>39.799999237061</ele>
        <time>2021-05-16T09:36:19Z</time>
      </trkpt>
      <trkpt lat="49.07655" lon="1.25376">
        <ele>40.200000762939</ele>
        <time>2021-05-16T09:36:20Z</time>
      </trkpt>
      <trkpt lat="49.0765" lon="1.25375">
        <ele>40.799999237061</ele>
        <time>2021-05-16T09:36:21Z</time>
      </trkpt>
      <trkpt lat="49.07646" lon="1.25373">
        <ele>41.200000762939</ele>
        <time>2021-05-16T09:36:22Z</time>
      </trkpt>
      <trkpt lat="49.07632" lon="1.25367">
        <ele>42.400001525879</ele>
        <time>2021-05-16T09:36:25Z</time>
      </trkpt>
      <trkpt lat="49.07617" lon="1.25361">
        <ele>43.799999237061</ele>
        <time>2021-05-16T09:36:28Z</time>
      </trkpt>
      <trkpt lat="49.07602" lon="1.25354">
        <ele>45.200000762939</ele>
        <time>2021-05-16T09:36:31Z</time>
      </trkpt>
      <trkpt lat="49.07598" lon="1.25352">
        <ele>45.599998474121</ele>
        <time>2021-05-16T09:36:32Z</time>
      </trkpt>
      <trkpt lat="49.07588" lon="1.25348">
        <ele>46.200000762939</ele>
        <time>2021-05-16T09:36:34Z</time>
      </trkpt>
      <trkpt lat="49.07578" lon="1.25343">
        <ele>47.200000762939</ele>
        <time>2021-05-16T09:36:36Z</time>
      </trkpt>
      <trkpt lat="49.0756" lon="1.25331">
        <ele>48.599998474121</ele>
        <time>2021-05-16T09:36:40Z</time>
      </trkpt>
      <trkpt lat="49.07556" lon="1.25328">
        <ele>48.599998474121</ele>
        <time>2021-05-16T09:36:41Z</time>
      </trkpt>
      <trkpt lat="49.07548" lon="1.2532">
        <ele>49.400001525879</ele>
        <time>2021-05-16T09:36:43Z</time>
      </trkpt>
      <trkpt lat="49.07535" lon="1.25309">
        <ele>50.799999237061</ele>
        <time>2021-05-16T09:36:46Z</time>
      </trkpt>
      <trkpt lat="49.07523" lon="1.25295">
        <ele>51.799999237061</ele>
        <time>2021-05-16T09:36:49Z</time>
      </trkpt>
      <trkpt lat="49.07513" lon="1.25282">
        <ele>53</ele>
        <time>2021-05-16T09:36:52Z</time>
      </trkpt>
      <trkpt lat="49.07509" lon="1.25278">
        <ele>53.400001525879</ele>
        <time>2021-05-16T09:36:53Z</time>
      </trkpt>
      <trkpt lat="49.07502" lon="1.25281">
        <ele>54.200000762939</ele>
        <time>2021-05-16T09:36:55Z</time>
      </trkpt>
      <trkpt lat="49.07497" lon="1.25292">
        <ele>54.799999237061</ele>
        <time>2021-05-16T09:36:57Z</time>
      </trkpt>
      <trkpt lat="49.07495" lon="1.25299">
        <ele>55.200000762939</ele>
        <time>2021-05-16T09:36:58Z</time>
      </trkpt>
      <trkpt lat="49.07492" lon="1.25306">
        <ele>55.599998474121</ele>
        <time>2021-05-16T09:36:59Z</time>
      </trkpt>
      <trkpt lat="49.07488" lon="1.2532">
        <ele>56.400001525879</ele>
        <time>2021-05-16T09:37:01Z</time>
      </trkpt>
      <trkpt lat="49.07486" lon="1.25327">
        <ele>56.799999237061</ele>
        <time>2021-05-16T09:37:02Z</time>
      </trkpt>
      <trkpt lat="49.07486" lon="1.25341">
        <ele>57.799999237061</ele>
        <time>2021-05-16T09:37:04Z</time>
      </trkpt>
      <trkpt lat="49.07492" lon="1.25354">
        <ele>58.799999237061</ele>
        <time>2021-05-16T09:37:07Z</time>
      </trkpt>
      <trkpt lat="49.07495" lon="1.25359">
        <ele>60</ele>
        <time>2021-05-16T09:37:10Z</time>
      </trkpt>
      <trkpt lat="49.07496" lon="1.2536">
        <ele>60.599998474121</ele>
        <time>2021-05-16T09:37:12Z</time>
      </trkpt>
      <trkpt lat="49.07496" lon="1.25362">
        <ele>63.599998474121</ele>
        <time>2021-05-16T09:37:23Z</time>
      </trkpt>
      <trkpt lat="49.07497" lon="1.25364">
        <ele>64.599998474121</ele>
        <time>2021-05-16T09:37:27Z</time>
      </trkpt>
    </trkseg>
  </trk>
</gpx>